Wetterdaten: Freitag, 01.01.2021
Datum Zeit Temp. 2m Temp +5 cm Feuchte A. Luftdruck Regen Wind Richtung Richtung Sonnenschein UV Solar Taupunkt Windchill Windben
01.01.2021 00:00 -0,2 C 0,0 C 95 % 1005,7 hPa 0,0 l/m 0,0 km/h (0 Bft) N-NW 332 0 min 0,0 UV-I 0 W/m -0,9 C -0,2 C 0,0 km/h (0 Bft)
01.01.2021 00:02 -0,2 C 0,0 C 95 % 1005,8 hPa 0,0 l/m 0,0 km/h (0 Bft) N-NW 332 0 min 0,0 UV-I 0 W/m -0,9 C -0,2 C 0,0 km/h (0 Bft)
01.01.2021 00:04 -0,2 C 0,0 C 95 % 1005,8 hPa 0,0 l/m 0,0 km/h (0 Bft) N-NW 332 0 min 0,0 UV-I 0 W/m -0,9 C -0,2 C 0,0 km/h (0 Bft)
01.01.2021 00:06 -0,2 C 0,0 C 95 % 1005,8 hPa 0,0 l/m 0,0 km/h (0 Bft) N-NW 332 0 min 0,0 UV-I 0 W/m -0,9 C -0,2 C 0,0 km/h (0 Bft)
01.01.2021 00:08 -0,2 C 0,0 C 95 % 1005,8 hPa 0,0 l/m 0,0 km/h (0 Bft) N-NW 332 0 min 0,0 UV-I 0 W/m -0,9 C -0,2 C 0,0 km/h (0 Bft)
01.01.2021 00:10 -0,2 C 0,0 C 95 % 1005,8 hPa 0,0 l/m 0,0 km/h (0 Bft) W-NW 302 0 min 0,0 UV-I 0 W/m -0,9 C -0,2 C 0,0 km/h (0 Bft)
01.01.2021 00:12 -0,2 C 0,0 C 95 % 1005,9 hPa 0,0 l/m 0,0 km/h (0 Bft) NW 306 0 min 0,0 UV-I 0 W/m -0,9 C -0,2 C 0,0 km/h (0 Bft)
01.01.2021 00:14 -0,2 C 0,0 C 95 % 1005,8 hPa 0,0 l/m 0,0 km/h (0 Bft) NW 306 0 min 0,0 UV-I 0 W/m -0,9 C -0,2 C 0,0 km/h (0 Bft)
01.01.2021 00:16 -0,2 C 0,0 C 95 % 1005,8 hPa 0,0 l/m 0,0 km/h (0 Bft) NW 306 0 min 0,0 UV-I 0 W/m -0,9 C -0,2 C 0,0 km/h (0 Bft)
01.01.2021 00:18 -0,2 C 0,0 C 95 % 1005,9 hPa 0,0 l/m 0,0 km/h (0 Bft) NW 308 0 min 0,0 UV-I 0 W/m -0,9 C -0,2 C 0,0 km/h (0 Bft)
01.01.2021 00:20 -0,2 C 0,0 C 95 % 1005,9 hPa 0,0 l/m 0,0 km/h (0 Bft) NW 308 0 min 0,0 UV-I 0 W/m -0,9 C -0,2 C 0,0 km/h (0 Bft)
01.01.2021 00:22 -0,1 C 0,0 C 95 % 1005,9 hPa 0,0 l/m 0,0 km/h (0 Bft) NW 308 0 min 0,0 UV-I 0 W/m -0,8 C -0,1 C 0,0 km/h (0 Bft)
01.01.2021 00:24 -0,1 C 0,0 C 95 % 1005,9 hPa 0,0 l/m 0,0 km/h (0 Bft) NW 308 0 min 0,0 UV-I 0 W/m -0,8 C -0,1 C 0,0 km/h (0 Bft)
01.01.2021 00:26 -0,2 C 0,0 C 95 % 1005,9 hPa 0,0 l/m 0,0 km/h (0 Bft) NW 308 0 min 0,0 UV-I 0 W/m -0,9 C -0,2 C 0,0 km/h (0 Bft)
01.01.2021 00:28 -0,1 C 0,0 C 95 % 1005,9 hPa 0,0 l/m 0,0 km/h (0 Bft) NW 308 0 min 0,0 UV-I 0 W/m -0,8 C -0,1 C 0,0 km/h (0 Bft)
01.01.2021 00:29 -0,1 C 0,0 C 95 % 1005,9 hPa 0,0 l/m 0,0 km/h (0 Bft) N 0 0 min 0,0 UV-I 0 W/m -0,8 C -0,1 C 0,0 km/h (0 Bft)
01.01.2021 00:30 -0,2 C 0,0 C 95 % 1005,9 hPa 0,0 l/m 0,0 km/h (0 Bft) N 0 0 min 0,0 UV-I 0 W/m -0,9 C -0,2 C 0,0 km/h (0 Bft)
01.01.2021 00:32 -0,2 C 0,0 C 95 % 1005,9 hPa 0,0 l/m 0,0 km/h (0 Bft) NW 309 0 min 0,0 UV-I 0 W/m -0,9 C -0,2 C 0,0 km/h (0 Bft)
01.01.2021 00:33 -0,2 C 0,0 C 95 % 1005,9 hPa 0,0 l/m 0,0 km/h (0 Bft) N 0 0 min 0,0 UV-I 0 W/m -0,9 C -0,2 C 0,0 km/h (0 Bft)
01.01.2021 00:34 -0,2 C 0,0 C 95 % 1005,9 hPa 0,0 l/m 0,0 km/h (0 Bft) N 0 0 min 0,0 UV-I 0 W/m -0,9 C -0,2 C 0,0 km/h (0 Bft)
01.01.2021 00:35 -0,2 C 0,0 C 95 % 1006,0 hPa 0,0 l/m 0,0 km/h (0 Bft) N 0 0 min 0,0 UV-I 0 W/m -0,9 C -0,2 C 0,0 km/h (0 Bft)
01.01.2021 00:36 -0,2 C 0,0 C 95 % 1005,9 hPa 0,0 l/m 0,0 km/h (0 Bft) N 0 0 min 0,0 UV-I 0 W/m -0,9 C -0,2 C 0,0 km/h (0 Bft)
01.01.2021 00:37 -0,2 C 0,0 C 95 % 1006,0 hPa 0,0 l/m 0,0 km/h (0 Bft) N 0 0 min 0,0 UV-I 0 W/m -0,9 C -0,2 C 0,0 km/h (0 Bft)
01.01.2021 00:38 -0,2 C 0,0 C 95 % 1005,9 hPa 0,0 l/m 0,0 km/h (0 Bft) N 0 0 min 0,0 UV-I 0 W/m -0,9 C -0,2 C 0,0 km/h (0 Bft)
01.01.2021 00:39 -0,2 C 0,0 C 95 % 1006,0 hPa 0,0 l/m 0,0 km/h (0 Bft) N 0 0 min 0,0 UV-I 0 W/m -0,9 C -0,2 C 0,0 km/h (0 Bft)
01.01.2021 00:40 -0,2 C 0,0 C 95 % 1006,0 hPa 0,0 l/m 0,0 km/h (0 Bft) N 0 0 min 0,0 UV-I 0 W/m -0,9 C -0,2 C 0,0 km/h (0 Bft)
01.01.2021 00:41 -0,2 C 0,0 C 95 % 1006,1 hPa 0,0 l/m 0,0 km/h (0 Bft) N 0 0 min 0,0 UV-I 0 W/m -0,9 C -0,2 C 0,0 km/h (0 Bft)
01.01.2021 00:42 -0,2 C 0,0 C 95 % 1006,1 hPa 0,0 l/m 0,0 km/h (0 Bft) N 0 0 min 0,0 UV-I 0 W/m -0,9 C -0,2 C 0,0 km/h (0 Bft)
01.01.2021 00:43 -0,2 C 0,0 C 95 % 1006,1 hPa 0,0 l/m 0,0 km/h (0 Bft) N 0 0 min 0,0 UV-I 0 W/m -0,9 C -0,2 C 0,0 km/h (0 Bft)
01.01.2021 00:44 -0,2 C 0,0 C 95 % 1006,0 hPa 0,0 l/m 0,0 km/h (0 Bft) N 0 0 min 0,0 UV-I 0 W/m -0,9 C -0,2 C 0,0 km/h (0 Bft)
01.01.2021 00:45 -0,2 C 0,0 C 95 % 1006,1 hPa 0,0 l/m 0,0 km/h (0 Bft) N 0 0 min 0,0 UV-I 0 W/m -0,9 C -0,2 C 0,0 km/h (0 Bft)
01.01.2021 00:46 -0,2 C 0,0 C 95 % 1006,1 hPa 0,0 l/m 0,0 km/h (0 Bft) N 0 0 min 0,0 UV-I 0 W/m -0,9 C -0,2 C 0,0 km/h (0 Bft)
01.01.2021 00:47 -0,2 C 0,0 C 95 % 1006,1 hPa 0,0 l/m 0,0 km/h (0 Bft) N 0 0 min 0,0 UV-I 0 W/m -0,9 C -0,2 C 0,0 km/h (0 Bft)
01.01.2021 00:48 -0,2 C 0,0 C 95 % 1006,1 hPa 0,0 l/m 0,0 km/h (0 Bft) N 0 0 min 0,0 UV-I 0 W/m -0,9 C -0,2 C 0,0 km/h (0 Bft)
01.01.2021 00:49 -0,2 C 0,0 C 95 % 1006,2 hPa 0,0 l/m 0,0 km/h (0 Bft) N 0 0 min 0,0 UV-I 0 W/m -0,9 C -0,2 C 0,0 km/h (0 Bft)
01.01.2021 00:50 -0,2 C 0,0 C 95 % 1006,2 hPa 0,0 l/m 0,0 km/h (0 Bft) N 0 0 min 0,0 UV-I 0 W/m -0,9 C -0,2 C 0,0 km/h (0 Bft)
01.01.2021 00:51 -0,2 C 0,0 C 95 % 1006,2 hPa 0,0 l/m 0,0 km/h (0 Bft) N 0 0 min 0,0 UV-I 0 W/m -0,9 C -0,2 C 0,0 km/h (0 Bft)
01.01.2021 00:52 -0,2 C 0,0 C 95 % 1006,2 hPa 0,0 l/m 0,0 km/h (0 Bft) N 0 0 min 0,0 UV-I 0 W/m -0,9 C -0,2 C 0,0 km/h (0 Bft)
01.01.2021 00:53 -0,2 C 0,0 C 95 % 1006,1 hPa 0,0 l/m 0,0 km/h (0 Bft) N 0 0 min 0,0 UV-I 0 W/m -0,9 C -0,2 C 0,0 km/h (0 Bft)
01.01.2021 00:54 -0,2 C 0,0 C 95 % 1006,1 hPa 0,0 l/m 0,0 km/h (0 Bft) N 0 0 min 0,0 UV-I 0 W/m -0,9 C -0,2 C 0,0 km/h (0 Bft)
01.01.2021 00:55 -0,2 C 0,0 C 95 % 1006,2 hPa 0,0 l/m 0,0 km/h (0 Bft) N 0 0 min 0,0 UV-I 0 W/m -0,9 C -0,2 C 0,0 km/h (0 Bft)
01.01.2021 00:56 -0,2 C 0,0 C 95 % 1006,2 hPa 0,0 l/m 0,0 km/h (0 Bft) N 0 0 min 0,0 UV-I 0 W/m -0,9 C -0,2 C 0,0 km/h (0 Bft)
01.01.2021 00:57 -0,2 C 0,0 C 95 % 1006,2 hPa 0,0 l/m 0,0 km/h (0 Bft) N 0 0 min 0,0 UV-I 0 W/m -0,9 C -0,2 C 0,0 km/h (0 Bft)
01.01.2021 00:58 -0,2 C 0,0 C 95 % 1006,2 hPa 0,0 l/m 0,0 km/h (0 Bft) N 0 0 min 0,0 UV-I 0 W/m -0,9 C -0,2 C 0,0 km/h (0 Bft)
01.01.2021 00:59 -0,2 C 0,0 C 95 % 1006,2 hPa 0,0 l/m 0,0 km/h (0 Bft) N 0 0 min 0,0 UV-I 0 W/m -0,9 C -0,2 C 0,0 km/h (0 Bft)
01.01.2021 01:00 -0,2 C 0,0 C 95 % 1006,2 hPa 0,0 l/m 0,0 km/h (0 Bft) N 0 0 min 0,0 UV-I 0 W/m -0,9 C -0,2 C 0,0 km/h (0 Bft)
01.01.2021 01:01 -0,2 C 0,0 C 95 % 1006,2 hPa 0,0 l/m 0,0 km/h (0 Bft) N 0 0 min 0,0 UV-I 0 W/m -0,9 C -0,2 C 0,0 km/h (0 Bft)
01.01.2021 01:02 -0,2 C 0,0 C 95 % 1006,2 hPa 0,0 l/m 0,0 km/h (0 Bft) N 0 0 min 0,0 UV-I 0 W/m -0,9 C -0,2 C 0,0 km/h (0 Bft)
01.01.2021 01:03 -0,2 C 0,0 C 95 % 1006,3 hPa 0,0 l/m 0,0 km/h (0 Bft) N 0 0 min 0,0 UV-I 0 W/m -0,9 C -0,2 C 0,0 km/h (0 Bft)
01.01.2021 01:04 -0,2 C 0,0 C 95 % 1006,2 hPa 0,0 l/m 0,0 km/h (0 Bft) N 0 0 min 0,0 UV-I 0 W/m -0,9 C -0,2 C 0,0 km/h (0 Bft)
01.01.2021 01:05 -0,2 C 0,0 C 95 % 1006,3 hPa 0,0 l/m 0,0 km/h (0 Bft) N 0 0 min 0,0 UV-I 0 W/m -0,9 C -0,2 C 0,0 km/h (0 Bft)
01.01.2021 01:06 -0,2 C 0,0 C 95 % 1006,2 hPa 0,0 l/m 0,0 km/h (0 Bft) N 0 0 min 0,0 UV-I 0 W/m -0,9 C -0,2 C 0,0 km/h (0 Bft)
01.01.2021 01:07 -0,2 C 0,0 C 95 % 1006,2 hPa 0,0 l/m 0,0 km/h (0 Bft) N 0 0 min 0,0 UV-I 0 W/m -0,9 C -0,2 C 0,0 km/h (0 Bft)
01.01.2021 01:08 -0,2 C 0,0 C 95 % 1006,1 hPa 0,0 l/m 0,0 km/h (0 Bft) N 0 0 min 0,0 UV-I 0 W/m -0,9 C -0,2 C 0,0 km/h (0 Bft)
01.01.2021 01:09 -0,2 C 0,0 C 95 % 1006,2 hPa 0,0 l/m 0,0 km/h (0 Bft) N 0 0 min 0,0 UV-I 0 W/m -0,9 C -0,2 C 0,0 km/h (0 Bft)
01.01.2021 01:10 -0,2 C 0,0 C 95 % 1006,2 hPa 0,0 l/m 0,0 km/h (0 Bft) N 0 0 min 0,0 UV-I 0 W/m -0,9 C -0,2 C 0,0 km/h (0 Bft)
01.01.2021 01:11 -0,2 C 0,0 C 95 % 1006,3 hPa 0,0 l/m 0,0 km/h (0 Bft) N 0 0 min 0,0 UV-I 0 W/m -0,9 C -0,2 C 0,0 km/h (0 Bft)
01.01.2021 01:12 -0,2 C 0,0 C 95 % 1006,1 hPa 0,0 l/m 0,0 km/h (0 Bft) N 0 0 min 0,0 UV-I 0 W/m -0,9 C -0,2 C 0,0 km/h (0 Bft)
01.01.2021 01:13 -0,2 C 0,0 C 95 % 1006,2 hPa 0,0 l/m 0,0 km/h (0 Bft) N 0 0 min 0,0 UV-I 0 W/m -0,9 C -0,2 C 0,0 km/h (0 Bft)
01.01.2021 01:14 -0,2 C 0,0 C 95 % 1006,2 hPa 0,0 l/m 0,0 km/h (0 Bft) N 0 0 min 0,0 UV-I 0 W/m -0,9 C -0,2 C 0,0 km/h (0 Bft)
01.01.2021 01:15 -0,2 C 0,0 C 95 % 1006,3 hPa 0,0 l/m 0,0 km/h (0 Bft) N 0 0 min 0,0 UV-I 0 W/m -0,9 C -0,2 C 0,0 km/h (0 Bft)
01.01.2021 01:16 -0,2 C 0,0 C 95 % 1006,3 hPa 0,0 l/m 0,0 km/h (0 Bft) N 0 0 min 0,0 UV-I 0 W/m -0,9 C -0,2 C 0,0 km/h (0 Bft)
01.01.2021 01:17 -0,2 C 0,0 C 95 % 1006,3 hPa 0,0 l/m 0,0 km/h (0 Bft) N 0 0 min 0,0 UV-I 0 W/m -0,9 C -0,2 C 0,0 km/h (0 Bft)
01.01.2021 01:18 -0,2 C 0,0 C 95 % 1006,2 hPa 0,0 l/m 0,0 km/h (0 Bft) N 0 0 min 0,0 UV-I 0 W/m -0,9 C -0,2 C 0,0 km/h (0 Bft)
01.01.2021 01:19 -0,2 C 0,0 C 95 % 1006,3 hPa 0,0 l/m 0,0 km/h (0 Bft) N 0 0 min 0,0 UV-I 0 W/m -0,9 C -0,2 C 0,0 km/h (0 Bft)
01.01.2021 01:20 -0,2 C 0,0 C 95 % 1006,3 hPa 0,0 l/m 0,0 km/h (0 Bft) N 0 0 min 0,0 UV-I 0 W/m -0,9 C -0,2 C 0,0 km/h (0 Bft)
01.01.2021 01:21 -0,2 C 0,0 C 95 % 1006,3 hPa 0,0 l/m 0,0 km/h (0 Bft) N 0 0 min 0,0 UV-I 0 W/m -0,9 C -0,2 C 0,0 km/h (0 Bft)
01.01.2021 01:22 -0,2 C 0,0 C 95 % 1006,4 hPa 0,0 l/m 0,0 km/h (0 Bft) N 0 0 min 0,0 UV-I 0 W/m -0,9 C -0,2 C 0,0 km/h (0 Bft)
01.01.2021 01:23 -0,2 C 0,0 C 95 % 1006,3 hPa 0,0 l/m 0,0 km/h (0 Bft) N 0 0 min 0,0 UV-I 0 W/m -0,9 C -0,2 C 0,0 km/h (0 Bft)
01.01.2021 01:24 -0,1 C 0,0 C 95 % 1006,4 hPa 0,0 l/m 0,0 km/h (0 Bft) N 0 0 min 0,0 UV-I 0 W/m -0,8 C -0,1 C 0,0 km/h (0 Bft)
01.01.2021 01:25 -0,1 C 0,0 C 95 % 1006,3 hPa 0,0 l/m 0,0 km/h (0 Bft) N 0 0 min 0,0 UV-I 0 W/m -0,8 C -0,1 C 0,0 km/h (0 Bft)
01.01.2021 01:26 -0,2 C 0,0 C 95 % 1006,3 hPa 0,0 l/m 0,0 km/h (0 Bft) N 0 0 min 0,0 UV-I 0 W/m -0,9 C -0,2 C 0,0 km/h (0 Bft)
01.01.2021 01:27 -0,2 C 0,0 C 95 % 1006,3 hPa 0,0 l/m 0,0 km/h (0 Bft) N 0 0 min 0,0 UV-I 0 W/m -0,9 C -0,2 C 0,0 km/h (0 Bft)
01.01.2021 01:28 -0,2 C 0,0 C 95 % 1006,4 hPa 0,0 l/m 0,0 km/h (0 Bft) N 0 0 min 0,0 UV-I 0 W/m -0,9 C -0,2 C 0,0 km/h (0 Bft)
01.01.2021 01:29 -0,2 C 0,0 C 95 % 1006,3 hPa 0,0 l/m 0,0 km/h (0 Bft) N 0 0 min 0,0 UV-I 0 W/m -0,9 C -0,2 C 0,0 km/h (0 Bft)
01.01.2021 01:30 -0,2 C 0,0 C 95 % 1006,4 hPa 0,0 l/m 0,0 km/h (0 Bft) N 0 0 min 0,0 UV-I 0 W/m -0,9 C -0,2 C 0,0 km/h (0 Bft)
01.01.2021 01:31 -0,2 C 0,0 C 95 % 1006,3 hPa 0,0 l/m 0,0 km/h (0 Bft) N 0 0 min 0,0 UV-I 0 W/m -0,9 C -0,2 C 0,0 km/h (0 Bft)
01.01.2021 01:32 -0,2 C 0,0 C 95 % 1006,4 hPa 0,0 l/m 0,0 km/h (0 Bft) N 0 0 min 0,0 UV-I 0 W/m -0,9 C -0,2 C 0,0 km/h (0 Bft)
01.01.2021 01:33 -0,2 C 0,0 C 95 % 1006,3 hPa 0,0 l/m 0,0 km/h (0 Bft) N 0 0 min 0,0 UV-I 0 W/m -0,9 C -0,2 C 0,0 km/h (0 Bft)
01.01.2021 01:34 -0,2 C 0,0 C 95 % 1006,4 hPa 0,0 l/m 0,0 km/h (0 Bft) N 0 0 min 0,0 UV-I 0 W/m -0,9 C -0,2 C 0,0 km/h (0 Bft)
01.01.2021 01:35 -0,2 C 0,0 C 95 % 1006,3 hPa 0,0 l/m 0,0 km/h (0 Bft) N 0 0 min 0,0 UV-I 0 W/m -0,9 C -0,2 C 0,0 km/h (0 Bft)
01.01.2021 01:36 -0,2 C 0,0 C 95 % 1006,3 hPa 0,0 l/m 0,0 km/h (0 Bft) N 0 0 min 0,0 UV-I 0 W/m -0,9 C -0,2 C 0,0 km/h (0 Bft)
01.01.2021 01:37 -0,2 C 0,0 C 95 % 1006,4 hPa 0,0 l/m 0,0 km/h (0 Bft) N 0 0 min 0,0 UV-I 0 W/m -0,9 C -0,2 C 0,0 km/h (0 Bft)
01.01.2021 01:38 -0,2 C 0,0 C 95 % 1006,4 hPa 0,0 l/m 0,0 km/h (0 Bft) N 0 0 min 0,0 UV-I 0 W/m -0,9 C -0,2 C 0,0 km/h (0 Bft)
01.01.2021 01:39 -0,2 C 0,0 C 95 % 1006,4 hPa 0,0 l/m 0,0 km/h (0 Bft) N 0 0 min 0,0 UV-I 0 W/m -0,9 C -0,2 C 0,0 km/h (0 Bft)
01.01.2021 01:40 -0,2 C 0,0 C 95 % 1006,4 hPa 0,0 l/m 0,0 km/h (0 Bft) N 0 0 min 0,0 UV-I 0 W/m -0,9 C -0,2 C 0,0 km/h (0 Bft)
01.01.2021 01:41 -0,2 C 0,0 C 95 % 1006,4 hPa 0,0 l/m 0,0 km/h (0 Bft) N 0 0 min 0,0 UV-I 0 W/m -0,9 C -0,2 C 0,0 km/h (0 Bft)
01.01.2021 01:42 -0,2 C 0,0 C 95 % 1006,5 hPa 0,0 l/m 0,0 km/h (0 Bft) N 0 0 min 0,0 UV-I 0 W/m -0,9 C -0,2 C 0,0 km/h (0 Bft)
01.01.2021 01:43 -0,2 C 0,0 C 95 % 1006,3 hPa 0,0 l/m 0,0 km/h (0 Bft) N 0 0 min 0,0 UV-I 0 W/m -0,9 C -0,2 C 0,0 km/h (0 Bft)
01.01.2021 01:44 -0,2 C 0,0 C 95 % 1006,3 hPa 0,0 l/m 0,0 km/h (0 Bft) N 0 0 min 0,0 UV-I 0 W/m -0,9 C -0,2 C 0,0 km/h (0 Bft)
01.01.2021 01:45 -0,2 C 0,0 C 95 % 1006,4 hPa 0,0 l/m 0,0 km/h (0 Bft) N 0 0 min 0,0 UV-I 0 W/m -0,9 C -0,2 C 0,0 km/h (0 Bft)
01.01.2021 01:46 -0,2 C 0,0 C 95 % 1006,3 hPa 0,0 l/m 0,0 km/h (0 Bft) N 0 0 min 0,0 UV-I 0 W/m -0,9 C -0,2 C 0,0 km/h (0 Bft)
01.01.2021 01:47 -0,2 C 0,0 C 95 % 1006,4 hPa 0,0 l/m 0,0 km/h (0 Bft) N 0 0 min 0,0 UV-I 0 W/m -0,9 C -0,2 C 0,0 km/h (0 Bft)
01.01.2021 01:48 -0,2 C 0,0 C 95 % 1006,4 hPa 0,0 l/m 0,0 km/h (0 Bft) N 0 0 min 0,0 UV-I 0 W/m -0,9 C -0,2 C 0,0 km/h (0 Bft)
01.01.2021 01:49 -0,2 C 0,0 C 95 % 1006,3 hPa 0,0 l/m 0,0 km/h (0 Bft) N 0 0 min 0,0 UV-I 0 W/m -0,9 C -0,2 C 0,0 km/h (0 Bft)
01.01.2021 01:50 -0,2 C 0,0 C 95 % 1006,4 hPa 0,0 l/m 0,0 km/h (0 Bft) N 0 0 min 0,0 UV-I 0 W/m -0,9 C -0,2 C 0,0 km/h (0 Bft)
01.01.2021 01:51 -0,2 C 0,0 C 95 % 1006,4 hPa 0,0 l/m 0,0 km/h (0 Bft) N 0 0 min 0,0 UV-I 0 W/m -0,9 C -0,2 C 0,0 km/h (0 Bft)
01.01.2021 01:52 -0,2 C 0,0 C 95 % 1006,5 hPa 0,0 l/m 0,0 km/h (0 Bft) N 0 0 min 0,0 UV-I 0 W/m -0,9 C -0,2 C 0,0 km/h (0 Bft)
01.01.2021 01:53 -0,2 C 0,0 C 95 % 1006,4 hPa 0,0 l/m 0,0 km/h (0 Bft) N 0 0 min 0,0 UV-I 0 W/m -0,9 C -0,2 C 0,0 km/h (0 Bft)
01.01.2021 01:54 -0,2 C 0,0 C 95 % 1006,4 hPa 0,0 l/m 0,0 km/h (0 Bft) N 0 0 min 0,0 UV-I 0 W/m -0,9 C -0,2 C 0,0 km/h (0 Bft)
01.01.2021 01:55 -0,2 C 0,0 C 95 % 1006,5 hPa 0,0 l/m 0,0 km/h (0 Bft) N 0 0 min 0,0 UV-I 0 W/m -0,9 C -0,2 C 0,0 km/h (0 Bft)
01.01.2021 01:56 -0,2 C 0,0 C 95 % 1006,5 hPa 0,0 l/m 0,0 km/h (0 Bft) N 0 0 min 0,0 UV-I 0 W/m -0,9 C -0,2 C 0,0 km/h (0 Bft)
01.01.2021 01:57 -0,2 C 0,0 C 95 % 1006,4 hPa 0,0 l/m 0,0 km/h (0 Bft) N 0 0 min 0,0 UV-I 0 W/m -0,9 C -0,2 C 0,0 km/h (0 Bft)
01.01.2021 01:58 -0,2 C 0,0 C 95 % 1006,5 hPa 0,0 l/m 0,0 km/h (0 Bft) N 0 0 min 0,0 UV-I 0 W/m -0,9 C -0,2 C 0,0 km/h (0 Bft)
01.01.2021 01:59 -0,2 C 0,0 C 95 % 1006,4 hPa 0,0 l/m 0,0 km/h (0 Bft) N 0 0 min 0,0 UV-I 0 W/m -0,9 C -0,2 C 0,0 km/h (0 Bft)
01.01.2021 02:00 -0,1 C 0,0 C 95 % 1006,5 hPa 0,0 l/m 0,0 km/h (0 Bft) N 0 0 min 0,0 UV-I 0 W/m -0,8 C -0,1 C 0,0 km/h (0 Bft)
01.01.2021 02:01 -0,1 C 0,0 C 95 % 1006,5 hPa 0,0 l/m 0,0 km/h (0 Bft) N 0 0 min 0,0 UV-I 0 W/m -0,8 C -0,1 C 0,0 km/h (0 Bft)
01.01.2021 02:02 -0,2 C 0,0 C 95 % 1006,5 hPa 0,0 l/m 0,0 km/h (0 Bft) N 0 0 min 0,0 UV-I 0 W/m -0,9 C -0,2 C 0,0 km/h (0 Bft)
01.01.2021 02:03 -0,1 C 0,0 C 95 % 1006,5 hPa 0,0 l/m 0,0 km/h (0 Bft) N 0 0 min 0,0 UV-I 0 W/m -0,8 C -0,1 C 0,0 km/h (0 Bft)
01.01.2021 02:04 -0,1 C 0,0 C 95 % 1006,5 hPa 0,0 l/m 0,0 km/h (0 Bft) N 0 0 min 0,0 UV-I 0 W/m -0,8 C -0,1 C 0,0 km/h (0 Bft)
01.01.2021 02:05 -0,1 C 0,0 C 95 % 1006,5 hPa 0,0 l/m 0,0 km/h (0 Bft) N 0 0 min 0,0 UV-I 0 W/m -0,8 C -0,1 C 0,0 km/h (0 Bft)
01.01.2021 02:06 -0,1 C 0,0 C 95 % 1006,6 hPa 0,0 l/m 0,0 km/h (0 Bft) N 0 0 min 0,0 UV-I 0 W/m -0,8 C -0,1 C 0,0 km/h (0 Bft)
01.01.2021 02:07 -0,2 C 0,0 C 95 % 1006,5 hPa 0,0 l/m 0,0 km/h (0 Bft) N 0 0 min 0,0 UV-I 0 W/m -0,9 C -0,2 C 0,0 km/h (0 Bft)
01.01.2021 02:08 -0,1 C 0,0 C 95 % 1006,6 hPa 0,0 l/m 0,0 km/h (0 Bft) N 0 0 min 0,0 UV-I 0 W/m -0,8 C -0,1 C 0,0 km/h (0 Bft)
01.01.2021 02:09 -0,2 C 0,0 C 95 % 1006,5 hPa 0,0 l/m 0,0 km/h (0 Bft) N 0 0 min 0,0 UV-I 0 W/m -0,9 C -0,2 C 0,0 km/h (0 Bft)
01.01.2021 02:10 -0,1 C 0,0 C 95 % 1006,6 hPa 0,0 l/m 0,0 km/h (0 Bft) N 0 0 min 0,0 UV-I 0 W/m -0,8 C -0,1 C 0,0 km/h (0 Bft)
01.01.2021 02:11 -0,1 C 0,0 C 95 % 1006,5 hPa 0,0 l/m 0,0 km/h (0 Bft) N 0 0 min 0,0 UV-I 0 W/m -0,8 C -0,1 C 0,0 km/h (0 Bft)
01.01.2021 02:12 -0,1 C 0,0 C 95 % 1006,6 hPa 0,0 l/m 0,0 km/h (0 Bft) N 0 0 min 0,0 UV-I 0 W/m -0,8 C -0,1 C 0,0 km/h (0 Bft)
01.01.2021 02:13 -0,2 C 0,0 C 95 % 1006,6 hPa 0,0 l/m 0,0 km/h (0 Bft) N 0 0 min 0,0 UV-I 0 W/m -0,9 C -0,2 C 0,0 km/h (0 Bft)
01.01.2021 02:14 -0,1 C 0,0 C 95 % 1006,6 hPa 0,0 l/m 0,0 km/h (0 Bft) N 0 0 min 0,0 UV-I 0 W/m -0,8 C -0,1 C 0,0 km/h (0 Bft)
01.01.2021 02:15 -0,1 C 0,0 C 95 % 1006,7 hPa 0,0 l/m 0,0 km/h (0 Bft) N 0 0 min 0,0 UV-I 0 W/m -0,8 C -0,1 C 0,0 km/h (0 Bft)
01.01.2021 02:16 -0,1 C 0,0 C 95 % 1006,6 hPa 0,0 l/m 0,0 km/h (0 Bft) N 0 0 min 0,0 UV-I 0 W/m -0,8 C -0,1 C 0,0 km/h (0 Bft)
01.01.2021 02:17 -0,1 C 0,0 C 95 % 1006,6 hPa 0,0 l/m 0,0 km/h (0 Bft) N 0 0 min 0,0 UV-I 0 W/m -0,8 C -0,1 C 0,0 km/h (0 Bft)
01.01.2021 02:18 -0,1 C 0,0 C 95 % 1006,7 hPa 0,0 l/m 0,0 km/h (0 Bft) N 0 0 min 0,0 UV-I 0 W/m -0,8 C -0,1 C 0,0 km/h (0 Bft)
01.01.2021 02:19 -0,1 C 0,0 C 95 % 1006,7 hPa 0,0 l/m 0,0 km/h (0 Bft) N 0 0 min 0,0 UV-I 0 W/m -0,8 C -0,1 C 0,0 km/h (0 Bft)
01.01.2021 02:20 -0,1 C 0,0 C 95 % 1006,7 hPa 0,0 l/m 0,0 km/h (0 Bft) N 0 0 min 0,0 UV-I 0 W/m -0,8 C -0,1 C 0,0 km/h (0 Bft)
01.01.2021 02:21 -0,1 C 0,0 C 95 % 1006,7 hPa 0,0 l/m 0,0 km/h (0 Bft) N 0 0 min 0,0 UV-I 0 W/m -0,8 C -0,1 C 0,0 km/h (0 Bft)
01.01.2021 02:22 -0,1 C 0,0 C 95 % 1006,7 hPa 0,0 l/m 0,0 km/h (0 Bft) N 0 0 min 0,0 UV-I 0 W/m -0,8 C -0,1 C 0,0 km/h (0 Bft)
01.01.2021 02:23 -0,1 C 0,0 C 95 % 1006,7 hPa 0,0 l/m 0,0 km/h (0 Bft) N 0 0 min 0,0 UV-I 0 W/m -0,8 C -0,1 C 0,0 km/h (0 Bft)
01.01.2021 02:24 -0,1 C 0,0 C 95 % 1006,7 hPa 0,0 l/m 0,0 km/h (0 Bft) N 0 0 min 0,0 UV-I 0 W/m -0,8 C -0,1 C 0,0 km/h (0 Bft)
01.01.2021 02:25 -0,1 C 0,0 C 95 % 1006,7 hPa 0,0 l/m 0,0 km/h (0 Bft) N 0 0 min 0,0 UV-I 0 W/m -0,8 C -0,1 C 0,0 km/h (0 Bft)
01.01.2021 02:26 -0,1 C 0,0 C 95 % 1006,7 hPa 0,0 l/m 0,0 km/h (0 Bft) N 0 0 min 0,0 UV-I 0 W/m -0,8 C -0,1 C 0,0 km/h (0 Bft)
01.01.2021 02:27 -0,2 C 0,0 C 95 % 1006,7 hPa 0,0 l/m 0,0 km/h (0 Bft) N 0 0 min 0,0 UV-I 0 W/m -0,9 C -0,2 C 0,0 km/h (0 Bft)
01.01.2021 02:28 -0,1 C 0,0 C 95 % 1006,7 hPa 0,0 l/m 0,0 km/h (0 Bft) N 0 0 min 0,0 UV-I 0 W/m -0,8 C -0,1 C 0,0 km/h (0 Bft)
01.01.2021 02:29 -0,1 C 0,0 C 95 % 1006,7 hPa 0,0 l/m 0,0 km/h (0 Bft) N 0 0 min 0,0 UV-I 0 W/m -0,8 C -0,1 C 0,0 km/h (0 Bft)
01.01.2021 02:30 -0,1 C 0,0 C 95 % 1006,8 hPa 0,0 l/m 0,0 km/h (0 Bft) N 0 0 min 0,0 UV-I 0 W/m -0,8 C -0,1 C 0,0 km/h (0 Bft)
01.01.2021 02:31 -0,1 C 0,0 C 95 % 1006,7 hPa 0,0 l/m 0,0 km/h (0 Bft) N 0 0 min 0,0 UV-I 0 W/m -0,8 C -0,1 C 0,0 km/h (0 Bft)
01.01.2021 02:32 -0,1 C 0,0 C 95 % 1006,7 hPa 0,0 l/m 0,0 km/h (0 Bft) N 0 0 min 0,0 UV-I 0 W/m -0,8 C -0,1 C 0,0 km/h (0 Bft)
01.01.2021 02:33 -0,1 C 0,0 C 95 % 1006,8 hPa 0,0 l/m 0,0 km/h (0 Bft) N 0 0 min 0,0 UV-I 0 W/m -0,8 C -0,1 C 0,0 km/h (0 Bft)
01.01.2021 02:34 -0,1 C 0,0 C 95 % 1006,7 hPa 0,0 l/m 0,0 km/h (0 Bft) N 0 0 min 0,0 UV-I 0 W/m -0,8 C -0,1 C 0,0 km/h (0 Bft)
01.01.2021 02:35 -0,1 C 0,0 C 95 % 1006,8 hPa 0,0 l/m 0,0 km/h (0 Bft) N 0 0 min 0,0 UV-I 0 W/m -0,8 C -0,1 C 0,0 km/h (0 Bft)
01.01.2021 02:36 -0,1 C 0,0 C 95 % 1006,8 hPa 0,0 l/m 0,0 km/h (0 Bft) N 0 0 min 0,0 UV-I 0 W/m -0,8 C -0,1 C 0,0 km/h (0 Bft)
01.01.2021 02:37 -0,1 C 0,0 C 95 % 1006,7 hPa 0,0 l/m 0,0 km/h (0 Bft) N 0 0 min 0,0 UV-I 0 W/m -0,8 C -0,1 C 0,0 km/h (0 Bft)
01.01.2021 02:38 -0,1 C 0,0 C 95 % 1006,8 hPa 0,0 l/m 0,0 km/h (0 Bft) N 0 0 min 0,0 UV-I 0 W/m -0,8 C -0,1 C 0,0 km/h (0 Bft)
01.01.2021 02:39 -0,1 C 0,0 C 95 % 1006,8 hPa 0,0 l/m 0,0 km/h (0 Bft) N 0 0 min 0,0 UV-I 0 W/m -0,8 C -0,1 C 0,0 km/h (0 Bft)
01.01.2021 02:40 -0,1 C 0,0 C 95 % 1006,8 hPa 0,0 l/m 0,0 km/h (0 Bft) N 0 0 min 0,0 UV-I 0 W/m -0,8 C -0,1 C 0,0 km/h (0 Bft)
01.01.2021 02:41 -0,1 C 0,0 C 95 % 1006,8 hPa 0,0 l/m 0,0 km/h (0 Bft) N 0 0 min 0,0 UV-I 0 W/m -0,8 C -0,1 C 0,0 km/h (0 Bft)
01.01.2021 02:42 -0,1 C 0,0 C 95 % 1006,9 hPa 0,0 l/m 0,0 km/h (0 Bft) N 0 0 min 0,0 UV-I 0 W/m -0,8 C -0,1 C 0,0 km/h (0 Bft)
01.01.2021 02:43 -0,1 C 0,0 C 95 % 1006,7 hPa 0,0 l/m 0,0 km/h (0 Bft) N 0 0 min 0,0 UV-I 0 W/m -0,8 C -0,1 C 0,0 km/h (0 Bft)
01.01.2021 02:44 -0,1 C 0,0 C 95 % 1006,8 hPa 0,0 l/m 0,0 km/h (0 Bft) N 0 0 min 0,0 UV-I 0 W/m -0,8 C -0,1 C 0,0 km/h (0 Bft)
01.01.2021 02:45 -0,1 C 0,0 C 95 % 1006,8 hPa 0,0 l/m 0,0 km/h (0 Bft) N 0 0 min 0,0 UV-I 0 W/m -0,8 C -0,1 C 0,0 km/h (0 Bft)
01.01.2021 02:46 -0,1 C 0,0 C 95 % 1006,8 hPa 0,0 l/m 0,0 km/h (0 Bft) N 0 0 min 0,0 UV-I 0 W/m -0,8 C -0,1 C 0,0 km/h (0 Bft)
01.01.2021 02:47 -0,1 C 0,0 C 95 % 1006,8 hPa 0,0 l/m 0,0 km/h (0 Bft) N 0 0 min 0,0 UV-I 0 W/m -0,8 C -0,1 C 0,0 km/h (0 Bft)
01.01.2021 02:48 -0,1 C 0,0 C 95 % 1006,8 hPa 0,0 l/m 0,0 km/h (0 Bft) N 0 0 min 0,0 UV-I 0 W/m -0,8 C -0,1 C 0,0 km/h (0 Bft)
01.01.2021 02:49 -0,1 C 0,0 C 95 % 1006,9 hPa 0,0 l/m 0,0 km/h (0 Bft) N 0 0 min 0,0 UV-I 0 W/m -0,8 C -0,1 C 0,0 km/h (0 Bft)
01.01.2021 02:50 -0,1 C 0,0 C 95 % 1006,9 hPa 0,0 l/m 0,0 km/h (0 Bft) N 0 0 min 0,0 UV-I 0 W/m -0,8 C -0,1 C 0,0 km/h (0 Bft)
01.01.2021 02:51 -0,1 C 0,0 C 95 % 1006,9 hPa 0,0 l/m 0,0 km/h (0 Bft) N 0 0 min 0,0 UV-I 0 W/m -0,8 C -0,1 C 0,0 km/h (0 Bft)
01.01.2021 02:52 -0,1 C 0,0 C 95 % 1006,8 hPa 0,0 l/m 0,0 km/h (0 Bft) N 0 0 min 0,0 UV-I 0 W/m -0,8 C -0,1 C 0,0 km/h (0 Bft)
01.01.2021 02:53 -0,1 C 0,0 C 95 % 1006,9 hPa 0,0 l/m 0,0 km/h (0 Bft) N 0 0 min 0,0 UV-I 0 W/m -0,8 C -0,1 C 0,0 km/h (0 Bft)
01.01.2021 02:54 -0,1 C 0,0 C 95 % 1006,8 hPa 0,0 l/m 0,0 km/h (0 Bft) N 0 0 min 0,0 UV-I 0 W/m -0,8 C -0,1 C 0,0 km/h (0 Bft)
01.01.2021 02:55 -0,1 C 0,0 C 95 % 1006,9 hPa 0,0 l/m 0,0 km/h (0 Bft) N 0 0 min 0,0 UV-I 0 W/m -0,8 C -0,1 C 0,0 km/h (0 Bft)
01.01.2021 02:56 -0,1 C 0,0 C 95 % 1006,9 hPa 0,0 l/m 0,0 km/h (0 Bft) N 0 0 min 0,0 UV-I 0 W/m -0,8 C -0,1 C 0,0 km/h (0 Bft)
01.01.2021 02:57 -0,1 C 0,0 C 95 % 1006,8 hPa 0,0 l/m 0,0 km/h (0 Bft) N 0 0 min 0,0 UV-I 0 W/m -0,8 C -0,1 C 0,0 km/h (0 Bft)
01.01.2021 02:58 -0,1 C 0,0 C 95 % 1006,9 hPa 0,0 l/m 0,0 km/h (0 Bft) N 0 0 min 0,0 UV-I 0 W/m -0,8 C -0,1 C 0,0 km/h (0 Bft)
01.01.2021 02:59 -0,1 C 0,0 C 95 % 1006,9 hPa 0,0 l/m 0,0 km/h (0 Bft) N 0 0 min 0,0 UV-I 0 W/m -0,8 C -0,1 C 0,0 km/h (0 Bft)
01.01.2021 03:00 -0,1 C 0,0 C 95 % 1006,9 hPa 0,0 l/m 0,0 km/h (0 Bft) N 0 0 min 0,0 UV-I 0 W/m -0,8 C -0,1 C 0,0 km/h (0 Bft)
01.01.2021 03:01 -0,1 C 0,0 C 95 % 1006,9 hPa 0,0 l/m 0,0 km/h (0 Bft) N 0 0 min 0,0 UV-I 0 W/m -0,8 C -0,1 C 0,0 km/h (0 Bft)
01.01.2021 03:02 -0,1 C 0,0 C 95 % 1006,9 hPa 0,0 l/m 0,0 km/h (0 Bft) N 0 0 min 0,0 UV-I 0 W/m -0,8 C -0,1 C 0,0 km/h (0 Bft)
01.01.2021 03:03 -0,1 C 0,0 C 95 % 1006,9 hPa 0,0 l/m 0,0 km/h (0 Bft) N 0 0 min 0,0 UV-I 0 W/m -0,8 C -0,1 C 0,0 km/h (0 Bft)
01.01.2021 03:04 -0,1 C 0,0 C 95 % 1006,9 hPa 0,0 l/m 0,0 km/h (0 Bft) N 0 0 min 0,0 UV-I 0 W/m -0,8 C -0,1 C 0,0 km/h (0 Bft)
01.01.2021 03:05 -0,1 C 0,0 C 95 % 1006,9 hPa 0,0 l/m 0,0 km/h (0 Bft) N 0 0 min 0,0 UV-I 0 W/m -0,8 C -0,1 C 0,0 km/h (0 Bft)
01.01.2021 03:06 -0,1 C 0,0 C 95 % 1006,9 hPa 0,0 l/m 0,0 km/h (0 Bft) N 0 0 min 0,0 UV-I 0 W/m -0,8 C -0,1 C 0,0 km/h (0 Bft)
01.01.2021 03:07 -0,1 C 0,0 C 95 % 1006,9 hPa 0,0 l/m 0,0 km/h (0 Bft) N 0 0 min 0,0 UV-I 0 W/m -0,8 C -0,1 C 0,0 km/h (0 Bft)
01.01.2021 03:08 -0,1 C 0,0 C 95 % 1007,0 hPa 0,0 l/m 0,0 km/h (0 Bft) N 0 0 min 0,0 UV-I 0 W/m -0,8 C -0,1 C 0,0 km/h (0 Bft)
01.01.2021 03:09 -0,1 C 0,0 C 95 % 1007,0 hPa 0,0 l/m 0,0 km/h (0 Bft) N 0 0 min 0,0 UV-I 0 W/m -0,8 C -0,1 C 0,0 km/h (0 Bft)
01.01.2021 03:10 -0,1 C 0,0 C 95 % 1007,0 hPa 0,0 l/m 0,0 km/h (0 Bft) N 0 0 min 0,0 UV-I 0 W/m -0,8 C -0,1 C 0,0 km/h (0 Bft)
01.01.2021 03:11 -0,1 C 0,0 C 95 % 1006,9 hPa 0,0 l/m 0,0 km/h (0 Bft) N 0 0 min 0,0 UV-I 0 W/m -0,8 C -0,1 C 0,0 km/h (0 Bft)
01.01.2021 03:12 -0,1 C 0,0 C 95 % 1006,9 hPa 0,0 l/m 0,0 km/h (0 Bft) N 0 0 min 0,0 UV-I 0 W/m -0,8 C -0,1 C 0,0 km/h (0 Bft)
01.01.2021 03:13 -0,1 C 0,0 C 95 % 1007,0 hPa 0,0 l/m 0,0 km/h (0 Bft) N 0 0 min 0,0 UV-I 0 W/m -0,8 C -0,1 C 0,0 km/h (0 Bft)
01.01.2021 03:14 -0,1 C 0,0 C 95 % 1007,0 hPa 0,0 l/m 0,0 km/h (0 Bft) N 0 0 min 0,0 UV-I 0 W/m -0,8 C -0,1 C 0,0 km/h (0 Bft)
01.01.2021 03:15 -0,1 C 0,0 C 95 % 1007,0 hPa 0,0 l/m 0,0 km/h (0 Bft) N 0 0 min 0,0 UV-I 0 W/m -0,8 C -0,1 C 0,0 km/h (0 Bft)
01.01.2021 03:16 -0,1 C 0,0 C 95 % 1007,0 hPa 0,0 l/m 0,0 km/h (0 Bft) N 0 0 min 0,0 UV-I 0 W/m -0,8 C -0,1 C 0,0 km/h (0 Bft)
01.01.2021 03:17 -0,1 C 0,0 C 95 % 1007,0 hPa 0,0 l/m 0,0 km/h (0 Bft) N 0 0 min 0,0 UV-I 0 W/m -0,8 C -0,1 C 0,0 km/h (0 Bft)
01.01.2021 03:18 -0,1 C 0,0 C 95 % 1006,9 hPa 0,0 l/m 0,0 km/h (0 Bft) N 0 0 min 0,0 UV-I 0 W/m -0,8 C -0,1 C 0,0 km/h (0 Bft)
01.01.2021 03:19 -0,1 C 0,0 C 95 % 1007,0 hPa 0,0 l/m 0,0 km/h (0 Bft) N 0 0 min 0,0 UV-I 0 W/m -0,8 C -0,1 C 0,0 km/h (0 Bft)
01.01.2021 03:20 -0,1 C 0,0 C 95 % 1007,1 hPa 0,0 l/m 0,0 km/h (0 Bft) N 0 0 min 0,0 UV-I 0 W/m -0,8 C -0,1 C 0,0 km/h (0 Bft)
01.01.2021 03:21 -0,1 C 0,0 C 95 % 1007,0 hPa 0,0 l/m 0,0 km/h (0 Bft) N 0 0 min 0,0 UV-I 0 W/m -0,8 C -0,1 C 0,0 km/h (0 Bft)
01.01.2021 03:22 -0,1 C 0,0 C 95 % 1007,0 hPa 0,0 l/m 0,0 km/h (0 Bft) N 0 0 min 0,0 UV-I 0 W/m -0,8 C -0,1 C 0,0 km/h (0 Bft)
01.01.2021 03:23 -0,1 C 0,0 C 95 % 1007,1 hPa 0,0 l/m 0,0 km/h (0 Bft) N 0 0 min 0,0 UV-I 0 W/m -0,8 C -0,1 C 0,0 km/h (0 Bft)
01.01.2021 03:24 -0,1 C 0,0 C 95 % 1007,1 hPa 0,0 l/m 0,0 km/h (0 Bft) N 0 0 min 0,0 UV-I 0 W/m -0,8 C -0,1 C 0,0 km/h (0 Bft)
01.01.2021 03:25 -0,1 C 0,0 C 95 % 1007,1 hPa 0,0 l/m 0,0 km/h (0 Bft) N 0 0 min 0,0 UV-I 0 W/m -0,8 C -0,1 C 0,0 km/h (0 Bft)
01.01.2021 03:26 -0,1 C 0,0 C 95 % 1007,1 hPa 0,0 l/m 0,0 km/h (0 Bft) N 0 0 min 0,0 UV-I 0 W/m -0,8 C -0,1 C 0,0 km/h (0 Bft)
01.01.2021 03:27 -0,1 C 0,0 C 95 % 1007,2 hPa 0,0 l/m 0,0 km/h (0 Bft) N 0 0 min 0,0 UV-I 0 W/m -0,8 C -0,1 C 0,0 km/h (0 Bft)
01.01.2021 03:28 -0,1 C 0,0 C 95 % 1007,2 hPa 0,0 l/m 0,0 km/h (0 Bft) N 0 0 min 0,0 UV-I 0 W/m -0,8 C -0,1 C 0,0 km/h (0 Bft)
01.01.2021 03:29 -0,1 C 0,0 C 95 % 1007,1 hPa 0,0 l/m 0,0 km/h (0 Bft) N 0 0 min 0,0 UV-I 0 W/m -0,8 C -0,1 C 0,0 km/h (0 Bft)
01.01.2021 03:30 -0,1 C 0,0 C 95 % 1007,2 hPa 0,0 l/m 0,0 km/h (0 Bft) N 0 0 min 0,0 UV-I 0 W/m -0,8 C -0,1 C 0,0 km/h (0 Bft)
01.01.2021 03:31 -0,1 C 0,0 C 95 % 1007,3 hPa 0,0 l/m 0,0 km/h (0 Bft) N 0 0 min 0,0 UV-I 0 W/m -0,8 C -0,1 C 0,0 km/h (0 Bft)
01.01.2021 03:32 -0,1 C 0,0 C 95 % 1007,3 hPa 0,0 l/m 0,0 km/h (0 Bft) N 0 0 min 0,0 UV-I 0 W/m -0,8 C -0,1 C 0,0 km/h (0 Bft)
01.01.2021 03:33 -0,1 C 0,0 C 95 % 1007,3 hPa 0,0 l/m 0,0 km/h (0 Bft) N 0 0 min 0,0 UV-I 0 W/m -0,8 C -0,1 C 0,0 km/h (0 Bft)
01.01.2021 03:34 -0,1 C 0,0 C 95 % 1007,3 hPa 0,0 l/m 0,0 km/h (0 Bft) N 0 0 min 0,0 UV-I 0 W/m -0,8 C -0,1 C 0,0 km/h (0 Bft)
01.01.2021 03:35 -0,1 C 0,0 C 95 % 1007,3 hPa 0,0 l/m 0,0 km/h (0 Bft) N 0 0 min 0,0 UV-I 0 W/m -0,8 C -0,1 C 0,0 km/h (0 Bft)
01.01.2021 03:36 -0,1 C 0,0 C 95 % 1007,3 hPa 0,0 l/m 0,0 km/h (0 Bft) N 0 0 min 0,0 UV-I 0 W/m -0,8 C -0,1 C 0,0 km/h (0 Bft)
01.01.2021 03:37 -0,1 C 0,0 C 95 % 1007,3 hPa 0,0 l/m 0,0 km/h (0 Bft) N 0 0 min 0,0 UV-I 0 W/m -0,8 C -0,1 C 0,0 km/h (0 Bft)
01.01.2021 03:38 -0,1 C 0,0 C 95 % 1007,3 hPa 0,0 l/m 0,0 km/h (0 Bft) N 0 0 min 0,0 UV-I 0 W/m -0,8 C -0,1 C 0,0 km/h (0 Bft)
01.01.2021 03:39 -0,1 C 0,0 C 95 % 1007,4 hPa 0,0 l/m 0,0 km/h (0 Bft) N 0 0 min 0,0 UV-I 0 W/m -0,8 C -0,1 C 0,0 km/h (0 Bft)
01.01.2021 03:40 -0,1 C 0,0 C 95 % 1007,3 hPa 0,0 l/m 0,0 km/h (0 Bft) N 0 0 min 0,0 UV-I 0 W/m -0,8 C -0,1 C 0,0 km/h (0 Bft)
01.01.2021 03:41 -0,1 C 0,0 C 95 % 1007,5 hPa 0,0 l/m 0,0 km/h (0 Bft) N 0 0 min 0,0 UV-I 0 W/m -0,8 C -0,1 C 0,0 km/h (0 Bft)
01.01.2021 03:42 -0,1 C 0,0 C 95 % 1007,5 hPa 0,0 l/m 0,0 km/h (0 Bft) N 0 0 min 0,0 UV-I 0 W/m -0,8 C -0,1 C 0,0 km/h (0 Bft)
01.01.2021 03:43 -0,1 C 0,0 C 95 % 1007,4 hPa 0,0 l/m 0,0 km/h (0 Bft) N 0 0 min 0,0 UV-I 0 W/m -0,8 C -0,1 C 0,0 km/h (0 Bft)
01.01.2021 03:44 -0,1 C 0,0 C 95 % 1007,4 hPa 0,0 l/m 0,0 km/h (0 Bft) N 0 0 min 0,0 UV-I 0 W/m -0,8 C -0,1 C 0,0 km/h (0 Bft)
01.01.2021 03:45 -0,1 C 0,0 C 95 % 1007,4 hPa 0,0 l/m 0,0 km/h (0 Bft) N 0 0 min 0,0 UV-I 0 W/m -0,8 C -0,1 C 0,0 km/h (0 Bft)
01.01.2021 03:46 -0,1 C 0,0 C 95 % 1007,4 hPa 0,0 l/m 0,0 km/h (0 Bft) N 0 0 min 0,0 UV-I 0 W/m -0,8 C -0,1 C 0,0 km/h (0 Bft)
01.01.2021 03:47 -0,1 C 0,0 C 95 % 1007,4 hPa 0,0 l/m 0,0 km/h (0 Bft) N 0 0 min 0,0 UV-I 0 W/m -0,8 C -0,1 C 0,0 km/h (0 Bft)
01.01.2021 03:48 -0,1 C 0,0 C 95 % 1007,4 hPa 0,0 l/m 0,0 km/h (0 Bft) N 0 0 min 0,0 UV-I 0 W/m -0,8 C -0,1 C 0,0 km/h (0 Bft)
01.01.2021 03:49 -0,1 C 0,0 C 95 % 1007,5 hPa 0,0 l/m 0,0 km/h (0 Bft) N 0 0 min 0,0 UV-I 0 W/m -0,8 C -0,1 C 0,0 km/h (0 Bft)
01.01.2021 03:50 -0,1 C 0,0 C 95 % 1007,5 hPa 0,0 l/m 0,0 km/h (0 Bft) N 0 0 min 0,0 UV-I 0 W/m -0,8 C -0,1 C 0,0 km/h (0 Bft)
01.01.2021 03:51 -0,1 C 0,0 C 95 % 1007,5 hPa 0,0 l/m 0,0 km/h (0 Bft) N 0 0 min 0,0 UV-I 0 W/m -0,8 C -0,1 C 0,0 km/h (0 Bft)
01.01.2021 03:52 -0,1 C 0,0 C 95 % 1007,5 hPa 0,0 l/m 0,0 km/h (0 Bft) N 0 0 min 0,0 UV-I 0 W/m -0,8 C -0,1 C 0,0 km/h (0 Bft)
01.01.2021 03:53 -0,1 C 0,0 C 95 % 1007,5 hPa 0,0 l/m 0,0 km/h (0 Bft) N 0 0 min 0,0 UV-I 0 W/m -0,8 C -0,1 C 0,0 km/h (0 Bft)
01.01.2021 03:54 -0,1 C 0,0 C 95 % 1007,6 hPa 0,0 l/m 0,0 km/h (0 Bft) N 0 0 min 0,0 UV-I 0 W/m -0,8 C -0,1 C 0,0 km/h (0 Bft)
01.01.2021 03:55 -0,1 C 0,0 C 95 % 1007,5 hPa 0,0 l/m 0,0 km/h (0 Bft) N 0 0 min 0,0 UV-I 0 W/m -0,8 C -0,1 C 0,0 km/h (0 Bft)
01.01.2021 03:56 -0,1 C 0,0 C 95 % 1007,4 hPa 0,0 l/m 0,0 km/h (0 Bft) N 0 0 min 0,0 UV-I 0 W/m -0,8 C -0,1 C 0,0 km/h (0 Bft)
01.01.2021 03:57 -0,1 C 0,0 C 95 % 1007,5 hPa 0,0 l/m 0,0 km/h (0 Bft) N 0 0 min 0,0 UV-I 0 W/m -0,8 C -0,1 C 0,0 km/h (0 Bft)
01.01.2021 03:58 -0,1 C 0,0 C 95 % 1007,5 hPa 0,0 l/m 0,0 km/h (0 Bft) N 0 0 min 0,0 UV-I 0 W/m -0,8 C -0,1 C 0,0 km/h (0 Bft)
01.01.2021 03:59 -0,1 C 0,0 C 95 % 1007,5 hPa 0,0 l/m 0,0 km/h (0 Bft) N 0 0 min 0,0 UV-I 0 W/m -0,8 C -0,1 C 0,0 km/h (0 Bft)
01.01.2021 04:00 -0,1 C 0,0 C 95 % 1007,5 hPa 0,0 l/m 0,0 km/h (0 Bft) N 0 0 min 0,0 UV-I 0 W/m -0,8 C -0,1 C 0,0 km/h (0 Bft)
01.01.2021 04:01 -0,1 C 0,0 C 95 % 1007,5 hPa 0,0 l/m 0,0 km/h (0 Bft) N 0 0 min 0,0 UV-I 0 W/m -0,8 C -0,1 C 0,0 km/h (0 Bft)
01.01.2021 04:02 -0,1 C 0,0 C 95 % 1007,4 hPa 0,0 l/m 0,0 km/h (0 Bft) N 0 0 min 0,0 UV-I 0 W/m -0,8 C -0,1 C 0,0 km/h (0 Bft)
01.01.2021 04:03 -0,1 C 0,0 C 95 % 1007,5 hPa 0,0 l/m 0,0 km/h (0 Bft) N 0 0 min 0,0 UV-I 0 W/m -0,8 C -0,1 C 0,0 km/h (0 Bft)
01.01.2021 04:04 -0,1 C 0,0 C 95 % 1007,5 hPa 0,0 l/m 0,0 km/h (0 Bft) N 0 0 min 0,0 UV-I 0 W/m -0,8 C -0,1 C 0,0 km/h (0 Bft)
01.01.2021 04:05 -0,1 C 0,0 C 95 % 1007,5 hPa 0,0 l/m 0,0 km/h (0 Bft) N 0 0 min 0,0 UV-I 0 W/m -0,8 C -0,1 C 0,0 km/h (0 Bft)
01.01.2021 04:06 -0,1 C 0,0 C 95 % 1007,6 hPa 0,0 l/m 0,0 km/h (0 Bft) N 0 0 min 0,0 UV-I 0 W/m -0,8 C -0,1 C 0,0 km/h (0 Bft)
01.01.2021 04:07 -0,1 C 0,0 C 95 % 1007,5 hPa 0,0 l/m 0,0 km/h (0 Bft) N 0 0 min 0,0 UV-I 0 W/m -0,8 C -0,1 C 0,0 km/h (0 Bft)
01.01.2021 04:08 -0,1 C 0,0 C 95 % 1007,5 hPa 0,0 l/m 0,0 km/h (0 Bft) N 0 0 min 0,0 UV-I 0 W/m -0,8 C -0,1 C 0,0 km/h (0 Bft)
01.01.2021 04:09 -0,1 C 0,0 C 95 % 1007,5 hPa 0,0 l/m 0,0 km/h (0 Bft) N 0 0 min 0,0 UV-I 0 W/m -0,8 C -0,1 C 0,0 km/h (0 Bft)
01.01.2021 04:10 -0,1 C 0,0 C 95 % 1007,5 hPa 0,0 l/m 0,0 km/h (0 Bft) N 0 0 min 0,0 UV-I 0 W/m -0,8 C -0,1 C 0,0 km/h (0 Bft)
01.01.2021 04:11 -0,1 C 0,0 C 95 % 1007,6 hPa 0,0 l/m 0,0 km/h (0 Bft) N 0 0 min 0,0 UV-I 0 W/m -0,8 C -0,1 C 0,0 km/h (0 Bft)
01.01.2021 04:12 -0,1 C 0,0 C 95 % 1007,6 hPa 0,0 l/m 0,0 km/h (0 Bft) N 0 0 min 0,0 UV-I 0 W/m -0,8 C -0,1 C 0,0 km/h (0 Bft)
01.01.2021 04:13 -0,1 C 0,0 C 95 % 1007,5 hPa 0,0 l/m 0,0 km/h (0 Bft) N 0 0 min 0,0 UV-I 0 W/m -0,8 C -0,1 C 0,0 km/h (0 Bft)
01.01.2021 04:14 -0,1 C 0,0 C 95 % 1007,5 hPa 0,0 l/m 0,0 km/h (0 Bft) N 0 0 min 0,0 UV-I 0 W/m -0,8 C -0,1 C 0,0 km/h (0 Bft)
01.01.2021 04:15 -0,1 C 0,0 C 95 % 1007,5 hPa 0,0 l/m 0,0 km/h (0 Bft) N 0 0 min 0,0 UV-I 0 W/m -0,8 C -0,1 C 0,0 km/h (0 Bft)
01.01.2021 04:16 -0,1 C 0,0 C 95 % 1007,5 hPa 0,0 l/m 0,0 km/h (0 Bft) N 0 0 min 0,0 UV-I 0 W/m -0,8 C -0,1 C 0,0 km/h (0 Bft)
01.01.2021 04:17 -0,1 C 0,0 C 95 % 1007,5 hPa 0,0 l/m 0,0 km/h (0 Bft) N 0 0 min 0,0 UV-I 0 W/m -0,8 C -0,1 C 0,0 km/h (0 Bft)
01.01.2021 04:18 -0,1 C 0,0 C 95 % 1007,5 hPa 0,0 l/m 0,0 km/h (0 Bft) N 0 0 min 0,0 UV-I 0 W/m -0,8 C -0,1 C 0,0 km/h (0 Bft)
01.01.2021 04:19 -0,1 C 0,0 C 95 % 1007,5 hPa 0,0 l/m 0,0 km/h (0 Bft) N 0 0 min 0,0 UV-I 0 W/m -0,8 C -0,1 C 0,0 km/h (0 Bft)
01.01.2021 04:20 -0,1 C 0,0 C 95 % 1007,5 hPa 0,0 l/m 0,0 km/h (0 Bft) N 0 0 min 0,0 UV-I 0 W/m -0,8 C -0,1 C 0,0 km/h (0 Bft)
01.01.2021 04:21 -0,1 C 0,0 C 95 % 1007,5 hPa 0,0 l/m 0,0 km/h (0 Bft) N 0 0 min 0,0 UV-I 0 W/m -0,8 C -0,1 C 0,0 km/h (0 Bft)
01.01.2021 04:22 -0,1 C 0,0 C 95 % 1007,6 hPa 0,0 l/m 0,0 km/h (0 Bft) N 0 0 min 0,0 UV-I 0 W/m -0,8 C -0,1 C 0,0 km/h (0 Bft)
01.01.2021 04:23 -0,1 C 0,0 C 95 % 1007,6 hPa 0,0 l/m 0,0 km/h (0 Bft) N 0 0 min 0,0 UV-I 0 W/m -0,8 C -0,1 C 0,0 km/h (0 Bft)
01.01.2021 04:24 -0,1 C 0,0 C 95 % 1007,5 hPa 0,0 l/m 0,0 km/h (0 Bft) N 0 0 min 0,0 UV-I 0 W/m -0,8 C -0,1 C 0,0 km/h (0 Bft)
01.01.2021 04:25 -0,1 C 0,0 C 95 % 1007,5 hPa 0,0 l/m 0,0 km/h (0 Bft) N 0 0 min 0,0 UV-I 0 W/m -0,8 C -0,1 C 0,0 km/h (0 Bft)
01.01.2021 04:26 -0,1 C 0,0 C 95 % 1007,5 hPa 0,0 l/m 0,0 km/h (0 Bft) N 0 0 min 0,0 UV-I 0 W/m -0,8 C -0,1 C 0,0 km/h (0 Bft)
01.01.2021 04:27 0,0 C 0,0 C 95 % 1007,6 hPa 0,0 l/m 0,0 km/h (0 Bft) N 0 0 min 0,0 UV-I 0 W/m -0,7 C 0,0 C 0,0 km/h (0 Bft)
01.01.2021 04:28 -0,1 C 0,0 C 95 % 1007,5 hPa 0,0 l/m 0,0 km/h (0 Bft) N 0 0 min 0,0 UV-I 0 W/m -0,8 C -0,1 C 0,0 km/h (0 Bft)
01.01.2021 04:29 0,0 C 0,0 C 95 % 1007,5 hPa 0,0 l/m 0,0 km/h (0 Bft) N 0 0 min 0,0 UV-I 0 W/m -0,7 C 0,0 C 0,0 km/h (0 Bft)
01.01.2021 04:30 -0,1 C 0,0 C 95 % 1007,5 hPa 0,0 l/m 0,0 km/h (0 Bft) N 0 0 min 0,0 UV-I 0 W/m -0,8 C -0,1 C 0,0 km/h (0 Bft)
01.01.2021 04:31 -0,1 C 0,0 C 95 % 1007,6 hPa 0,0 l/m 0,0 km/h (0 Bft) N 0 0 min 0,0 UV-I 0 W/m -0,8 C -0,1 C 0,0 km/h (0 Bft)
01.01.2021 04:32 0,0 C 0,0 C 95 % 1007,5 hPa 0,0 l/m 0,0 km/h (0 Bft) N 0 0 min 0,0 UV-I 0 W/m -0,7 C 0,0 C 0,0 km/h (0 Bft)
01.01.2021 04:33 -0,1 C 0,0 C 95 % 1007,6 hPa 0,0 l/m 0,0 km/h (0 Bft) N 0 0 min 0,0 UV-I 0 W/m -0,8 C -0,1 C 0,0 km/h (0 Bft)
01.01.2021 04:34 -0,1 C 0,0 C 95 % 1007,5 hPa 0,0 l/m 0,0 km/h (0 Bft) N 0 0 min 0,0 UV-I 0 W/m -0,8 C -0,1 C 0,0 km/h (0 Bft)
01.01.2021 04:35 -0,1 C 0,0 C 95 % 1007,6 hPa 0,0 l/m 0,0 km/h (0 Bft) N 0 0 min 0,0 UV-I 0 W/m -0,8 C -0,1 C 0,0 km/h (0 Bft)
01.01.2021 04:36 0,0 C 0,0 C 95 % 1007,5 hPa 0,0 l/m 0,0 km/h (0 Bft) N 0 0 min 0,0 UV-I 0 W/m -0,7 C 0,0 C 0,0 km/h (0 Bft)
01.01.2021 04:37 0,0 C 0,0 C 95 % 1007,6 hPa 0,0 l/m 0,0 km/h (0 Bft) N 0 0 min 0,0 UV-I 0 W/m -0,7 C 0,0 C 0,0 km/h (0 Bft)
01.01.2021 04:38 0,0 C 0,0 C 95 % 1007,6 hPa 0,0 l/m 0,0 km/h (0 Bft) N 0 0 min 0,0 UV-I 0 W/m -0,7 C 0,0 C 0,0 km/h (0 Bft)
01.01.2021 04:39 0,0 C 0,0 C 95 % 1007,6 hPa 0,0 l/m 0,0 km/h (0 Bft) N 0 0 min 0,0 UV-I 0 W/m -0,7 C 0,0 C 0,0 km/h (0 Bft)
01.01.2021 04:40 0,0 C 0,0 C 95 % 1007,6 hPa 0,0 l/m 0,0 km/h (0 Bft) N 0 0 min 0,0 UV-I 0 W/m -0,7 C 0,0 C 0,0 km/h (0 Bft)
01.01.2021 04:41 0,0 C 0,0 C 95 % 1007,6 hPa 0,0 l/m 0,0 km/h (0 Bft) N 0 0 min 0,0 UV-I 0 W/m -0,7 C 0,0 C 0,0 km/h (0 Bft)
01.01.2021 04:42 0,0 C 0,0 C 95 % 1007,6 hPa 0,0 l/m 0,0 km/h (0 Bft) N 0 0 min 0,0 UV-I 0 W/m -0,7 C 0,0 C 0,0 km/h (0 Bft)
01.01.2021 04:43 0,0 C 0,0 C 95 % 1007,6 hPa 0,0 l/m 0,0 km/h (0 Bft) N 0 0 min 0,0 UV-I 0 W/m -0,7 C 0,0 C 0,0 km/h (0 Bft)
01.01.2021 04:44 0,0 C 0,0 C 95 % 1007,5 hPa 0,0 l/m 0,0 km/h (0 Bft) N 0 0 min 0,0 UV-I 0 W/m -0,7 C 0,0 C 0,0 km/h (0 Bft)
01.01.2021 04:45 0,0 C 0,0 C 95 % 1007,7 hPa 0,0 l/m 0,0 km/h (0 Bft) N 0 0 min 0,0 UV-I 0 W/m -0,7 C 0,0 C 0,0 km/h (0 Bft)
01.01.2021 04:46 0,0 C 0,0 C 95 % 1007,6 hPa 0,0 l/m 0,0 km/h (0 Bft) N 0 0 min 0,0 UV-I 0 W/m -0,7 C 0,0 C 0,0 km/h (0 Bft)
01.01.2021 04:47 0,0 C 0,0 C 95 % 1007,7 hPa 0,0 l/m 0,0 km/h (0 Bft) N 0 0 min 0,0 UV-I 0 W/m -0,7 C 0,0 C 0,0 km/h (0 Bft)
01.01.2021 04:48 0,0 C 0,0 C 95 % 1007,6 hPa 0,0 l/m 0,0 km/h (0 Bft) N 0 0 min 0,0 UV-I 0 W/m -0,7 C 0,0 C 0,0 km/h (0 Bft)
01.01.2021 04:49 0,0 C 0,0 C 95 % 1007,6 hPa 0,0 l/m 0,0 km/h (0 Bft) N 0 0 min 0,0 UV-I 0 W/m -0,7 C 0,0 C 0,0 km/h (0 Bft)
01.01.2021 04:50 0,0 C 0,0 C 95 % 1007,7 hPa 0,0 l/m 0,0 km/h (0 Bft) N 0 0 min 0,0 UV-I 0 W/m -0,7 C 0,0 C 0,0 km/h (0 Bft)
01.01.2021 04:51 0,0 C 0,0 C 95 % 1007,7 hPa 0,0 l/m 0,0 km/h (0 Bft) N 0 0 min 0,0 UV-I 0 W/m -0,7 C 0,0 C 0,0 km/h (0 Bft)
01.01.2021 04:52 0,0 C 0,0 C 95 % 1007,7 hPa 0,0 l/m 0,0 km/h (0 Bft) N 0 0 min 0,0 UV-I 0 W/m -0,7 C 0,0 C 0,0 km/h (0 Bft)
01.01.2021 04:53 0,0 C 0,0 C 95 % 1007,7 hPa 0,0 l/m 0,0 km/h (0 Bft) N 0 0 min 0,0 UV-I 0 W/m -0,7 C 0,0 C 0,0 km/h (0 Bft)
01.01.2021 04:54 0,0 C 0,0 C 95 % 1007,6 hPa 0,0 l/m 0,0 km/h (0 Bft) N 0 0 min 0,0 UV-I 0 W/m -0,7 C 0,0 C 0,0 km/h (0 Bft)
01.01.2021 04:55 0,1 C 0,0 C 95 % 1007,6 hPa 0,0 l/m 0,0 km/h (0 Bft) N 0 0 min 0,0 UV-I 0 W/m -0,6 C 0,1 C 0,0 km/h (0 Bft)
01.01.2021 04:56 0,0 C 0,0 C 95 % 1007,7 hPa 0,0 l/m 0,0 km/h (0 Bft) N 0 0 min 0,0 UV-I 0 W/m -0,7 C 0,0 C 0,0 km/h (0 Bft)
01.01.2021 04:57 0,1 C 0,0 C 95 % 1007,8 hPa 0,0 l/m 0,0 km/h (0 Bft) N 0 0 min 0,0 UV-I 0 W/m -0,6 C 0,1 C 0,0 km/h (0 Bft)
01.01.2021 04:58 0,0 C 0,0 C 95 % 1007,6 hPa 0,0 l/m 0,0 km/h (0 Bft) N 0 0 min 0,0 UV-I 0 W/m -0,7 C 0,0 C 0,0 km/h (0 Bft)
01.01.2021 04:59 0,1 C 0,0 C 95 % 1007,7 hPa 0,0 l/m 0,0 km/h (0 Bft) N 0 0 min 0,0 UV-I 0 W/m -0,6 C 0,1 C 0,0 km/h (0 Bft)
01.01.2021 05:00 0,0 C 0,0 C 95 % 1007,7 hPa 0,0 l/m 0,0 km/h (0 Bft) N 0 0 min 0,0 UV-I 0 W/m -0,7 C 0,0 C 0,0 km/h (0 Bft)
01.01.2021 05:01 0,0 C 0,0 C 95 % 1007,7 hPa 0,0 l/m 0,0 km/h (0 Bft) N 0 0 min 0,0 UV-I 0 W/m -0,7 C 0,0 C 0,0 km/h (0 Bft)
01.01.2021 05:02 0,0 C 0,0 C 95 % 1007,7 hPa 0,0 l/m 0,0 km/h (0 Bft) N 0 0 min 0,0 UV-I 0 W/m -0,7 C 0,0 C 0,0 km/h (0 Bft)
01.01.2021 05:03 0,0 C 0,0 C 95 % 1007,8 hPa 0,0 l/m 0,0 km/h (0 Bft) N 0 0 min 0,0 UV-I 0 W/m -0,7 C 0,0 C 0,0 km/h (0 Bft)
01.01.2021 05:04 0,0 C 0,0 C 95 % 1007,6 hPa 0,0 l/m 0,0 km/h (0 Bft) N 0 0 min 0,0 UV-I 0 W/m -0,7 C 0,0 C 0,0 km/h (0 Bft)
01.01.2021 05:05 0,0 C 0,0 C 95 % 1007,7 hPa 0,0 l/m 0,0 km/h (0 Bft) N 0 0 min 0,0 UV-I 0 W/m -0,7 C 0,0 C 0,0 km/h (0 Bft)
01.01.2021 05:06 -0,1 C 0,0 C 95 % 1007,8 hPa 0,0 l/m 0,0 km/h (0 Bft) N 0 0 min 0,0 UV-I 0 W/m -0,8 C -0,1 C 0,0 km/h (0 Bft)
01.01.2021 05:07 -0,1 C 0,0 C 95 % 1007,7 hPa 0,0 l/m 0,0 km/h (0 Bft) N 0 0 min 0,0 UV-I 0 W/m -0,8 C -0,1 C 0,0 km/h (0 Bft)
01.01.2021 05:08 -0,1 C 0,0 C 95 % 1007,7 hPa 0,0 l/m 0,0 km/h (0 Bft) N 0 0 min 0,0 UV-I 0 W/m -0,8 C -0,1 C 0,0 km/h (0 Bft)
01.01.2021 05:09 -0,1 C 0,0 C 95 % 1007,7 hPa 0,0 l/m 0,0 km/h (0 Bft) N 0 0 min 0,0 UV-I 0 W/m -0,8 C -0,1 C 0,0 km/h (0 Bft)
01.01.2021 05:10 -0,1 C 0,0 C 95 % 1007,7 hPa 0,0 l/m 0,0 km/h (0 Bft) N 0 0 min 0,0 UV-I 0 W/m -0,8 C -0,1 C 0,0 km/h (0 Bft)
01.01.2021 05:11 -0,1 C 0,0 C 95 % 1007,8 hPa 0,0 l/m 0,0 km/h (0 Bft) N 0 0 min 0,0 UV-I 0 W/m -0,8 C -0,1 C 0,0 km/h (0 Bft)
01.01.2021 05:12 -0,1 C 0,0 C 95 % 1007,7 hPa 0,0 l/m 0,0 km/h (0 Bft) N 0 0 min 0,0 UV-I 0 W/m -0,8 C -0,1 C 0,0 km/h (0 Bft)
01.01.2021 05:13 -0,1 C 0,0 C 95 % 1007,7 hPa 0,0 l/m 0,0 km/h (0 Bft) N 0 0 min 0,0 UV-I 0 W/m -0,8 C -0,1 C 0,0 km/h (0 Bft)
01.01.2021 05:14 -0,1 C 0,0 C 95 % 1007,8 hPa 0,0 l/m 0,0 km/h (0 Bft) N 0 0 min 0,0 UV-I 0 W/m -0,8 C -0,1 C 0,0 km/h (0 Bft)
01.01.2021 05:15 -0,1 C 0,0 C 95 % 1007,8 hPa 0,0 l/m 0,0 km/h (0 Bft) N 0 0 min 0,0 UV-I 0 W/m -0,8 C -0,1 C 0,0 km/h (0 Bft)
01.01.2021 05:16 -0,1 C 0,0 C 95 % 1007,7 hPa 0,0 l/m 0,0 km/h (0 Bft) N 0 0 min 0,0 UV-I 0 W/m -0,8 C -0,1 C 0,0 km/h (0 Bft)
01.01.2021 05:17 -0,2 C 0,0 C 95 % 1007,8 hPa 0,0 l/m 0,0 km/h (0 Bft) NW 315 0 min 0,0 UV-I 0 W/m -0,9 C -0,2 C 1,6 km/h (1 Bft)
01.01.2021 05:18 -0,2 C 0,0 C 95 % 1007,8 hPa 0,0 l/m 3,2 km/h (1 Bft) N-NW 337 0 min 0,0 UV-I 0 W/m -0,9 C -0,2 C 4,8 km/h (1 Bft)
01.01.2021 05:19 -0,2 C 0,0 C 95 % 1007,8 hPa 0,0 l/m 1,6 km/h (1 Bft) NW 315 0 min 0,0 UV-I 0 W/m -0,9 C -0,2 C 4,8 km/h (1 Bft)
01.01.2021 05:20 -0,2 C 0,0 C 95 % 1007,8 hPa 0,0 l/m 1,6 km/h (1 Bft) N-NW 337 0 min 0,0 UV-I 0 W/m -0,9 C -0,2 C 4,8 km/h (1 Bft)
01.01.2021 05:21 -0,2 C 0,0 C 95 % 1007,8 hPa 0,0 l/m 3,2 km/h (1 Bft) N-NW 337 0 min 0,0 UV-I 0 W/m -0,9 C -0,2 C 6,4 km/h (2 Bft)
01.01.2021 05:22 -0,2 C 0,0 C 95 % 1007,8 hPa 0,0 l/m 1,6 km/h (1 Bft) N-NW 337 0 min 0,0 UV-I 0 W/m -0,9 C -0,2 C 6,4 km/h (2 Bft)
01.01.2021 05:23 -0,2 C 0,0 C 95 % 1007,8 hPa 0,0 l/m 1,6 km/h (1 Bft) N-NW 337 0 min 0,0 UV-I 0 W/m -0,9 C -0,2 C 3,2 km/h (1 Bft)
01.01.2021 05:24 -0,2 C 0,0 C 95 % 1007,8 hPa 0,0 l/m 3,2 km/h (1 Bft) N-NW 337 0 min 0,0 UV-I 0 W/m -0,9 C -0,2 C 4,8 km/h (1 Bft)
01.01.2021 05:25 -0,2 C 0,0 C 95 % 1007,8 hPa 0,0 l/m 3,2 km/h (1 Bft) N-NW 337 0 min 0,0 UV-I 0 W/m -0,9 C -0,2 C 4,8 km/h (1 Bft)
01.01.2021 05:26 -0,2 C 0,0 C 95 % 1007,8 hPa 0,0 l/m 3,2 km/h (1 Bft) N-NW 337 0 min 0,0 UV-I 0 W/m -0,9 C -0,2 C 4,8 km/h (1 Bft)
01.01.2021 05:27 -0,2 C 0,0 C 95 % 1007,8 hPa 0,0 l/m 1,6 km/h (1 Bft) N-NW 337 0 min 0,0 UV-I 0 W/m -0,9 C -0,2 C 4,8 km/h (1 Bft)
01.01.2021 05:28 -0,2 C 0,0 C 95 % 1007,8 hPa 0,0 l/m 0,0 km/h (0 Bft) N-NW 337 0 min 0,0 UV-I 0 W/m -0,9 C -0,2 C 1,6 km/h (1 Bft)
01.01.2021 05:29 -0,3 C 0,0 C 95 % 1007,8 hPa 0,0 l/m 1,6 km/h (1 Bft) N-NW 337 0 min 0,0 UV-I 0 W/m -1,0 C -0,3 C 3,2 km/h (1 Bft)
01.01.2021 05:30 -0,3 C 0,0 C 95 % 1007,8 hPa 0,0 l/m 0,0 km/h (0 Bft) N-NW 337 0 min 0,0 UV-I 0 W/m -1,0 C -0,3 C 1,6 km/h (1 Bft)
01.01.2021 05:31 -0,3 C 0,0 C 95 % 1007,9 hPa 0,0 l/m 1,6 km/h (1 Bft) N-NW 337 0 min 0,0 UV-I 0 W/m -1,0 C -0,3 C 4,8 km/h (1 Bft)
01.01.2021 05:32 -0,3 C 0,0 C 95 % 1007,8 hPa 0,0 l/m 1,6 km/h (1 Bft) N-NW 337 0 min 0,0 UV-I 0 W/m -1,0 C -0,3 C 3,2 km/h (1 Bft)
01.01.2021 05:33 -0,3 C 0,0 C 95 % 1007,8 hPa 0,0 l/m 1,6 km/h (1 Bft) N-NW 337 0 min 0,0 UV-I 0 W/m -1,0 C -0,3 C 1,6 km/h (1 Bft)
01.01.2021 05:34 -0,3 C 0,0 C 95 % 1007,9 hPa 0,0 l/m 1,6 km/h (1 Bft) N-NW 337 0 min 0,0 UV-I 0 W/m -1,0 C -0,3 C 1,6 km/h (1 Bft)
01.01.2021 05:35 -0,3 C 0,0 C 95 % 1007,9 hPa 0,0 l/m 1,6 km/h (1 Bft) N-NW 337 0 min 0,0 UV-I 0 W/m -1,0 C -0,3 C 3,2 km/h (1 Bft)
01.01.2021 05:36 -0,3 C 0,0 C 95 % 1007,8 hPa 0,0 l/m 1,6 km/h (1 Bft) N-NW 337 0 min 0,0 UV-I 0 W/m -1,0 C -0,3 C 3,2 km/h (1 Bft)
01.01.2021 05:37 -0,3 C 0,0 C 95 % 1007,9 hPa 0,0 l/m 3,2 km/h (1 Bft) N-NW 337 0 min 0,0 UV-I 0 W/m -1,0 C -0,3 C 4,8 km/h (1 Bft)
01.01.2021 05:38 -0,3 C 0,0 C 95 % 1007,9 hPa 0,0 l/m 1,6 km/h (1 Bft) N-NW 337 0 min 0,0 UV-I 0 W/m -1,0 C -0,3 C 4,8 km/h (1 Bft)
01.01.2021 05:39 -0,3 C 0,0 C 95 % 1007,9 hPa 0,0 l/m 1,6 km/h (1 Bft) N-NW 337 0 min 0,0 UV-I 0 W/m -1,0 C -0,3 C 4,8 km/h (1 Bft)
01.01.2021 05:40 -0,3 C 0,0 C 95 % 1007,9 hPa 0,0 l/m 1,6 km/h (1 Bft) N-NW 337 0 min 0,0 UV-I 0 W/m -1,0 C -0,3 C 1,6 km/h (1 Bft)
01.01.2021 05:41 -0,3 C 0,0 C 95 % 1007,9 hPa 0,0 l/m 0,0 km/h (0 Bft) N-NW 337 0 min 0,0 UV-I 0 W/m -1,0 C -0,3 C 1,6 km/h (1 Bft)
01.01.2021 05:42 -0,3 C 0,0 C 95 % 1007,9 hPa 0,0 l/m 1,6 km/h (1 Bft) N-NW 337 0 min 0,0 UV-I 0 W/m -1,0 C -0,3 C 3,2 km/h (1 Bft)
01.01.2021 05:43 -0,3 C 0,0 C 95 % 1007,9 hPa 0,0 l/m 0,0 km/h (0 Bft) N-NW 337 0 min 0,0 UV-I 0 W/m -1,0 C -0,3 C 1,6 km/h (1 Bft)
01.01.2021 05:44 -0,3 C 0,0 C 95 % 1007,9 hPa 0,0 l/m 0,0 km/h (0 Bft) N-NW 337 0 min 0,0 UV-I 0 W/m -1,0 C -0,3 C 1,6 km/h (1 Bft)
01.01.2021 05:45 -0,3 C 0,0 C 95 % 1007,9 hPa 0,0 l/m 1,6 km/h (1 Bft) N-NW 337 0 min 0,0 UV-I 0 W/m -1,0 C -0,3 C 1,6 km/h (1 Bft)
01.01.2021 05:46 -0,3 C 0,0 C 95 % 1007,9 hPa 0,0 l/m 0,0 km/h (0 Bft) N-NW 337 0 min 0,0 UV-I 0 W/m -1,0 C -0,3 C 1,6 km/h (1 Bft)
01.01.2021 05:47 -0,3 C 0,0 C 95 % 1008,0 hPa 0,0 l/m 0,0 km/h (0 Bft) N-NW 337 0 min 0,0 UV-I 0 W/m -1,0 C -0,3 C 1,6 km/h (1 Bft)
01.01.2021 05:48 -0,3 C 0,0 C 95 % 1007,9 hPa 0,0 l/m 0,0 km/h (0 Bft) N 0 0 min 0,0 UV-I 0 W/m -1,0 C -0,3 C 0,0 km/h (0 Bft)
01.01.2021 05:49 -0,3 C 0,0 C 95 % 1008,0 hPa 0,0 l/m 0,0 km/h (0 Bft) N-NW 337 0 min 0,0 UV-I 0 W/m -1,0 C -0,3 C 1,6 km/h (1 Bft)
01.01.2021 05:50 -0,3 C 0,0 C 95 % 1008,0 hPa 0,0 l/m 1,6 km/h (1 Bft) N-NW 337 0 min 0,0 UV-I 0 W/m -1,0 C -0,3 C 3,2 km/h (1 Bft)
01.01.2021 05:51 -0,3 C 0,0 C 95 % 1008,0 hPa 0,0 l/m 0,0 km/h (0 Bft) N-NW 337 0 min 0,0 UV-I 0 W/m -1,0 C -0,3 C 1,6 km/h (1 Bft)
01.01.2021 05:52 -0,3 C 0,0 C 95 % 1008,0 hPa 0,0 l/m 1,6 km/h (1 Bft) N-NW 337 0 min 0,0 UV-I 0 W/m -1,0 C -0,3 C 3,2 km/h (1 Bft)
01.01.2021 05:53 -0,3 C 0,0 C 95 % 1008,0 hPa 0,0 l/m 0,0 km/h (0 Bft) N-NW 337 0 min 0,0 UV-I 0 W/m -1,0 C -0,3 C 1,6 km/h (1 Bft)
01.01.2021 05:54 -0,3 C 0,0 C 95 % 1008,1 hPa 0,0 l/m 0,0 km/h (0 Bft) N-NW 337 0 min 0,0 UV-I 0 W/m -1,0 C -0,3 C 1,6 km/h (1 Bft)
01.01.2021 05:55 -0,3 C 0,0 C 95 % 1008,0 hPa 0,0 l/m 0,0 km/h (0 Bft) N 0 0 min 0,0 UV-I 0 W/m -1,0 C -0,3 C 0,0 km/h (0 Bft)
01.01.2021 05:56 -0,3 C 0,0 C 95 % 1008,0 hPa 0,0 l/m 1,6 km/h (1 Bft) N-NW 337 0 min 0,0 UV-I 0 W/m -1,0 C -0,3 C 1,6 km/h (1 Bft)
01.01.2021 05:57 -0,3 C 0,0 C 95 % 1008,1 hPa 0,0 l/m 1,6 km/h (1 Bft) N-NW 337 0 min 0,0 UV-I 0 W/m -1,0 C -0,3 C 1,6 km/h (1 Bft)
01.01.2021 05:58 -0,3 C 0,0 C 95 % 1008,0 hPa 0,0 l/m 0,0 km/h (0 Bft) N-NW 337 0 min 0,0 UV-I 0 W/m -1,0 C -0,3 C 1,6 km/h (1 Bft)
01.01.2021 05:59 -0,3 C 0,0 C 95 % 1008,0 hPa 0,0 l/m 1,6 km/h (1 Bft) N-NW 337 0 min 0,0 UV-I 0 W/m -1,0 C -0,3 C 3,2 km/h (1 Bft)
01.01.2021 06:00 -0,3 C 0,0 C 95 % 1008,1 hPa 0,0 l/m 0,0 km/h (0 Bft) N-NW 337 0 min 0,0 UV-I 0 W/m -1,0 C -0,3 C 1,6 km/h (1 Bft)
01.01.2021 06:01 -0,3 C 0,0 C 95 % 1008,0 hPa 0,0 l/m 0,0 km/h (0 Bft) N-NW 337 0 min 0,0 UV-I 0 W/m -1,0 C -0,3 C 1,6 km/h (1 Bft)
01.01.2021 06:02 -0,3 C 0,0 C 95 % 1008,0 hPa 0,0 l/m 0,0 km/h (0 Bft) N-NW 337 0 min 0,0 UV-I 0 W/m -1,0 C -0,3 C 1,6 km/h (1 Bft)
01.01.2021 06:03 -0,3 C 0,0 C 95 % 1008,1 hPa 0,0 l/m 1,6 km/h (1 Bft) N-NW 337 0 min 0,0 UV-I 0 W/m -1,0 C -0,3 C 1,6 km/h (1 Bft)
01.01.2021 06:04 -0,2 C 0,0 C 95 % 1008,1 hPa 0,0 l/m 1,6 km/h (1 Bft) N-NW 337 0 min 0,0 UV-I 0 W/m -0,9 C -0,2 C 3,2 km/h (1 Bft)
01.01.2021 06:05 -0,3 C 0,0 C 95 % 1008,1 hPa 0,0 l/m 0,0 km/h (0 Bft) N-NW 337 0 min 0,0 UV-I 0 W/m -1,0 C -0,3 C 1,6 km/h (1 Bft)
01.01.2021 06:06 -0,3 C 0,0 C 95 % 1008,1 hPa 0,0 l/m 0,0 km/h (0 Bft) N-NW 337 0 min 0,0 UV-I 0 W/m -1,0 C -0,3 C 1,6 km/h (1 Bft)
01.01.2021 06:07 -0,3 C 0,0 C 95 % 1008,1 hPa 0,0 l/m 1,6 km/h (1 Bft) N-NW 337 0 min 0,0 UV-I 0 W/m -1,0 C -0,3 C 3,2 km/h (1 Bft)
01.01.2021 06:08 -0,3 C 0,0 C 95 % 1008,1 hPa 0,0 l/m 0,0 km/h (0 Bft) N-NW 337 0 min 0,0 UV-I 0 W/m -1,0 C -0,3 C 1,6 km/h (1 Bft)
01.01.2021 06:09 -0,3 C 0,0 C 95 % 1008,2 hPa 0,0 l/m 0,0 km/h (0 Bft) N-NW 337 0 min 0,0 UV-I 0 W/m -1,0 C -0,3 C 1,6 km/h (1 Bft)
01.01.2021 06:10 -0,3 C 0,0 C 95 % 1008,1 hPa 0,0 l/m 0,0 km/h (0 Bft) N-NW 337 0 min 0,0 UV-I 0 W/m -1,0 C -0,3 C 1,6 km/h (1 Bft)
01.01.2021 06:11 -0,3 C 0,0 C 95 % 1008,2 hPa 0,0 l/m 1,6 km/h (1 Bft) N-NW 337 0 min 0,0 UV-I 0 W/m -1,0 C -0,3 C 1,6 km/h (1 Bft)
01.01.2021 06:12 -0,3 C 0,0 C 95 % 1008,1 hPa 0,0 l/m 1,6 km/h (1 Bft) N-NW 337 0 min 0,0 UV-I 0 W/m -1,0 C -0,3 C 3,2 km/h (1 Bft)
01.01.2021 06:13 -0,3 C 0,0 C 95 % 1008,1 hPa 0,0 l/m 1,6 km/h (1 Bft) N-NW 337 0 min 0,0 UV-I 0 W/m -1,0 C -0,3 C 1,6 km/h (1 Bft)
01.01.2021 06:14 -0,3 C 0,0 C 95 % 1008,1 hPa 0,0 l/m 0,0 km/h (0 Bft) N-NW 337 0 min 0,0 UV-I 0 W/m -1,0 C -0,3 C 1,6 km/h (1 Bft)
01.01.2021 06:15 -0,3 C 0,0 C 95 % 1008,1 hPa 0,0 l/m 0,0 km/h (0 Bft) N 0 0 min 0,0 UV-I 0 W/m -1,0 C -0,3 C 0,0 km/h (0 Bft)
01.01.2021 06:16 -0,3 C 0,0 C 95 % 1008,1 hPa 0,0 l/m 0,0 km/h (0 Bft) N 0 0 min 0,0 UV-I 0 W/m -1,0 C -0,3 C 0,0 km/h (0 Bft)
01.01.2021 06:17 -0,3 C 0,0 C 95 % 1008,2 hPa 0,0 l/m 0,0 km/h (0 Bft) N-NW 337 0 min 0,0 UV-I 0 W/m -1,0 C -0,3 C 1,6 km/h (1 Bft)
01.01.2021 06:18 -0,3 C 0,0 C 95 % 1008,1 hPa 0,0 l/m 0,0 km/h (0 Bft) N 0 0 min 0,0 UV-I 0 W/m -1,0 C -0,3 C 0,0 km/h (0 Bft)
01.01.2021 06:19 -0,3 C 0,0 C 95 % 1008,1 hPa 0,0 l/m 1,6 km/h (1 Bft) N-NW 337 0 min 0,0 UV-I 0 W/m -1,0 C -0,3 C 3,2 km/h (1 Bft)
01.01.2021 06:20 -0,3 C 0,0 C 95 % 1008,2 hPa 0,0 l/m 0,0 km/h (0 Bft) N-NW 337 0 min 0,0 UV-I 0 W/m -1,0 C -0,3 C 1,6 km/h (1 Bft)
01.01.2021 06:21 -0,3 C 0,0 C 95 % 1008,3 hPa 0,0 l/m 1,6 km/h (1 Bft) N-NW 337 0 min 0,0 UV-I 0 W/m -1,0 C -0,3 C 3,2 km/h (1 Bft)
01.01.2021 06:22 -0,3 C 0,0 C 95 % 1008,2 hPa 0,0 l/m 0,0 km/h (0 Bft) N-NW 337 0 min 0,0 UV-I 0 W/m -1,0 C -0,3 C 1,6 km/h (1 Bft)
01.01.2021 06:23 -0,3 C 0,0 C 95 % 1008,2 hPa 0,0 l/m 0,0 km/h (0 Bft) N 0 0 min 0,0 UV-I 0 W/m -1,0 C -0,3 C 0,0 km/h (0 Bft)
01.01.2021 06:24 -0,3 C 0,0 C 95 % 1008,2 hPa 0,0 l/m 0,0 km/h (0 Bft) N 0 0 min 0,0 UV-I 0 W/m -1,0 C -0,3 C 0,0 km/h (0 Bft)
01.01.2021 06:25 -0,3 C 0,0 C 95 % 1008,2 hPa 0,0 l/m 0,0 km/h (0 Bft) N-NW 337 0 min 0,0 UV-I 0 W/m -1,0 C -0,3 C 1,6 km/h (1 Bft)
01.01.2021 06:26 -0,3 C 0,0 C 95 % 1008,2 hPa 0,0 l/m 0,0 km/h (0 Bft) N-NW 337 0 min 0,0 UV-I 0 W/m -1,0 C -0,3 C 1,6 km/h (1 Bft)
01.01.2021 06:27 -0,3 C 0,0 C 95 % 1008,1 hPa 0,0 l/m 0,0 km/h (0 Bft) N-NW 337 0 min 0,0 UV-I 0 W/m -1,0 C -0,3 C 1,6 km/h (1 Bft)
01.01.2021 06:28 -0,3 C 0,0 C 95 % 1008,2 hPa 0,0 l/m 0,0 km/h (0 Bft) N-NW 337 0 min 0,0 UV-I 0 W/m -1,0 C -0,3 C 3,2 km/h (1 Bft)
01.01.2021 06:29 -0,3 C 0,0 C 95 % 1008,2 hPa 0,0 l/m 0,0 km/h (0 Bft) N-NW 337 0 min 0,0 UV-I 0 W/m -1,0 C -0,3 C 1,6 km/h (1 Bft)
01.01.2021 06:30 -0,3 C 0,0 C 95 % 1008,2 hPa 0,0 l/m 0,0 km/h (0 Bft) N-NW 337 0 min 0,0 UV-I 0 W/m -1,0 C -0,3 C 1,6 km/h (1 Bft)
01.01.2021 06:31 -0,3 C 0,0 C 95 % 1008,2 hPa 0,0 l/m 0,0 km/h (0 Bft) N-NW 337 0 min 0,0 UV-I 0 W/m -1,0 C -0,3 C 1,6 km/h (1 Bft)
01.01.2021 06:32 -0,3 C 0,0 C 95 % 1008,2 hPa 0,0 l/m 0,0 km/h (0 Bft) N-NW 337 0 min 0,0 UV-I 0 W/m -1,0 C -0,3 C 1,6 km/h (1 Bft)
01.01.2021 06:33 -0,3 C 0,0 C 95 % 1008,1 hPa 0,0 l/m 1,6 km/h (1 Bft) N-NW 337 0 min 0,0 UV-I 0 W/m -1,0 C -0,3 C 4,8 km/h (1 Bft)
01.01.2021 06:34 -0,3 C 0,0 C 95 % 1008,2 hPa 0,0 l/m 1,6 km/h (1 Bft) N-NW 337 0 min 0,0 UV-I 0 W/m -1,0 C -0,3 C 3,2 km/h (1 Bft)
01.01.2021 06:35 -0,3 C 0,0 C 95 % 1008,2 hPa 0,0 l/m 1,6 km/h (1 Bft) N-NW 337 0 min 0,0 UV-I 0 W/m -1,0 C -0,3 C 3,2 km/h (1 Bft)
01.01.2021 06:36 -0,3 C 0,0 C 95 % 1008,3 hPa 0,0 l/m 1,6 km/h (1 Bft) N-NW 337 0 min 0,0 UV-I 0 W/m -1,0 C -0,3 C 4,8 km/h (1 Bft)
01.01.2021 06:37 -0,3 C 0,0 C 95 % 1008,2 hPa 0,0 l/m 0,0 km/h (0 Bft) N-NW 337 0 min 0,0 UV-I 0 W/m -1,0 C -0,3 C 1,6 km/h (1 Bft)
01.01.2021 06:38 -0,3 C 0,0 C 95 % 1008,2 hPa 0,0 l/m 1,6 km/h (1 Bft) N-NW 337 0 min 0,0 UV-I 0 W/m -1,0 C -0,3 C 1,6 km/h (1 Bft)
01.01.2021 06:39 -0,3 C 0,0 C 95 % 1008,2 hPa 0,0 l/m 0,0 km/h (0 Bft) N-NW 337 0 min 0,0 UV-I 0 W/m -1,0 C -0,3 C 1,6 km/h (1 Bft)
01.01.2021 06:40 -0,3 C 0,0 C 95 % 1008,3 hPa 0,0 l/m 1,6 km/h (1 Bft) N-NW 337 0 min 0,0 UV-I 0 W/m -1,0 C -0,3 C 4,8 km/h (1 Bft)
01.01.2021 06:41 -0,3 C 0,0 C 95 % 1008,2 hPa 0,0 l/m 3,2 km/h (1 Bft) N-NW 337 0 min 0,0 UV-I 0 W/m -1,0 C -0,3 C 4,8 km/h (1 Bft)
01.01.2021 06:42 -0,3 C 0,0 C 95 % 1008,3 hPa 0,0 l/m 1,6 km/h (1 Bft) N-NW 337 0 min 0,0 UV-I 0 W/m -1,0 C -0,3 C 3,2 km/h (1 Bft)
01.01.2021 06:43 -0,3 C 0,0 C 95 % 1008,3 hPa 0,0 l/m 1,6 km/h (1 Bft) N-NW 337 0 min 0,0 UV-I 0 W/m -1,0 C -0,3 C 3,2 km/h (1 Bft)
01.01.2021 06:44 -0,4 C 0,0 C 95 % 1008,3 hPa 0,0 l/m 1,6 km/h (1 Bft) N-NW 337 0 min 0,0 UV-I 0 W/m -1,1 C -0,4 C 1,6 km/h (1 Bft)
01.01.2021 06:45 -0,4 C 0,0 C 95 % 1008,3 hPa 0,0 l/m 1,6 km/h (1 Bft) N-NW 337 0 min 0,0 UV-I 0 W/m -1,1 C -0,4 C 3,2 km/h (1 Bft)
01.01.2021 06:46 -0,4 C 0,0 C 95 % 1008,3 hPa 0,0 l/m 0,0 km/h (0 Bft) N-NW 337 0 min 0,0 UV-I 0 W/m -1,1 C -0,4 C 1,6 km/h (1 Bft)
01.01.2021 06:47 -0,4 C 0,0 C 95 % 1008,3 hPa 0,0 l/m 0,0 km/h (0 Bft) N-NW 337 0 min 0,0 UV-I 0 W/m -1,1 C -0,4 C 1,6 km/h (1 Bft)
01.01.2021 06:48 -0,4 C 0,0 C 95 % 1008,3 hPa 0,0 l/m 1,6 km/h (1 Bft) N-NW 337 0 min 0,0 UV-I 0 W/m -1,1 C -0,4 C 4,8 km/h (1 Bft)
01.01.2021 06:49 -0,4 C 0,0 C 95 % 1008,3 hPa 0,0 l/m 1,6 km/h (1 Bft) N-NW 337 0 min 0,0 UV-I 0 W/m -1,1 C -0,4 C 3,2 km/h (1 Bft)
01.01.2021 06:50 -0,4 C 0,0 C 95 % 1008,3 hPa 0,0 l/m 1,6 km/h (1 Bft) N-NW 337 0 min 0,0 UV-I 0 W/m -1,1 C -0,4 C 3,2 km/h (1 Bft)
01.01.2021 06:51 -0,4 C 0,0 C 95 % 1008,4 hPa 0,0 l/m 0,0 km/h (0 Bft) N-NW 337 0 min 0,0 UV-I 0 W/m -1,1 C -0,4 C 1,6 km/h (1 Bft)
01.01.2021 06:52 -0,4 C 0,0 C 95 % 1008,3 hPa 0,0 l/m 0,0 km/h (0 Bft) N-NW 337 0 min 0,0 UV-I 0 W/m -1,1 C -0,4 C 1,6 km/h (1 Bft)
01.01.2021 06:53 -0,4 C 0,0 C 95 % 1008,3 hPa 0,0 l/m 0,0 km/h (0 Bft) N-NW 337 0 min 0,0 UV-I 0 W/m -1,1 C -0,4 C 1,6 km/h (1 Bft)
01.01.2021 06:54 -0,4 C 0,0 C 95 % 1008,3 hPa 0,0 l/m 0,0 km/h (0 Bft) N-NW 337 0 min 0,0 UV-I 0 W/m -1,1 C -0,4 C 3,2 km/h (1 Bft)
01.01.2021 06:55 -0,4 C 0,0 C 95 % 1008,4 hPa 0,0 l/m 1,6 km/h (1 Bft) N-NW 337 0 min 0,0 UV-I 0 W/m -1,1 C -0,4 C 3,2 km/h (1 Bft)
01.01.2021 06:56 -0,4 C 0,0 C 95 % 1008,3 hPa 0,0 l/m 0,0 km/h (0 Bft) N-NW 337 0 min 0,0 UV-I 0 W/m -1,1 C -0,4 C 1,6 km/h (1 Bft)
01.01.2021 06:57 -0,4 C 0,0 C 95 % 1008,4 hPa 0,0 l/m 1,6 km/h (1 Bft) N-NW 337 0 min 0,0 UV-I 0 W/m -1,1 C -0,4 C 3,2 km/h (1 Bft)
01.01.2021 06:58 -0,4 C 0,0 C 95 % 1008,4 hPa 0,0 l/m 1,6 km/h (1 Bft) N-NW 337 0 min 0,0 UV-I 0 W/m -1,1 C -0,4 C 3,2 km/h (1 Bft)
01.01.2021 06:59 -0,4 C 0,0 C 95 % 1008,3 hPa 0,0 l/m 1,6 km/h (1 Bft) N-NW 337 0 min 0,0 UV-I 0 W/m -1,1 C -0,4 C 3,2 km/h (1 Bft)
01.01.2021 07:00 -0,4 C 0,0 C 95 % 1008,4 hPa 0,0 l/m 1,6 km/h (1 Bft) N-NW 337 0 min 0,0 UV-I 0 W/m -1,1 C -0,4 C 4,8 km/h (1 Bft)
01.01.2021 07:01 -0,4 C 0,0 C 95 % 1008,4 hPa 0,0 l/m 0,0 km/h (0 Bft) N-NW 337 0 min 0,0 UV-I 0 W/m -1,1 C -0,4 C 1,6 km/h (1 Bft)
01.01.2021 07:02 -0,4 C 0,0 C 95 % 1008,5 hPa 0,0 l/m 1,6 km/h (1 Bft) N-NW 337 0 min 0,0 UV-I 0 W/m -1,1 C -0,4 C 3,2 km/h (1 Bft)
01.01.2021 07:03 -0,4 C 0,0 C 95 % 1008,4 hPa 0,0 l/m 0,0 km/h (0 Bft) N-NW 337 0 min 0,0 UV-I 0 W/m -1,1 C -0,4 C 1,6 km/h (1 Bft)
01.01.2021 07:04 -0,4 C 0,0 C 95 % 1008,4 hPa 0,0 l/m 1,6 km/h (1 Bft) N-NW 337 0 min 0,0 UV-I 0 W/m -1,1 C -0,4 C 3,2 km/h (1 Bft)
01.01.2021 07:05 -0,4 C 0,0 C 95 % 1008,5 hPa 0,0 l/m 1,6 km/h (1 Bft) N-NW 337 0 min 0,0 UV-I 0 W/m -1,1 C -0,4 C 4,8 km/h (1 Bft)
01.01.2021 07:06 -0,4 C 0,0 C 95 % 1008,5 hPa 0,0 l/m 1,6 km/h (1 Bft) N-NW 337 0 min 0,0 UV-I 0 W/m -1,1 C -0,4 C 3,2 km/h (1 Bft)
01.01.2021 07:07 -0,4 C 0,0 C 95 % 1008,5 hPa 0,0 l/m 3,2 km/h (1 Bft) N-NW 337 0 min 0,0 UV-I 0 W/m -1,1 C -0,4 C 4,8 km/h (1 Bft)
01.01.2021 07:08 -0,5 C 0,0 C 95 % 1008,4 hPa 0,0 l/m 1,6 km/h (1 Bft) N-NW 337 0 min 0,0 UV-I 0 W/m -1,2 C -0,5 C 3,2 km/h (1 Bft)
01.01.2021 07:09 -0,4 C 0,0 C 95 % 1008,5 hPa 0,0 l/m 1,6 km/h (1 Bft) N-NW 337 0 min 0,0 UV-I 0 W/m -1,1 C -0,4 C 3,2 km/h (1 Bft)
01.01.2021 07:10 -0,4 C 0,0 C 95 % 1008,5 hPa 0,0 l/m 1,6 km/h (1 Bft) N-NW 337 0 min 0,0 UV-I 0 W/m -1,1 C -0,4 C 3,2 km/h (1 Bft)
01.01.2021 07:11 -0,4 C 0,0 C 95 % 1008,5 hPa 0,0 l/m 0,0 km/h (0 Bft) N-NW 337 0 min 0,0 UV-I 0 W/m -1,1 C -0,4 C 1,6 km/h (1 Bft)
01.01.2021 07:12 -0,4 C 0,0 C 95 % 1008,5 hPa 0,0 l/m 0,0 km/h (0 Bft) N-NW 337 0 min 0,0 UV-I 0 W/m -1,1 C -0,4 C 1,6 km/h (1 Bft)
01.01.2021 07:13 -0,4 C 0,0 C 95 % 1008,6 hPa 0,0 l/m 1,6 km/h (1 Bft) N-NW 337 0 min 0,0 UV-I 0 W/m -1,1 C -0,4 C 3,2 km/h (1 Bft)
01.01.2021 07:14 -0,5 C 0,0 C 95 % 1008,6 hPa 0,0 l/m 1,6 km/h (1 Bft) N-NW 337 0 min 0,0 UV-I 0 W/m -1,2 C -0,5 C 3,2 km/h (1 Bft)
01.01.2021 07:15 -0,5 C 0,0 C 95 % 1008,7 hPa 0,0 l/m 1,6 km/h (1 Bft) N-NW 337 0 min 0,0 UV-I 0 W/m -1,2 C -0,5 C 3,2 km/h (1 Bft)
01.01.2021 07:16 -0,5 C 0,0 C 95 % 1008,6 hPa 0,0 l/m 1,6 km/h (1 Bft) N-NW 337 0 min 0,0 UV-I 0 W/m -1,2 C -0,5 C 3,2 km/h (1 Bft)
01.01.2021 07:17 -0,5 C 0,0 C 95 % 1008,6 hPa 0,0 l/m 1,6 km/h (1 Bft) N-NW 337 0 min 0,0 UV-I 0 W/m -1,2 C -0,5 C 3,2 km/h (1 Bft)
01.01.2021 07:18 -0,5 C 0,0 C 95 % 1008,6 hPa 0,0 l/m 1,6 km/h (1 Bft) N-NW 337 0 min 0,0 UV-I 0 W/m -1,2 C -0,5 C 4,8 km/h (1 Bft)
01.01.2021 07:19 -0,5 C 0,0 C 95 % 1008,6 hPa 0,0 l/m 1,6 km/h (1 Bft) N-NW 337 0 min 0,0 UV-I 0 W/m -1,2 C -0,5 C 3,2 km/h (1 Bft)
01.01.2021 07:20 -0,5 C 0,0 C 95 % 1008,6 hPa 0,0 l/m 3,2 km/h (1 Bft) NW 315 0 min 0,0 UV-I 0 W/m -1,2 C -0,5 C 6,4 km/h (2 Bft)
01.01.2021 07:21 -0,5 C 0,0 C 95 % 1008,6 hPa 0,0 l/m 1,6 km/h (1 Bft) NW 315 0 min 0,0 UV-I 0 W/m -1,2 C -0,5 C 3,2 km/h (1 Bft)
01.01.2021 07:22 -0,6 C 0,0 C 95 % 1008,7 hPa 0,0 l/m 3,2 km/h (1 Bft) NW 315 0 min 0,0 UV-I 0 W/m -1,3 C -0,6 C 3,2 km/h (1 Bft)
01.01.2021 07:23 -0,6 C 0,0 C 95 % 1008,7 hPa 0,0 l/m 1,6 km/h (1 Bft) NW 315 0 min 0,0 UV-I 0 W/m -1,3 C -0,6 C 4,8 km/h (1 Bft)
01.01.2021 07:24 -0,5 C 0,0 C 95 % 1008,7 hPa 0,0 l/m 1,6 km/h (1 Bft) NW 315 0 min 0,0 UV-I 0 W/m -1,2 C -0,5 C 3,2 km/h (1 Bft)
01.01.2021 07:25 -0,6 C 0,0 C 95 % 1008,7 hPa 0,0 l/m 1,6 km/h (1 Bft) NW 315 0 min 0,0 UV-I 0 W/m -1,3 C -0,6 C 3,2 km/h (1 Bft)
01.01.2021 07:26 -0,5 C 0,0 C 95 % 1008,7 hPa 0,0 l/m 1,6 km/h (1 Bft) NW 315 0 min 0,0 UV-I 0 W/m -1,2 C -0,5 C 3,2 km/h (1 Bft)
01.01.2021 07:27 -0,6 C 0,0 C 95 % 1008,7 hPa 0,0 l/m 1,6 km/h (1 Bft) NW 315 0 min 0,0 UV-I 0 W/m -1,3 C -0,6 C 4,8 km/h (1 Bft)
01.01.2021 07:28 -0,6 C 0,0 C 95 % 1008,7 hPa 0,0 l/m 3,2 km/h (1 Bft) NW 315 0 min 0,0 UV-I 0 W/m -1,3 C -0,6 C 4,8 km/h (1 Bft)
01.01.2021 07:29 -0,6 C 0,0 C 95 % 1008,8 hPa 0,0 l/m 3,2 km/h (1 Bft) NW 315 0 min 0,0 UV-I 0 W/m -1,3 C -0,6 C 4,8 km/h (1 Bft)
01.01.2021 07:30 -0,6 C 0,0 C 95 % 1008,9 hPa 0,0 l/m 1,6 km/h (1 Bft) NW 315 0 min 0,0 UV-I 0 W/m -1,3 C -0,6 C 3,2 km/h (1 Bft)
01.01.2021 07:31 -0,6 C 0,0 C 95 % 1008,9 hPa 0,0 l/m 1,6 km/h (1 Bft) NW 315 0 min 0,0 UV-I 0 W/m -1,3 C -0,6 C 3,2 km/h (1 Bft)
01.01.2021 07:32 -0,6 C 0,0 C 95 % 1008,9 hPa 0,0 l/m 1,6 km/h (1 Bft) NW 315 0 min 0,0 UV-I 0 W/m -1,3 C -0,6 C 3,2 km/h (1 Bft)
01.01.2021 07:33 -0,6 C 0,0 C 95 % 1008,9 hPa 0,0 l/m 0,0 km/h (0 Bft) NW 315 0 min 0,0 UV-I 0 W/m -1,3 C -0,6 C 1,6 km/h (1 Bft)
01.01.2021 07:34 -0,6 C 0,0 C 95 % 1008,9 hPa 0,0 l/m 0,0 km/h (0 Bft) NW 315 0 min 0,0 UV-I 0 W/m -1,3 C -0,6 C 3,2 km/h (1 Bft)
01.01.2021 07:35 -0,6 C 0,0 C 95 % 1008,9 hPa 0,0 l/m 1,6 km/h (1 Bft) NW 315 0 min 0,0 UV-I 0 W/m -1,3 C -0,6 C 3,2 km/h (1 Bft)
01.01.2021 07:36 -0,6 C 0,0 C 95 % 1009,0 hPa 0,0 l/m 3,2 km/h (1 Bft) NW 315 0 min 0,0 UV-I 0 W/m -1,3 C -0,6 C 3,2 km/h (1 Bft)
01.01.2021 07:37 -0,6 C 0,0 C 95 % 1008,9 hPa 0,0 l/m 0,0 km/h (0 Bft) NW 315 0 min 0,0 UV-I 0 W/m -1,3 C -0,6 C 3,2 km/h (1 Bft)
01.01.2021 07:38 -0,6 C 0,0 C 95 % 1009,0 hPa 0,0 l/m 1,6 km/h (1 Bft) NW 315 0 min 0,0 UV-I 0 W/m -1,3 C -0,6 C 3,2 km/h (1 Bft)
01.01.2021 07:39 -0,6 C -0,6 C 95 % 1008,9 hPa 0,0 l/m 1,6 km/h (1 Bft) NW 315 0 min 0,0 UV-I 0 W/m -1,3 C -0,6 C 1,6 km/h (1 Bft)
01.01.2021 07:40 -0,6 C 0,0 C 95 % 1008,9 hPa 0,0 l/m 1,6 km/h (1 Bft) NW 315 0 min 0,0 UV-I 0 W/m -1,3 C -0,6 C 3,2 km/h (1 Bft)
01.01.2021 07:41 -0,6 C 0,0 C 95 % 1009,0 hPa 0,0 l/m 0,0 km/h (0 Bft) NW 315 0 min 0,0 UV-I 0 W/m -1,3 C -0,6 C 1,6 km/h (1 Bft)
01.01.2021 07:42 -0,6 C 0,0 C 95 % 1009,0 hPa 0,0 l/m 1,6 km/h (1 Bft) NW 315 0 min 0,0 UV-I 0 W/m -1,3 C -0,6 C 1,6 km/h (1 Bft)
01.01.2021 07:43 -0,6 C 0,0 C 95 % 1009,0 hPa 0,0 l/m 3,2 km/h (1 Bft) NW 315 0 min 0,0 UV-I 0 W/m -1,3 C -0,6 C 3,2 km/h (1 Bft)
01.01.2021 07:44 -0,6 C 0,0 C 95 % 1008,9 hPa 0,0 l/m 1,6 km/h (1 Bft) NW 315 0 min 0,0 UV-I 0 W/m -1,3 C -0,6 C 3,2 km/h (1 Bft)
01.01.2021 07:45 -0,6 C 0,0 C 95 % 1009,0 hPa 0,0 l/m 1,6 km/h (1 Bft) NW 315 0 min 0,0 UV-I 0 W/m -1,3 C -0,6 C 3,2 km/h (1 Bft)
01.01.2021 07:46 -0,6 C 0,0 C 95 % 1008,9 hPa 0,0 l/m 1,6 km/h (1 Bft) NW 315 0 min 0,0 UV-I 0 W/m -1,3 C -0,6 C 3,2 km/h (1 Bft)
01.01.2021 07:47 -0,6 C 0,0 C 95 % 1009,0 hPa 0,0 l/m 1,6 km/h (1 Bft) NW 315 0 min 0,0 UV-I 0 W/m -1,3 C -0,6 C 3,2 km/h (1 Bft)
01.01.2021 07:48 -0,6 C 0,0 C 95 % 1009,0 hPa 0,0 l/m 1,6 km/h (1 Bft) NW 315 0 min 0,0 UV-I 0 W/m -1,3 C -0,6 C 4,8 km/h (1 Bft)
01.01.2021 07:49 -0,6 C 0,0 C 95 % 1009,0 hPa 0,0 l/m 1,6 km/h (1 Bft) NW 315 0 min 0,0 UV-I 0 W/m -1,3 C -0,6 C 3,2 km/h (1 Bft)
01.01.2021 07:50 -0,6 C 0,0 C 95 % 1009,0 hPa 0,0 l/m 1,6 km/h (1 Bft) NW 315 0 min 0,0 UV-I 0 W/m -1,3 C -0,6 C 3,2 km/h (1 Bft)
01.01.2021 07:51 -0,6 C 0,0 C 95 % 1009,1 hPa 0,0 l/m 1,6 km/h (1 Bft) NW 315 0 min 0,0 UV-I 0 W/m -1,3 C -0,6 C 3,2 km/h (1 Bft)
01.01.2021 07:52 -0,6 C 0,0 C 95 % 1009,0 hPa 0,0 l/m 1,6 km/h (1 Bft) NW 315 0 min 0,0 UV-I 0 W/m -1,3 C -0,6 C 3,2 km/h (1 Bft)
01.01.2021 07:53 -0,6 C 0,0 C 95 % 1009,1 hPa 0,0 l/m 3,2 km/h (1 Bft) NW 315 0 min 0,0 UV-I 0 W/m -1,3 C -0,6 C 3,2 km/h (1 Bft)
01.01.2021 07:54 -0,6 C 0,0 C 95 % 1009,1 hPa 0,0 l/m 1,6 km/h (1 Bft) NW 315 0 min 0,0 UV-I 0 W/m -1,3 C -0,6 C 3,2 km/h (1 Bft)
01.01.2021 07:55 -0,6 C 0,0 C 95 % 1009,1 hPa 0,0 l/m 1,6 km/h (1 Bft) NW 315 0 min 0,0 UV-I 0 W/m -1,3 C -0,6 C 3,2 km/h (1 Bft)
01.01.2021 07:56 -0,6 C 0,0 C 95 % 1009,1 hPa 0,0 l/m 1,6 km/h (1 Bft) NW 315 0 min 0,0 UV-I 0 W/m -1,3 C -0,6 C 3,2 km/h (1 Bft)
01.01.2021 07:57 -0,6 C 0,0 C 95 % 1009,1 hPa 0,0 l/m 0,0 km/h (0 Bft) NW 315 0 min 0,0 UV-I 0 W/m -1,3 C -0,6 C 1,6 km/h (1 Bft)
01.01.2021 07:58 -0,6 C 0,0 C 95 % 1009,1 hPa 0,0 l/m 0,0 km/h (0 Bft) NW 315 0 min 0,0 UV-I 0 W/m -1,3 C -0,6 C 1,6 km/h (1 Bft)
01.01.2021 07:59 -0,6 C -0,6 C 95 % 1009,1 hPa 0,0 l/m 0,0 km/h (0 Bft) NW 315 0 min 0,0 UV-I 0 W/m -1,3 C -0,6 C 1,6 km/h (1 Bft)
01.01.2021 08:00 -0,6 C -0,6 C 95 % 1009,0 hPa 0,0 l/m 0,0 km/h (0 Bft) NW 315 0 min 0,0 UV-I 0 W/m -1,3 C -0,6 C 1,6 km/h (1 Bft)
01.01.2021 08:01 -0,6 C -0,6 C 95 % 1009,2 hPa 0,0 l/m 0,0 km/h (0 Bft) NW 315 0 min 0,0 UV-I 0 W/m -1,3 C -0,6 C 1,6 km/h (1 Bft)
01.01.2021 08:02 -0,6 C -0,6 C 95 % 1009,2 hPa 0,0 l/m 1,6 km/h (1 Bft) NW 315 0 min 0,0 UV-I 0 W/m -1,3 C -0,6 C 3,2 km/h (1 Bft)
01.01.2021 08:03 -0,6 C -0,6 C 95 % 1009,1 hPa 0,0 l/m 1,6 km/h (1 Bft) NW 315 0 min 0,0 UV-I 0 W/m -1,3 C -0,6 C 3,2 km/h (1 Bft)
01.01.2021 08:04 -0,6 C -0,6 C 95 % 1009,2 hPa 0,0 l/m 1,6 km/h (1 Bft) NW 315 0 min 0,0 UV-I 0 W/m -1,3 C -0,6 C 3,2 km/h (1 Bft)
01.01.2021 08:05 -0,6 C -0,6 C 95 % 1009,2 hPa 0,0 l/m 1,6 km/h (1 Bft) NW 315 0 min 0,0 UV-I 0 W/m -1,3 C -0,6 C 3,2 km/h (1 Bft)
01.01.2021 08:06 -0,6 C -0,6 C 95 % 1009,2 hPa 0,0 l/m 1,6 km/h (1 Bft) NW 315 0 min 0,0 UV-I 0 W/m -1,3 C -0,6 C 3,2 km/h (1 Bft)
01.01.2021 08:07 -0,6 C -0,6 C 95 % 1009,3 hPa 0,0 l/m 1,6 km/h (1 Bft) NW 315 0 min 0,0 UV-I 0 W/m -1,3 C -0,6 C 3,2 km/h (1 Bft)
01.01.2021 08:08 -0,6 C 0,0 C 95 % 1009,1 hPa 0,0 l/m 3,2 km/h (1 Bft) NW 315 0 min 0,0 UV-I 0 W/m -1,3 C -0,6 C 4,8 km/h (1 Bft)
01.01.2021 08:09 -0,6 C 0,0 C 95 % 1009,2 hPa 0,0 l/m 1,6 km/h (1 Bft) NW 315 0 min 0,0 UV-I 0 W/m -1,3 C -0,6 C 1,6 km/h (1 Bft)
01.01.2021 08:10 -0,6 C 0,0 C 95 % 1009,2 hPa 0,0 l/m 0,0 km/h (0 Bft) NW 315 0 min 0,0 UV-I 0 W/m -1,3 C -0,6 C 1,6 km/h (1 Bft)
01.01.2021 08:11 -0,6 C 0,0 C 95 % 1009,2 hPa 0,0 l/m 0,0 km/h (0 Bft) NW 315 0 min 0,0 UV-I 0 W/m -1,3 C -0,6 C 1,6 km/h (1 Bft)
01.01.2021 08:12 -0,6 C 0,0 C 95 % 1009,2 hPa 0,0 l/m 0,0 km/h (0 Bft) NW 315 0 min 0,0 UV-I 0 W/m -1,3 C -0,6 C 1,6 km/h (1 Bft)
01.01.2021 08:13 -0,6 C 0,0 C 95 % 1009,2 hPa 0,0 l/m 0,0 km/h (0 Bft) NW 315 0 min 0,0 UV-I 0 W/m -1,3 C -0,6 C 1,6 km/h (1 Bft)
01.01.2021 08:14 -0,6 C 0,0 C 95 % 1009,3 hPa 0,0 l/m 0,0 km/h (0 Bft) NW 315 0 min 0,0 UV-I 0 W/m -1,3 C -0,6 C 1,6 km/h (1 Bft)
01.01.2021 08:15 -0,6 C 0,0 C 95 % 1009,3 hPa 0,0 l/m 1,6 km/h (1 Bft) NW 315 0 min 0,0 UV-I 0 W/m -1,3 C -0,6 C 3,2 km/h (1 Bft)
01.01.2021 08:16 -0,6 C 0,0 C 95 % 1009,3 hPa 0,0 l/m 1,6 km/h (1 Bft) NW 315 0 min 0,0 UV-I 0 W/m -1,3 C -0,6 C 3,2 km/h (1 Bft)
01.01.2021 08:17 -0,6 C 0,0 C 95 % 1009,3 hPa 0,0 l/m 1,6 km/h (1 Bft) NW 315 0 min 0,0 UV-I 0 W/m -1,3 C -0,6 C 3,2 km/h (1 Bft)
01.01.2021 08:18 -0,6 C 0,0 C 95 % 1009,3 hPa 0,0 l/m 0,0 km/h (0 Bft) NW 315 0 min 0,0 UV-I 0 W/m -1,3 C -0,6 C 1,6 km/h (1 Bft)
01.01.2021 08:19 -0,6 C 0,0 C 95 % 1009,3 hPa 0,0 l/m 0,0 km/h (0 Bft) NW 315 0 min 0,0 UV-I 0 W/m -1,3 C -0,6 C 1,6 km/h (1 Bft)
01.01.2021 08:20 -0,6 C 0,0 C 95 % 1009,4 hPa 0,0 l/m 1,6 km/h (1 Bft) NW 315 0 min 0,0 UV-I 0 W/m -1,3 C -0,6 C 3,2 km/h (1 Bft)
01.01.2021 08:21 -0,6 C 0,0 C 95 % 1009,4 hPa 0,0 l/m 0,0 km/h (0 Bft) NW 315 0 min 0,0 UV-I 0 W/m -1,3 C -0,6 C 1,6 km/h (1 Bft)
01.01.2021 08:22 -0,6 C 0,0 C 95 % 1009,3 hPa 0,0 l/m 0,0 km/h (0 Bft) NW 315 0 min 0,0 UV-I 0 W/m -1,3 C -0,6 C 1,6 km/h (1 Bft)
01.01.2021 08:23 -0,6 C 0,0 C 95 % 1009,4 hPa 0,0 l/m 1,6 km/h (1 Bft) NW 315 0 min 0,0 UV-I 0 W/m -1,3 C -0,6 C 3,2 km/h (1 Bft)
01.01.2021 08:24 -0,6 C 0,0 C 95 % 1009,4 hPa 0,0 l/m 1,6 km/h (1 Bft) NW 315 0 min 0,0 UV-I 0 W/m -1,3 C -0,6 C 3,2 km/h (1 Bft)
01.01.2021 08:25 -0,6 C 0,0 C 95 % 1009,3 hPa 0,0 l/m 0,0 km/h (0 Bft) NW 315 0 min 0,0 UV-I 0 W/m -1,3 C -0,6 C 3,2 km/h (1 Bft)
01.01.2021 08:26 -0,6 C 0,0 C 95 % 1009,4 hPa 0,0 l/m 1,6 km/h (1 Bft) NW 315 0 min 0,0 UV-I 0 W/m -1,3 C -0,6 C 3,2 km/h (1 Bft)
01.01.2021 08:27 -0,6 C 0,0 C 95 % 1009,4 hPa 0,0 l/m 1,6 km/h (1 Bft) NW 315 0 min 0,0 UV-I 0 W/m -1,3 C -0,6 C 4,8 km/h (1 Bft)
01.01.2021 08:28 -0,5 C 0,0 C 95 % 1009,4 hPa 0,0 l/m 3,2 km/h (1 Bft) NW 315 0 min 0,0 UV-I 0 W/m -1,2 C -0,5 C 4,8 km/h (1 Bft)
01.01.2021 08:29 -0,6 C 0,0 C 95 % 1009,4 hPa 0,0 l/m 3,2 km/h (1 Bft) NW 315 0 min 0,0 UV-I 0 W/m -1,3 C -0,6 C 4,8 km/h (1 Bft)
01.01.2021 08:30 -0,5 C 0,0 C 95 % 1009,5 hPa 0,0 l/m 3,2 km/h (1 Bft) NW 315 0 min 0,0 UV-I 0 W/m -1,2 C -0,5 C 4,8 km/h (1 Bft)
01.01.2021 08:31 -0,5 C 0,0 C 95 % 1009,5 hPa 0,0 l/m 1,6 km/h (1 Bft) NW 315 0 min 0,0 UV-I 0 W/m -1,2 C -0,5 C 3,2 km/h (1 Bft)
01.01.2021 08:32 -0,5 C 0,0 C 95 % 1009,4 hPa 0,0 l/m 1,6 km/h (1 Bft) NW 315 0 min 0,0 UV-I 0 W/m -1,2 C -0,5 C 3,2 km/h (1 Bft)
01.01.2021 08:33 -0,5 C 0,0 C 95 % 1009,4 hPa 0,0 l/m 1,6 km/h (1 Bft) NW 315 0 min 0,0 UV-I 0 W/m -1,2 C -0,5 C 3,2 km/h (1 Bft)
01.01.2021 08:34 -0,5 C 0,0 C 95 % 1009,5 hPa 0,0 l/m 1,6 km/h (1 Bft) NW 315 0 min 0,0 UV-I 0 W/m -1,2 C -0,5 C 3,2 km/h (1 Bft)
01.01.2021 08:35 -0,5 C 0,0 C 95 % 1009,5 hPa 0,0 l/m 1,6 km/h (1 Bft) NW 315 0 min 0,0 UV-I 0 W/m -1,2 C -0,5 C 3,2 km/h (1 Bft)
01.01.2021 08:36 -0,5 C 0,0 C 95 % 1009,6 hPa 0,0 l/m 1,6 km/h (1 Bft) NW 315 0 min 0,0 UV-I 0 W/m -1,2 C -0,5 C 3,2 km/h (1 Bft)
01.01.2021 08:37 -0,5 C 0,0 C 95 % 1009,5 hPa 0,0 l/m 0,0 km/h (0 Bft) NW 315 0 min 0,0 UV-I 0 W/m -1,2 C -0,5 C 1,6 km/h (1 Bft)
01.01.2021 08:38 -0,6 C 0,0 C 95 % 1009,5 hPa 0,0 l/m 0,0 km/h (0 Bft) NW 315 0 min 0,0 UV-I 0 W/m -1,3 C -0,6 C 1,6 km/h (1 Bft)
01.01.2021 08:39 -0,5 C 0,0 C 95 % 1009,5 hPa 0,0 l/m 1,6 km/h (1 Bft) NW 315 0 min 0,0 UV-I 0 W/m -1,2 C -0,5 C 3,2 km/h (1 Bft)
01.01.2021 08:40 -0,5 C 0,0 C 95 % 1009,5 hPa 0,0 l/m 3,2 km/h (1 Bft) NW 315 0 min 0,0 UV-I 0 W/m -1,2 C -0,5 C 4,8 km/h (1 Bft)
01.01.2021 08:41 -0,5 C 0,0 C 95 % 1009,5 hPa 0,0 l/m 1,6 km/h (1 Bft) NW 315 0 min 0,0 UV-I 0 W/m -1,2 C -0,5 C 3,2 km/h (1 Bft)
01.01.2021 08:42 -0,5 C 0,0 C 95 % 1009,5 hPa 0,0 l/m 3,2 km/h (1 Bft) NW 315 0 min 0,0 UV-I 0 W/m -1,2 C -0,5 C 4,8 km/h (1 Bft)
01.01.2021 08:43 -0,5 C 0,0 C 95 % 1009,5 hPa 0,0 l/m 1,6 km/h (1 Bft) NW 315 0 min 0,0 UV-I 0 W/m -1,2 C -0,5 C 4,8 km/h (1 Bft)
01.01.2021 08:44 -0,5 C 0,0 C 95 % 1009,5 hPa 0,0 l/m 0,0 km/h (0 Bft) NW 315 0 min 0,0 UV-I 0 W/m -1,2 C -0,5 C 1,6 km/h (1 Bft)
01.01.2021 08:45 -0,5 C 0,0 C 95 % 1009,7 hPa 0,0 l/m 0,0 km/h (0 Bft) NW 315 0 min 0,0 UV-I 0 W/m -1,2 C -0,5 C 1,6 km/h (1 Bft)
01.01.2021 08:46 -0,5 C 0,0 C 95 % 1009,6 hPa 0,0 l/m 1,6 km/h (1 Bft) NW 315 0 min 0,0 UV-I 0 W/m -1,2 C -0,5 C 3,2 km/h (1 Bft)
01.01.2021 08:47 -0,5 C 0,0 C 95 % 1009,5 hPa 0,0 l/m 1,6 km/h (1 Bft) NW 315 0 min 0,0 UV-I 0 W/m -1,2 C -0,5 C 3,2 km/h (1 Bft)
01.01.2021 08:48 -0,5 C 0,0 C 95 % 1009,7 hPa 0,0 l/m 0,0 km/h (0 Bft) NW 315 0 min 0,0 UV-I 0 W/m -1,2 C -0,5 C 1,6 km/h (1 Bft)
01.01.2021 08:49 -0,5 C 0,0 C 95 % 1009,6 hPa 0,0 l/m 1,6 km/h (1 Bft) NW 315 0 min 0,0 UV-I 0 W/m -1,2 C -0,5 C 3,2 km/h (1 Bft)
01.01.2021 08:50 -0,5 C 0,0 C 95 % 1009,7 hPa 0,0 l/m 0,0 km/h (0 Bft) NW 315 0 min 0,0 UV-I 0 W/m -1,2 C -0,5 C 1,6 km/h (1 Bft)
01.01.2021 08:51 -0,5 C 0,0 C 95 % 1009,7 hPa 0,0 l/m 0,0 km/h (0 Bft) NW 315 0 min 0,0 UV-I 0 W/m -1,2 C -0,5 C 1,6 km/h (1 Bft)
01.01.2021 08:52 -0,5 C 0,0 C 95 % 1009,7 hPa 0,0 l/m 0,0 km/h (0 Bft) NW 315 0 min 0,0 UV-I 0 W/m -1,2 C -0,5 C 1,6 km/h (1 Bft)
01.01.2021 08:53 -0,5 C 0,0 C 95 % 1009,7 hPa 0,0 l/m 1,6 km/h (1 Bft) NW 315 0 min 0,0 UV-I 0 W/m -1,2 C -0,5 C 3,2 km/h (1 Bft)
01.01.2021 08:54 -0,5 C 0,0 C 95 % 1009,7 hPa 0,0 l/m 0,0 km/h (0 Bft) NW 315 0 min 0,0 UV-I 0 W/m -1,2 C -0,5 C 1,6 km/h (1 Bft)
01.01.2021 08:55 -0,5 C 0,0 C 95 % 1009,7 hPa 0,0 l/m 0,0 km/h (0 Bft) NW 315 0 min 0,0 UV-I 0 W/m -1,2 C -0,5 C 1,6 km/h (1 Bft)
01.01.2021 08:56 -0,5 C 0,0 C 95 % 1009,7 hPa 0,0 l/m 0,0 km/h (0 Bft) N 0 0 min 0,0 UV-I 0 W/m -1,2 C -0,5 C 0,0 km/h (0 Bft)
01.01.2021 08:57 -0,5 C 0,0 C 95 % 1009,7 hPa 0,0 l/m 0,0 km/h (0 Bft) NW 315 0 min 0,0 UV-I 0 W/m -1,2 C -0,5 C 1,6 km/h (1 Bft)
01.01.2021 08:58 -0,5 C 0,0 C 95 % 1009,7 hPa 0,0 l/m 0,0 km/h (0 Bft) NW 315 0 min 0,0 UV-I 0 W/m -1,2 C -0,5 C 1,6 km/h (1 Bft)
01.01.2021 08:59 -0,5 C 0,0 C 95 % 1009,7 hPa 0,0 l/m 1,6 km/h (1 Bft) NW 315 0 min 0,0 UV-I 0 W/m -1,2 C -0,5 C 1,6 km/h (1 Bft)
01.01.2021 09:00 -0,5 C 0,0 C 95 % 1009,8 hPa 0,0 l/m 0,0 km/h (0 Bft) NW 315 0 min 0,0 UV-I 0 W/m -1,2 C -0,5 C 1,6 km/h (1 Bft)
01.01.2021 09:01 -0,5 C 0,0 C 95 % 1009,7 hPa 0,0 l/m 1,6 km/h (1 Bft) NW 315 0 min 0,0 UV-I 0 W/m -1,2 C -0,5 C 1,6 km/h (1 Bft)
01.01.2021 09:02 -0,5 C 0,0 C 95 % 1009,7 hPa 0,0 l/m 0,0 km/h (0 Bft) NW 315 0 min 0,0 UV-I 0 W/m -1,2 C -0,5 C 1,6 km/h (1 Bft)
01.01.2021 09:03 -0,4 C 0,0 C 95 % 1009,8 hPa 0,0 l/m 1,6 km/h (1 Bft) NW 315 0 min 0,0 UV-I 0 W/m -1,1 C -0,4 C 3,2 km/h (1 Bft)
01.01.2021 09:04 -0,5 C 0,0 C 95 % 1009,8 hPa 0,0 l/m 1,6 km/h (1 Bft) NW 315 0 min 0,0 UV-I 0 W/m -1,2 C -0,5 C 4,8 km/h (1 Bft)
01.01.2021 09:05 -0,5 C 0,0 C 95 % 1009,8 hPa 0,0 l/m 0,0 km/h (0 Bft) NW 315 0 min 0,0 UV-I 0 W/m -1,2 C -0,5 C 1,6 km/h (1 Bft)
01.01.2021 09:06 -0,5 C 0,0 C 95 % 1009,8 hPa 0,0 l/m 1,6 km/h (1 Bft) NW 315 0 min 0,0 UV-I 0 W/m -1,2 C -0,5 C 3,2 km/h (1 Bft)
01.01.2021 09:07 -0,5 C 0,0 C 95 % 1009,8 hPa 0,0 l/m 1,6 km/h (1 Bft) NW 315 0 min 0,0 UV-I 0 W/m -1,2 C -0,5 C 3,2 km/h (1 Bft)
01.01.2021 09:08 -0,4 C 0,0 C 95 % 1009,7 hPa 0,0 l/m 1,6 km/h (1 Bft) NW 315 0 min 0,0 UV-I 0 W/m -1,1 C -0,4 C 3,2 km/h (1 Bft)
01.01.2021 09:09 -0,5 C 0,0 C 95 % 1009,9 hPa 0,0 l/m 1,6 km/h (1 Bft) NW 315 0 min 0,0 UV-I 0 W/m -1,2 C -0,5 C 3,2 km/h (1 Bft)
01.01.2021 09:10 -0,5 C 0,0 C 95 % 1009,9 hPa 0,0 l/m 3,2 km/h (1 Bft) NW 315 0 min 0,0 UV-I 0 W/m -1,2 C -0,5 C 4,8 km/h (1 Bft)
01.01.2021 09:11 -0,5 C 0,0 C 95 % 1009,8 hPa 0,0 l/m 1,6 km/h (1 Bft) NW 315 0 min 0,0 UV-I 0 W/m -1,2 C -0,5 C 3,2 km/h (1 Bft)
01.01.2021 09:12 -0,5 C 0,0 C 95 % 1009,9 hPa 0,0 l/m 1,6 km/h (1 Bft) NW 315 0 min 0,0 UV-I 0 W/m -1,2 C -0,5 C 3,2 km/h (1 Bft)
01.01.2021 09:13 -0,5 C 0,0 C 95 % 1009,8 hPa 0,0 l/m 1,6 km/h (1 Bft) NW 315 0 min 0,0 UV-I 0 W/m -1,2 C -0,5 C 1,6 km/h (1 Bft)
01.01.2021 09:14 -0,5 C 0,0 C 95 % 1009,8 hPa 0,0 l/m 0,0 km/h (0 Bft) NW 315 0 min 0,0 UV-I 0 W/m -1,2 C -0,5 C 1,6 km/h (1 Bft)
01.01.2021 09:15 -0,5 C 0,0 C 95 % 1010,0 hPa 0,0 l/m 1,6 km/h (1 Bft) NW 315 0 min 0,0 UV-I 0 W/m -1,2 C -0,5 C 3,2 km/h (1 Bft)
01.01.2021 09:16 -0,5 C 0,0 C 95 % 1009,8 hPa 0,0 l/m 0,0 km/h (0 Bft) N 0 0 min 0,0 UV-I 0 W/m -1,2 C -0,5 C 0,0 km/h (0 Bft)
01.01.2021 09:17 -0,5 C 0,0 C 95 % 1009,8 hPa 0,0 l/m 0,0 km/h (0 Bft) N 0 0 min 0,0 UV-I 0 W/m -1,2 C -0,5 C 0,0 km/h (0 Bft)
01.01.2021 09:18 -0,5 C 0,0 C 95 % 1010,0 hPa 0,0 l/m 0,0 km/h (0 Bft) N 0 0 min 0,0 UV-I 0 W/m -1,2 C -0,5 C 0,0 km/h (0 Bft)
01.01.2021 09:19 -0,5 C 0,0 C 95 % 1009,9 hPa 0,0 l/m 0,0 km/h (0 Bft) NW 315 0 min 0,0 UV-I 0 W/m -1,2 C -0,5 C 1,6 km/h (1 Bft)
01.01.2021 09:20 -0,5 C 0,0 C 95 % 1009,9 hPa 0,0 l/m 0,0 km/h (0 Bft) NW 315 0 min 0,0 UV-I 0 W/m -1,2 C -0,5 C 1,6 km/h (1 Bft)
01.01.2021 09:21 -0,5 C 0,0 C 95 % 1009,9 hPa 0,0 l/m 0,0 km/h (0 Bft) NW 315 0 min 0,0 UV-I 0 W/m -1,2 C -0,5 C 1,6 km/h (1 Bft)
01.01.2021 09:22 -0,5 C 0,0 C 95 % 1010,0 hPa 0,0 l/m 0,0 km/h (0 Bft) N 0 0 min 0,0 UV-I 5 W/m -1,2 C -0,5 C 0,0 km/h (0 Bft)
01.01.2021 09:23 -0,5 C 0,0 C 95 % 1010,0 hPa 0,0 l/m 0,0 km/h (0 Bft) NW 315 0 min 0,0 UV-I 5 W/m -1,2 C -0,5 C 1,6 km/h (1 Bft)
01.01.2021 09:24 -0,5 C 0,0 C 95 % 1009,9 hPa 0,0 l/m 0,0 km/h (0 Bft) NW 315 0 min 0,0 UV-I 5 W/m -1,2 C -0,5 C 1,6 km/h (1 Bft)
01.01.2021 09:25 -0,5 C 0,0 C 95 % 1009,9 hPa 0,0 l/m 0,0 km/h (0 Bft) N 0 0 min 0,0 UV-I 5 W/m -1,2 C -0,5 C 0,0 km/h (0 Bft)
01.01.2021 09:26 -0,4 C 0,0 C 95 % 1009,9 hPa 0,0 l/m 0,0 km/h (0 Bft) NW 315 0 min 0,0 UV-I 5 W/m -1,1 C -0,4 C 1,6 km/h (1 Bft)
01.01.2021 09:27 -0,4 C 0,0 C 95 % 1010,0 hPa 0,0 l/m 0,0 km/h (0 Bft) NW 315 0 min 0,0 UV-I 5 W/m -1,1 C -0,4 C 1,6 km/h (1 Bft)
01.01.2021 09:28 -0,4 C 0,0 C 95 % 1010,0 hPa 0,0 l/m 0,0 km/h (0 Bft) NW 315 0 min 0,0 UV-I 5 W/m -1,1 C -0,4 C 1,6 km/h (1 Bft)
01.01.2021 09:29 -0,5 C 0,0 C 95 % 1010,0 hPa 0,0 l/m 0,0 km/h (0 Bft) N 0 0 min 0,0 UV-I 5 W/m -1,2 C -0,5 C 0,0 km/h (0 Bft)
01.01.2021 09:30 -0,5 C 0,0 C 95 % 1010,0 hPa 0,0 l/m 0,0 km/h (0 Bft) NW 315 0 min 0,0 UV-I 5 W/m -1,2 C -0,5 C 1,6 km/h (1 Bft)
01.01.2021 09:31 -0,4 C 0,0 C 95 % 1010,0 hPa 0,0 l/m 0,0 km/h (0 Bft) NW 315 0 min 0,0 UV-I 5 W/m -1,1 C -0,4 C 1,6 km/h (1 Bft)
01.01.2021 09:32 -0,4 C 0,0 C 95 % 1010,1 hPa 0,0 l/m 0,0 km/h (0 Bft) NW 315 0 min 0,0 UV-I 5 W/m -1,1 C -0,4 C 1,6 km/h (1 Bft)
01.01.2021 09:33 -0,4 C 0,0 C 95 % 1010,0 hPa 0,0 l/m 0,0 km/h (0 Bft) NW 315 0 min 0,0 UV-I 5 W/m -1,1 C -0,4 C 1,6 km/h (1 Bft)
01.01.2021 09:34 -0,4 C 0,0 C 95 % 1010,1 hPa 0,0 l/m 0,0 km/h (0 Bft) N 0 0 min 0,0 UV-I 5 W/m -1,1 C -0,4 C 0,0 km/h (0 Bft)
01.01.2021 09:35 -0,4 C 0,0 C 95 % 1010,1 hPa 0,0 l/m 0,0 km/h (0 Bft) N 0 0 min 0,0 UV-I 5 W/m -1,1 C -0,4 C 0,0 km/h (0 Bft)
01.01.2021 09:36 -0,4 C 0,0 C 95 % 1010,1 hPa 0,0 l/m 0,0 km/h (0 Bft) N 0 0 min 0,0 UV-I 5 W/m -1,1 C -0,4 C 0,0 km/h (0 Bft)
01.01.2021 09:37 -0,4 C 0,0 C 95 % 1010,1 hPa 0,0 l/m 0,0 km/h (0 Bft) NW 315 0 min 0,0 UV-I 5 W/m -1,1 C -0,4 C 1,6 km/h (1 Bft)
01.01.2021 09:38 -0,4 C 0,0 C 95 % 1010,1 hPa 0,0 l/m 0,0 km/h (0 Bft) NW 315 0 min 0,0 UV-I 7 W/m -1,1 C -0,4 C 1,6 km/h (1 Bft)
01.01.2021 09:39 -0,4 C 0,0 C 95 % 1010,1 hPa 0,0 l/m 0,0 km/h (0 Bft) NW 315 0 min 0,0 UV-I 7 W/m -1,1 C -0,4 C 1,6 km/h (1 Bft)
01.01.2021 09:40 -0,4 C 0,0 C 95 % 1010,0 hPa 0,0 l/m 0,0 km/h (0 Bft) NW 315 0 min 0,0 UV-I 7 W/m -1,1 C -0,4 C 1,6 km/h (1 Bft)
01.01.2021 09:41 -0,4 C 0,0 C 95 % 1010,1 hPa 0,0 l/m 0,0 km/h (0 Bft) NW 315 0 min 0,0 UV-I 7 W/m -1,1 C -0,4 C 1,6 km/h (1 Bft)
01.01.2021 09:42 -0,4 C 0,0 C 95 % 1010,0 hPa 0,0 l/m 0,0 km/h (0 Bft) NW 315 0 min 0,0 UV-I 7 W/m -1,1 C -0,4 C 1,6 km/h (1 Bft)
01.01.2021 09:43 -0,4 C 0,0 C 95 % 1010,1 hPa 0,0 l/m 0,0 km/h (0 Bft) NW 315 0 min 0,0 UV-I 7 W/m -1,1 C -0,4 C 1,6 km/h (1 Bft)
01.01.2021 09:44 -0,4 C 0,0 C 95 % 1010,1 hPa 0,0 l/m 0,0 km/h (0 Bft) N 0 0 min 0,0 UV-I 7 W/m -1,1 C -0,4 C 0,0 km/h (0 Bft)
01.01.2021 09:45 -0,4 C 0,0 C 95 % 1010,2 hPa 0,0 l/m 0,0 km/h (0 Bft) NW 315 0 min 0,0 UV-I 7 W/m -1,1 C -0,4 C 1,6 km/h (1 Bft)
01.01.2021 09:46 -0,4 C 0,0 C 95 % 1010,1 hPa 0,0 l/m 1,6 km/h (1 Bft) NW 315 0 min 0,0 UV-I 9 W/m -1,1 C -0,4 C 1,6 km/h (1 Bft)
01.01.2021 09:47 -0,4 C 0,0 C 95 % 1010,1 hPa 0,0 l/m 0,0 km/h (0 Bft) N 0 0 min 0,0 UV-I 9 W/m -1,1 C -0,4 C 0,0 km/h (0 Bft)
01.01.2021 09:48 -0,4 C 0,0 C 95 % 1010,1 hPa 0,0 l/m 0,0 km/h (0 Bft) N 0 0 min 0,0 UV-I 9 W/m -1,1 C -0,4 C 0,0 km/h (0 Bft)
01.01.2021 09:49 -0,4 C 0,0 C 95 % 1010,1 hPa 0,0 l/m 0,0 km/h (0 Bft) N 0 0 min 0,0 UV-I 9 W/m -1,1 C -0,4 C 0,0 km/h (0 Bft)
01.01.2021 09:50 -0,4 C 0,0 C 95 % 1010,2 hPa 0,0 l/m 0,0 km/h (0 Bft) N 0 0 min 0,0 UV-I 9 W/m -1,1 C -0,4 C 0,0 km/h (0 Bft)
01.01.2021 09:51 -0,3 C 0,0 C 95 % 1010,1 hPa 0,0 l/m 0,0 km/h (0 Bft) N 0 0 min 0,0 UV-I 9 W/m -1,0 C -0,3 C 0,0 km/h (0 Bft)
01.01.2021 09:52 -0,3 C 0,0 C 95 % 1010,2 hPa 0,0 l/m 0,0 km/h (0 Bft) N 0 0 min 0,0 UV-I 9 W/m -1,0 C -0,3 C 0,0 km/h (0 Bft)
01.01.2021 09:53 -0,3 C 0,0 C 95 % 1010,1 hPa 0,0 l/m 0,0 km/h (0 Bft) NW 315 0 min 0,0 UV-I 9 W/m -1,0 C -0,3 C 1,6 km/h (1 Bft)
01.01.2021 09:54 -0,3 C 0,0 C 95 % 1010,2 hPa 0,0 l/m 0,0 km/h (0 Bft) N 0 0 min 0,0 UV-I 9 W/m -1,0 C -0,3 C 0,0 km/h (0 Bft)
01.01.2021 09:55 -0,4 C 0,0 C 95 % 1010,2 hPa 0,0 l/m 0,0 km/h (0 Bft) N 0 0 min 0,0 UV-I 7 W/m -1,1 C -0,4 C 0,0 km/h (0 Bft)
01.01.2021 09:56 -0,3 C 0,0 C 95 % 1010,2 hPa 0,0 l/m 0,0 km/h (0 Bft) N 0 0 min 0,0 UV-I 7 W/m -1,0 C -0,3 C 0,0 km/h (0 Bft)
01.01.2021 09:57 -0,3 C 0,0 C 95 % 1010,3 hPa 0,0 l/m 0,0 km/h (0 Bft) N 0 0 min 0,0 UV-I 7 W/m -1,0 C -0,3 C 0,0 km/h (0 Bft)
01.01.2021 09:58 -0,3 C 0,0 C 95 % 1010,2 hPa 0,0 l/m 0,0 km/h (0 Bft) N 0 0 min 0,0 UV-I 7 W/m -1,0 C -0,3 C 0,0 km/h (0 Bft)
01.01.2021 09:59 -0,3 C 0,0 C 95 % 1010,2 hPa 0,0 l/m 0,0 km/h (0 Bft) N 0 0 min 0,0 UV-I 7 W/m -1,0 C -0,3 C 0,0 km/h (0 Bft)
01.01.2021 10:00 -0,3 C 0,0 C 95 % 1010,2 hPa 0,0 l/m 0,0 km/h (0 Bft) N 0 0 min 0,0 UV-I 7 W/m -1,0 C -0,3 C 0,0 km/h (0 Bft)
01.01.2021 10:01 -0,3 C 0,0 C 95 % 1010,2 hPa 0,0 l/m 0,0 km/h (0 Bft) N 0 0 min 0,0 UV-I 7 W/m -1,0 C -0,3 C 0,0 km/h (0 Bft)
01.01.2021 10:02 -0,3 C 0,0 C 95 % 1010,3 hPa 0,0 l/m 0,0 km/h (0 Bft) N 0 0 min 0,0 UV-I 7 W/m -1,0 C -0,3 C 0,0 km/h (0 Bft)
01.01.2021 10:03 -0,3 C 0,0 C 95 % 1010,3 hPa 0,0 l/m 0,0 km/h (0 Bft) N 0 0 min 0,0 UV-I 7 W/m -1,0 C -0,3 C 0,0 km/h (0 Bft)
01.01.2021 10:04 -0,3 C 0,0 C 95 % 1010,3 hPa 0,0 l/m 0,0 km/h (0 Bft) N 0 0 min 0,0 UV-I 7 W/m -1,0 C -0,3 C 0,0 km/h (0 Bft)
01.01.2021 10:05 -0,3 C 0,0 C 95 % 1010,2 hPa 0,0 l/m 0,0 km/h (0 Bft) N 0 0 min 0,0 UV-I 7 W/m -1,0 C -0,3 C 0,0 km/h (0 Bft)
01.01.2021 10:06 -0,3 C 0,0 C 95 % 1010,2 hPa 0,0 l/m 0,0 km/h (0 Bft) N 0 0 min 0,0 UV-I 7 W/m -1,0 C -0,3 C 0,0 km/h (0 Bft)
01.01.2021 10:07 -0,3 C 0,0 C 95 % 1010,2 hPa 0,0 l/m 0,0 km/h (0 Bft) N 0 0 min 0,0 UV-I 7 W/m -1,0 C -0,3 C 0,0 km/h (0 Bft)
01.01.2021 10:08 -0,3 C 0,0 C 95 % 1010,3 hPa 0,0 l/m 0,0 km/h (0 Bft) N 0 0 min 0,0 UV-I 7 W/m -1,0 C -0,3 C 0,0 km/h (0 Bft)
01.01.2021 10:09 -0,3 C 0,0 C 95 % 1010,3 hPa 0,0 l/m 0,0 km/h (0 Bft) N 0 0 min 0,0 UV-I 7 W/m -1,0 C -0,3 C 0,0 km/h (0 Bft)
01.01.2021 10:10 -0,3 C 0,0 C 95 % 1010,3 hPa 0,0 l/m 0,0 km/h (0 Bft) N 0 0 min 0,0 UV-I 9 W/m -1,0 C -0,3 C 0,0 km/h (0 Bft)
01.01.2021 10:11 -0,3 C 0,0 C 95 % 1010,3 hPa 0,0 l/m 0,0 km/h (0 Bft) N 0 0 min 0,0 UV-I 11 W/m -1,0 C -0,3 C 0,0 km/h (0 Bft)
01.01.2021 10:12 -0,3 C 0,0 C 95 % 1010,3 hPa 0,0 l/m 0,0 km/h (0 Bft) N 0 0 min 0,0 UV-I 11 W/m -1,0 C -0,3 C 0,0 km/h (0 Bft)
01.01.2021 10:13 -0,3 C 0,0 C 95 % 1010,4 hPa 0,0 l/m 0,0 km/h (0 Bft) N 0 0 min 0,0 UV-I 11 W/m -1,0 C -0,3 C 0,0 km/h (0 Bft)
01.01.2021 10:14 -0,3 C 0,0 C 95 % 1010,3 hPa 0,0 l/m 0,0 km/h (0 Bft) N 0 0 min 0,0 UV-I 12 W/m -1,0 C -0,3 C 0,0 km/h (0 Bft)
01.01.2021 10:15 -0,2 C 0,0 C 95 % 1010,3 hPa 0,0 l/m 0,0 km/h (0 Bft) N 0 0 min 0,0 UV-I 12 W/m -0,9 C -0,2 C 0,0 km/h (0 Bft)
01.01.2021 10:16 -0,2 C 0,0 C 95 % 1010,3 hPa 0,0 l/m 0,0 km/h (0 Bft) N 0 0 min 0,0 UV-I 12 W/m -0,9 C -0,2 C 0,0 km/h (0 Bft)
01.01.2021 10:17 -0,2 C 0,0 C 95 % 1010,3 hPa 0,0 l/m 0,0 km/h (0 Bft) N 0 0 min 0,0 UV-I 12 W/m -0,9 C -0,2 C 0,0 km/h (0 Bft)
01.01.2021 10:18 -0,2 C 0,0 C 95 % 1010,3 hPa 0,0 l/m 0,0 km/h (0 Bft) N 0 0 min 0,0 UV-I 14 W/m -0,9 C -0,2 C 0,0 km/h (0 Bft)
01.01.2021 10:19 -0,2 C 0,0 C 95 % 1010,3 hPa 0,0 l/m 0,0 km/h (0 Bft) N 0 0 min 0,0 UV-I 14 W/m -0,9 C -0,2 C 0,0 km/h (0 Bft)
01.01.2021 10:20 -0,2 C 0,0 C 95 % 1010,4 hPa 0,0 l/m 0,0 km/h (0 Bft) N 0 0 min 0,0 UV-I 16 W/m -0,9 C -0,2 C 0,0 km/h (0 Bft)
01.01.2021 10:21 -0,2 C 0,0 C 95 % 1010,3 hPa 0,0 l/m 0,0 km/h (0 Bft) N 0 0 min 0,0 UV-I 16 W/m -0,9 C -0,2 C 0,0 km/h (0 Bft)
01.01.2021 10:22 -0,1 C 0,0 C 95 % 1010,3 hPa 0,0 l/m 0,0 km/h (0 Bft) N 0 0 min 0,0 UV-I 16 W/m -0,8 C -0,1 C 0,0 km/h (0 Bft)
01.01.2021 10:23 -0,1 C 0,0 C 95 % 1010,4 hPa 0,0 l/m 0,0 km/h (0 Bft) N 0 0 min 0,0 UV-I 16 W/m -0,8 C -0,1 C 0,0 km/h (0 Bft)
01.01.2021 10:24 -0,1 C 0,0 C 95 % 1010,4 hPa 0,0 l/m 0,0 km/h (0 Bft) N 0 0 min 0,0 UV-I 16 W/m -0,8 C -0,1 C 0,0 km/h (0 Bft)
01.01.2021 10:25 -0,1 C 0,0 C 95 % 1010,3 hPa 0,0 l/m 0,0 km/h (0 Bft) N 0 0 min 0,0 UV-I 16 W/m -0,8 C -0,1 C 0,0 km/h (0 Bft)
01.01.2021 10:26 -0,1 C 0,0 C 95 % 1010,4 hPa 0,0 l/m 0,0 km/h (0 Bft) N 0 0 min 0,0 UV-I 16 W/m -0,8 C -0,1 C 0,0 km/h (0 Bft)
01.01.2021 10:27 -0,1 C 0,0 C 95 % 1010,4 hPa 0,0 l/m 0,0 km/h (0 Bft) N 0 0 min 0,0 UV-I 16 W/m -0,8 C -0,1 C 0,0 km/h (0 Bft)
01.01.2021 10:28 -0,1 C 0,0 C 96 % 1010,4 hPa 0,0 l/m 0,0 km/h (0 Bft) N 0 0 min 0,0 UV-I 16 W/m -0,7 C -0,1 C 0,0 km/h (0 Bft)
01.01.2021 10:29 -0,1 C 0,0 C 96 % 1010,6 hPa 0,0 l/m 0,0 km/h (0 Bft) N 0 0 min 0,0 UV-I 16 W/m -0,7 C -0,1 C 0,0 km/h (0 Bft)
01.01.2021 10:32 0,0 C 0,0 C 95 % 1010,5 hPa 0,0 l/m 0,0 km/h (0 Bft) NW 322 0 min 0,0 UV-I 18 W/m -0,7 C 0,0 C 0,0 km/h (0 Bft)
01.01.2021 10:34 0,1 C 0,0 C 95 % 1010,5 hPa 0,0 l/m 0,0 km/h (0 Bft) NW 322 0 min 0,0 UV-I 18 W/m -0,6 C 0,1 C 0,0 km/h (0 Bft)
01.01.2021 10:36 0,1 C 0,0 C 95 % 1010,5 hPa 0,0 l/m 0,0 km/h (0 Bft) NW 322 0 min 0,0 UV-I 19 W/m -0,6 C 0,1 C 0,0 km/h (0 Bft)
01.01.2021 10:38 0,1 C 0,0 C 95 % 1010,5 hPa 0,0 l/m 0,0 km/h (0 Bft) NW 322 0 min 0,0 UV-I 19 W/m -0,6 C 0,1 C 0,0 km/h (0 Bft)
01.01.2021 10:40 0,1 C 0,0 C 95 % 1010,6 hPa 0,0 l/m 0,0 km/h (0 Bft) NW 322 0 min 0,0 UV-I 19 W/m -0,6 C 0,1 C 0,0 km/h (0 Bft)
01.01.2021 10:42 0,1 C 0,6 C 95 % 1010,6 hPa 0,0 l/m 0,0 km/h (0 Bft) NW 322 0 min 0,0 UV-I 19 W/m -0,6 C 0,1 C 0,0 km/h (0 Bft)
01.01.2021 10:44 0,2 C 0,0 C 95 % 1010,6 hPa 0,0 l/m 0,0 km/h (0 Bft) NW 322 0 min 0,0 UV-I 21 W/m -0,5 C 0,2 C 0,0 km/h (0 Bft)
01.01.2021 10:46 0,2 C 0,0 C 96 % 1010,6 hPa 0,0 l/m 0,0 km/h (0 Bft) NW 322 0 min 0,0 UV-I 21 W/m -0,4 C 0,2 C 0,0 km/h (0 Bft)
01.01.2021 10:48 0,3 C 0,0 C 96 % 1010,6 hPa 0,0 l/m 0,0 km/h (0 Bft) NW 322 0 min 0,0 UV-I 21 W/m -0,3 C 0,3 C 0,0 km/h (0 Bft)
01.01.2021 10:50 0,3 C 0,0 C 96 % 1010,6 hPa 0,0 l/m 0,0 km/h (0 Bft) NW 322 0 min 0,0 UV-I 21 W/m -0,3 C 0,3 C 0,0 km/h (0 Bft)
01.01.2021 10:52 0,3 C 0,0 C 96 % 1010,7 hPa 0,0 l/m 0,0 km/h (0 Bft) NW 322 0 min 0,0 UV-I 23 W/m -0,3 C 0,3 C 0,0 km/h (0 Bft)
01.01.2021 10:54 0,3 C 0,0 C 95 % 1010,7 hPa 0,0 l/m 0,0 km/h (0 Bft) NW 322 0 min 0,0 UV-I 23 W/m -0,4 C 0,3 C 0,0 km/h (0 Bft)
01.01.2021 10:56 0,3 C 0,6 C 96 % 1010,6 hPa 0,0 l/m 0,0 km/h (0 Bft) NW 322 0 min 0,0 UV-I 24 W/m -0,3 C 0,3 C 0,0 km/h (0 Bft)
01.01.2021 10:58 0,3 C 0,6 C 96 % 1010,7 hPa 0,0 l/m 0,2 km/h (0 Bft) NW 322 0 min 0,0 UV-I 25 W/m -0,3 C 0,3 C 1,6 km/h (1 Bft)
01.01.2021 11:00 0,3 C 0,6 C 95 % 1010,8 hPa 0,0 l/m 0,0 km/h (0 Bft) NW 322 0 min 0,0 UV-I 25 W/m -0,4 C 0,3 C 1,6 km/h (1 Bft)
01.01.2021 11:02 0,3 C 0,6 C 95 % 1010,8 hPa 0,0 l/m 0,0 km/h (0 Bft) NW 321 0 min 0,0 UV-I 25 W/m -0,4 C 0,3 C 0,0 km/h (0 Bft)
01.01.2021 11:04 0,4 C 0,0 C 95 % 1010,8 hPa 0,0 l/m 0,0 km/h (0 Bft) NW 322 0 min 0,0 UV-I 26 W/m -0,3 C 0,4 C 0,0 km/h (0 Bft)
01.01.2021 11:06 0,3 C 0,0 C 95 % 1010,8 hPa 0,0 l/m 0,0 km/h (0 Bft) NW 322 0 min 0,0 UV-I 26 W/m -0,4 C 0,3 C 0,0 km/h (0 Bft)
01.01.2021 11:08 0,4 C 0,0 C 95 % 1010,7 hPa 0,0 l/m 0,0 km/h (0 Bft) NW 322 0 min 0,0 UV-I 26 W/m -0,3 C 0,4 C 0,0 km/h (0 Bft)
01.01.2021 11:10 0,4 C 0,6 C 95 % 1010,8 hPa 0,0 l/m 0,0 km/h (0 Bft) NW 322 0 min 0,0 UV-I 28 W/m -0,3 C 0,4 C 0,0 km/h (0 Bft)
01.01.2021 11:12 0,4 C 0,0 C 95 % 1010,8 hPa 0,0 l/m 0,2 km/h (0 Bft) NW 321 0 min 0,0 UV-I 31 W/m -0,3 C 0,4 C 1,6 km/h (1 Bft)
01.01.2021 11:14 0,4 C 0,6 C 95 % 1010,8 hPa 0,0 l/m 0,0 km/h (0 Bft) NW 322 0 min 0,0 UV-I 33 W/m -0,3 C 0,4 C 0,0 km/h (0 Bft)
01.01.2021 11:16 0,5 C 0,6 C 95 % 1010,8 hPa 0,0 l/m 0,1 km/h (0 Bft) NW 322 0 min 0,0 UV-I 36 W/m -0,2 C 0,5 C 1,6 km/h (1 Bft)
01.01.2021 11:18 0,5 C 0,6 C 95 % 1010,8 hPa 0,0 l/m 1,4 km/h (1 Bft) NW 319 0 min 0,0 UV-I 41 W/m -0,2 C 0,5 C 3,2 km/h (1 Bft)
01.01.2021 11:20 0,6 C 0,6 C 95 % 1010,8 hPa 0,0 l/m 0,1 km/h (0 Bft) NW 319 0 min 0,0 UV-I 50 W/m -0,1 C 0,6 C 1,6 km/h (1 Bft)
01.01.2021 11:22 0,6 C 0,6 C 96 % 1010,8 hPa 0,0 l/m 0,0 km/h (0 Bft) NW 319 0 min 0,0 UV-I 57 W/m 0,0 C 0,6 C 0,0 km/h (0 Bft)
01.01.2021 11:24 0,6 C 0,6 C 95 % 1010,8 hPa 0,0 l/m 0,0 km/h (0 Bft) NW 319 0 min 0,0 UV-I 61 W/m -0,1 C 0,6 C 1,6 km/h (1 Bft)
01.01.2021 11:26 0,6 C 0,6 C 95 % 1010,8 hPa 0,0 l/m 0,0 km/h (0 Bft) NW 319 0 min 0,0 UV-I 64 W/m -0,1 C 0,6 C 0,0 km/h (0 Bft)
01.01.2021 11:28 0,7 C 0,6 C 95 % 1010,8 hPa 0,0 l/m 0,0 km/h (0 Bft) NW 319 0 min 0,0 UV-I 67 W/m -0,0 C 0,7 C 0,0 km/h (0 Bft)
01.01.2021 11:30 0,7 C 0,6 C 95 % 1010,9 hPa 0,0 l/m 0,0 km/h (0 Bft) NW 319 0 min 0,0 UV-I 69 W/m -0,0 C 0,7 C 0,0 km/h (0 Bft)
01.01.2021 11:32 0,7 C 0,0 C 95 % 1010,9 hPa 0,0 l/m 0,0 km/h (0 Bft) NW 319 0 min 0,0 UV-I 71 W/m -0,0 C 0,7 C 0,0 km/h (0 Bft)
01.01.2021 11:34 0,7 C 0,0 C 95 % 1010,8 hPa 0,0 l/m 0,2 km/h (0 Bft) NW 319 0 min 0,0 UV-I 72 W/m -0,0 C 0,7 C 1,6 km/h (1 Bft)
01.01.2021 11:36 0,7 C 0,6 C 95 % 1010,8 hPa 0,0 l/m 0,2 km/h (0 Bft) NW 319 0 min 0,0 UV-I 74 W/m -0,0 C 0,7 C 1,6 km/h (1 Bft)
01.01.2021 11:38 0,8 C 0,6 C 95 % 1010,8 hPa 0,0 l/m 0,8 km/h (0 Bft) NW 319 0 min 0,0 UV-I 75 W/m 0,1 C 0,8 C 1,6 km/h (1 Bft)
01.01.2021 11:40 0,7 C 0,6 C 95 % 1010,9 hPa 0,0 l/m 1,6 km/h (1 Bft) NW 319 0 min 0,0 UV-I 77 W/m -0,0 C 0,7 C 3,2 km/h (1 Bft)
01.01.2021 11:42 0,7 C 0,6 C 95 % 1010,8 hPa 0,0 l/m 1,6 km/h (1 Bft) NW 319 0 min 0,0 UV-I 79 W/m -0,0 C 0,7 C 3,2 km/h (1 Bft)
01.01.2021 11:44 0,7 C 0,6 C 95 % 1010,9 hPa 0,0 l/m 0,6 km/h (0 Bft) NW 319 0 min 0,0 UV-I 81 W/m -0,0 C 0,7 C 1,6 km/h (1 Bft)
01.01.2021 11:46 0,8 C 0,6 C 95 % 1010,9 hPa 0,0 l/m 0,5 km/h (0 Bft) NW 319 0 min 0,0 UV-I 79 W/m 0,1 C 0,8 C 1,6 km/h (1 Bft)
01.01.2021 11:48 0,8 C 0,6 C 95 % 1010,9 hPa 0,0 l/m 0,0 km/h (0 Bft) NW 319 0 min 0,0 UV-I 77 W/m 0,1 C 0,8 C 0,0 km/h (0 Bft)
01.01.2021 11:50 0,8 C 0,6 C 95 % 1011,0 hPa 0,0 l/m 0,0 km/h (0 Bft) NW 319 0 min 0,0 UV-I 80 W/m 0,1 C 0,8 C 0,0 km/h (0 Bft)
01.01.2021 11:52 0,9 C 0,6 C 95 % 1010,9 hPa 0,0 l/m 0,3 km/h (0 Bft) NW 319 0 min 0,0 UV-I 86 W/m 0,2 C 0,9 C 1,6 km/h (1 Bft)
01.01.2021 11:54 0,9 C 0,6 C 95 % 1010,9 hPa 0,0 l/m 0,2 km/h (0 Bft) NW 319 0 min 0,0 UV-I 90 W/m 0,2 C 0,9 C 1,6 km/h (1 Bft)
01.01.2021 11:56 0,9 C 0,6 C 95 % 1011,0 hPa 0,0 l/m 0,3 km/h (0 Bft) NW 319 0 min 0,0 UV-I 92 W/m 0,2 C 0,9 C 1,6 km/h (1 Bft)
01.01.2021 11:57 1,0 C 0,6 C 95 % 1010,9 hPa 0,0 l/m 0,0 km/h (0 Bft) N 0 0 min 0,0 UV-I 98 W/m 0,3 C 1,0 C 0,0 km/h (0 Bft)
01.01.2021 11:58 1,0 C 0,6 C 95 % 1010,9 hPa 0,0 l/m 0,0 km/h (0 Bft) NW 315 0 min 0,0 UV-I 100 W/m 0,3 C 1,0 C 1,6 km/h (1 Bft)
01.01.2021 11:59 1,0 C 0,6 C 95 % 1010,9 hPa 0,0 l/m 1,6 km/h (1 Bft) NW 315 0 min 0,0 UV-I 100 W/m 0,3 C 1,0 C 3,2 km/h (1 Bft)
01.01.2021 12:00 1,1 C 0,6 C 95 % 1010,9 hPa 0,0 l/m 0,0 km/h (0 Bft) NW 315 0 min 0,0 UV-I 100 W/m 0,4 C 1,1 C 1,6 km/h (1 Bft)
01.01.2021 12:02 1,1 C 0,6 C 95 % 1011,0 hPa 0,0 l/m 0,0 km/h (0 Bft) NW 319 0 min 0,0 UV-I 98 W/m 0,4 C 1,1 C 0,0 km/h (0 Bft)
01.01.2021 12:04 1,1 C 0,6 C 95 % 1010,9 hPa 0,0 l/m 0,4 km/h (0 Bft) NW 319 0 min 0,0 UV-I 97 W/m 0,4 C 1,1 C 1,6 km/h (1 Bft)
01.01.2021 12:06 1,1 C 0,6 C 95 % 1010,8 hPa 0,0 l/m 0,4 km/h (0 Bft) NW 319 0 min 0,0 UV-I 95 W/m 0,4 C 1,1 C 1,6 km/h (1 Bft)
01.01.2021 12:08 1,2 C 0,6 C 95 % 1010,9 hPa 0,0 l/m 1,0 km/h (0 Bft) NW 319 0 min 0,0 UV-I 93 W/m 0,5 C 1,2 C 3,2 km/h (1 Bft)
01.01.2021 12:10 1,2 C 0,6 C 95 % 1010,8 hPa 0,0 l/m 0,8 km/h (0 Bft) NW 319 0 min 0,0 UV-I 95 W/m 0,5 C 1,2 C 1,6 km/h (1 Bft)
01.01.2021 12:12 1,2 C 1,1 C 95 % 1010,8 hPa 0,0 l/m 1,0 km/h (0 Bft) NW 319 0 min 0,0 UV-I 100 W/m 0,5 C 1,2 C 3,2 km/h (1 Bft)
01.01.2021 12:14 1,2 C 1,1 C 95 % 1010,8 hPa 0,0 l/m 0,4 km/h (0 Bft) NW 319 0 min 0,0 UV-I 102 W/m 0,5 C 1,2 C 1,6 km/h (1 Bft)
01.01.2021 12:16 1,3 C 1,1 C 95 % 1010,9 hPa 0,0 l/m 0,7 km/h (0 Bft) NW 319 0 min 0,0 UV-I 104 W/m 0,6 C 1,3 C 1,6 km/h (1 Bft)
01.01.2021 12:18 1,3 C 1,1 C 95 % 1010,8 hPa 0,0 l/m 1,2 km/h (1 Bft) NW 319 0 min 0,0 UV-I 105 W/m 0,6 C 1,3 C 1,6 km/h (1 Bft)
01.01.2021 12:20 1,3 C 1,1 C 95 % 1010,9 hPa 0,0 l/m 0,6 km/h (0 Bft) NW 319 0 min 0,0 UV-I 105 W/m 0,6 C 1,3 C 1,6 km/h (1 Bft)
01.01.2021 12:22 1,4 C 1,1 C 94 % 1010,8 hPa 0,0 l/m 0,6 km/h (0 Bft) NW 319 0 min 0,0 UV-I 104 W/m 0,5 C 1,4 C 1,6 km/h (1 Bft)
01.01.2021 12:24 1,4 C 0,6 C 94 % 1010,8 hPa 0,0 l/m 0,5 km/h (0 Bft) NW 319 0 min 0,0 UV-I 104 W/m 0,5 C 1,4 C 3,2 km/h (1 Bft)
01.01.2021 12:26 1,4 C 1,1 C 94 % 1010,9 hPa 0,0 l/m 1,2 km/h (1 Bft) NW 319 0 min 0,0 UV-I 105 W/m 0,5 C 1,4 C 3,2 km/h (1 Bft)
01.01.2021 12:28 1,4 C 1,1 C 94 % 1010,8 hPa 0,0 l/m 0,9 km/h (0 Bft) NW 319 0 min 0,0 UV-I 104 W/m 0,5 C 1,4 C 3,2 km/h (1 Bft)
01.01.2021 12:30 1,4 C 1,1 C 94 % 1010,8 hPa 0,0 l/m 0,6 km/h (0 Bft) NW 319 0 min 0,0 UV-I 104 W/m 0,5 C 1,4 C 3,2 km/h (1 Bft)
01.01.2021 12:32 1,5 C 1,1 C 94 % 1010,8 hPa 0,0 l/m 0,0 km/h (0 Bft) NW 319 0 min 0,0 UV-I 104 W/m 0,6 C 1,5 C 1,6 km/h (1 Bft)
01.01.2021 12:34 1,6 C 1,1 C 94 % 1010,8 hPa 0,0 l/m 0,9 km/h (0 Bft) NW 319 0 min 0,0 UV-I 105 W/m 0,7 C 1,6 C 1,6 km/h (1 Bft)
01.01.2021 12:36 1,6 C 1,1 C 94 % 1010,8 hPa 0,0 l/m 1,2 km/h (1 Bft) NW 319 0 min 0,0 UV-I 107 W/m 0,7 C 1,6 C 3,2 km/h (1 Bft)
01.01.2021 12:38 1,6 C 1,1 C 94 % 1010,9 hPa 0,0 l/m 0,9 km/h (0 Bft) NW 319 0 min 0,0 UV-I 107 W/m 0,7 C 1,6 C 1,6 km/h (1 Bft)
01.01.2021 12:40 1,7 C 1,1 C 93 % 1010,9 hPa 0,0 l/m 1,6 km/h (1 Bft) NW 319 0 min 0,0 UV-I 109 W/m 0,7 C 1,7 C 3,2 km/h (1 Bft)
01.01.2021 12:42 1,7 C 1,1 C 93 % 1010,8 hPa 0,0 l/m 1,3 km/h (1 Bft) NW 319 0 min 0,0 UV-I 113 W/m 0,7 C 1,7 C 3,2 km/h (1 Bft)
01.01.2021 12:44 1,6 C 1,1 C 93 % 1010,8 hPa 0,0 l/m 2,1 km/h (1 Bft) NW 319 0 min 0,0 UV-I 117 W/m 0,6 C 1,6 C 3,2 km/h (1 Bft)
01.01.2021 12:46 1,6 C 1,1 C 93 % 1010,8 hPa 0,0 l/m 0,9 km/h (0 Bft) NW 319 0 min 0,0 UV-I 118 W/m 0,6 C 1,6 C 3,2 km/h (1 Bft)
01.01.2021 12:48 1,6 C 1,1 C 93 % 1010,8 hPa 0,0 l/m 0,7 km/h (0 Bft) NW 319 0 min 0,4 UV-I 118 W/m 0,6 C 1,6 C 1,6 km/h (1 Bft)
01.01.2021 12:50 1,7 C 1,1 C 93 % 1010,7 hPa 0,0 l/m 0,0 km/h (0 Bft) NW 319 0 min 0,5 UV-I 120 W/m 0,7 C 1,7 C 0,0 km/h (0 Bft)
01.01.2021 12:52 1,8 C 1,7 C 93 % 1010,7 hPa 0,0 l/m 0,9 km/h (0 Bft) NW 319 0 min 0,5 UV-I 121 W/m 0,8 C 1,8 C 3,2 km/h (1 Bft)
01.01.2021 12:54 1,8 C 1,7 C 92 % 1010,7 hPa 0,0 l/m 2,5 km/h (1 Bft) NW 319 0 min 0,5 UV-I 121 W/m 0,6 C 1,8 C 4,8 km/h (1 Bft)
01.01.2021 12:56 1,7 C 1,7 C 92 % 1010,7 hPa 0,0 l/m 2,6 km/h (1 Bft) NW 319 0 min 0,6 UV-I 120 W/m 0,5 C 1,7 C 4,8 km/h (1 Bft)
01.01.2021 12:58 1,7 C 1,7 C 92 % 1010,8 hPa 0,0 l/m 0,8 km/h (0 Bft) NW 319 0 min 0,6 UV-I 119 W/m 0,5 C 1,7 C 1,6 km/h (1 Bft)
01.01.2021 13:00 1,8 C 1,7 C 92 % 1010,7 hPa 0,0 l/m 1,0 km/h (0 Bft) NW 319 0 min 0,6 UV-I 118 W/m 0,6 C 1,8 C 3,2 km/h (1 Bft)
01.01.2021 13:02 1,8 C 1,7 C 92 % 1010,6 hPa 0,0 l/m 1,1 km/h (1 Bft) NW 319 0 min 0,7 UV-I 125 W/m 0,6 C 1,8 C 3,2 km/h (1 Bft)
01.01.2021 13:04 1,8 C 1,7 C 92 % 1010,7 hPa 0,0 l/m 0,1 km/h (0 Bft) NW 319 0 min 0,7 UV-I 128 W/m 0,6 C 1,8 C 1,6 km/h (1 Bft)
01.01.2021 13:06 1,9 C 1,7 C 92 % 1010,7 hPa 0,0 l/m 0,4 km/h (0 Bft) NW 319 0 min 0,7 UV-I 133 W/m 0,7 C 1,9 C 1,6 km/h (1 Bft)
01.01.2021 13:08 1,9 C 1,7 C 92 % 1010,7 hPa 0,0 l/m 0,2 km/h (0 Bft) NW 319 0 min 0,7 UV-I 135 W/m 0,7 C 1,9 C 1,6 km/h (1 Bft)
01.01.2021 13:10 2,0 C 1,7 C 91 % 1010,6 hPa 0,0 l/m 0,0 km/h (0 Bft) NW 319 0 min 0,7 UV-I 136 W/m 0,7 C 2,0 C 0,0 km/h (0 Bft)
01.01.2021 13:12 2,1 C 1,7 C 91 % 1010,6 hPa 0,0 l/m 0,0 km/h (0 Bft) NW 319 0 min 0,7 UV-I 136 W/m 0,8 C 2,1 C 1,6 km/h (1 Bft)
01.01.2021 13:13 2,2 C 1,7 C 91 % 1010,6 hPa 0,0 l/m 0,0 km/h (0 Bft) N 0 0 min 0,7 UV-I 139 W/m 0,9 C 2,2 C 0,0 km/h (0 Bft)
01.01.2021 13:14 2,2 C 1,7 C 91 % 1010,6 hPa 0,0 l/m 0,0 km/h (0 Bft) N 0 0 min 0,7 UV-I 135 W/m 0,9 C 2,2 C 0,0 km/h (0 Bft)
01.01.2021 13:15 2,2 C 1,7 C 90 % 1010,6 hPa 0,0 l/m 0,0 km/h (0 Bft) N 0 0 min 0,7 UV-I 130 W/m 0,7 C 2,2 C 0,0 km/h (0 Bft)
01.01.2021 13:16 2,3 C 1,7 C 90 % 1010,6 hPa 0,0 l/m 0,0 km/h (0 Bft) N 0 0 min 0,7 UV-I 125 W/m 0,8 C 2,3 C 0,0 km/h (0 Bft)
01.01.2021 13:17 2,3 C 1,7 C 90 % 1010,6 hPa 0,0 l/m 0,0 km/h (0 Bft) N 0 0 min 0,7 UV-I 125 W/m 0,8 C 2,3 C 0,0 km/h (0 Bft)
01.01.2021 13:18 2,3 C 1,7 C 89 % 1010,6 hPa 0,0 l/m 0,0 km/h (0 Bft) NW 315 0 min 0,7 UV-I 131 W/m 0,7 C 2,3 C 1,6 km/h (1 Bft)
01.01.2021 13:19 2,4 C 1,7 C 89 % 1010,7 hPa 0,0 l/m 0,0 km/h (0 Bft) NW 315 0 min 0,7 UV-I 137 W/m 0,8 C 2,4 C 1,6 km/h (1 Bft)
01.01.2021 13:20 2,4 C 1,7 C 89 % 1010,7 hPa 0,0 l/m 0,0 km/h (0 Bft) N 0 0 min 0,7 UV-I 142 W/m 0,8 C 2,4 C 0,0 km/h (0 Bft)
01.01.2021 13:21 2,4 C 1,7 C 89 % 1010,6 hPa 0,0 l/m 1,6 km/h (1 Bft) NW 315 0 min 0,7 UV-I 146 W/m 0,8 C 2,4 C 4,8 km/h (1 Bft)
01.01.2021 13:22 2,4 C 1,7 C 89 % 1010,6 hPa 0,0 l/m 3,2 km/h (1 Bft) NW 315 0 min 0,7 UV-I 142 W/m 0,8 C 2,4 C 4,8 km/h (1 Bft)
01.01.2021 13:23 2,4 C 1,7 C 89 % 1010,6 hPa 0,0 l/m 1,6 km/h (1 Bft) NW 315 0 min 0,7 UV-I 141 W/m 0,8 C 2,4 C 4,8 km/h (1 Bft)
01.01.2021 13:24 2,4 C 1,7 C 89 % 1010,6 hPa 0,0 l/m 1,6 km/h (1 Bft) NW 315 0 min 0,7 UV-I 137 W/m 0,8 C 2,4 C 3,2 km/h (1 Bft)
01.01.2021 13:25 2,4 C 1,7 C 89 % 1010,5 hPa 0,0 l/m 1,6 km/h (1 Bft) NW 315 0 min 0,7 UV-I 137 W/m 0,8 C 2,4 C 3,2 km/h (1 Bft)
01.01.2021 13:26 2,2 C 1,7 C 88 % 1010,6 hPa 0,0 l/m 1,6 km/h (1 Bft) NW 315 0 min 0,7 UV-I 139 W/m 0,4 C 2,2 C 4,8 km/h (1 Bft)
01.01.2021 13:27 1,8 C 1,7 C 87 % 1010,6 hPa 0,0 l/m 1,6 km/h (1 Bft) NW 315 0 min 0,7 UV-I 139 W/m -0,1 C 1,8 C 3,2 km/h (1 Bft)
01.01.2021 13:28 1,6 C 1,7 C 87 % 1010,6 hPa 0,0 l/m 1,6 km/h (1 Bft) NW 315 0 min 0,7 UV-I 139 W/m -0,3 C 1,6 C 3,2 km/h (1 Bft)
01.01.2021 13:29 1,3 C 1,7 C 88 % 1010,6 hPa 0,0 l/m 3,2 km/h (1 Bft) NW 315 0 min 0,7 UV-I 135 W/m -0,5 C 1,3 C 4,8 km/h (1 Bft)
01.01.2021 13:30 1,1 C 1,7 C 88 % 1010,7 hPa 0,0 l/m 3,2 km/h (1 Bft) NW 315 0 min 0,7 UV-I 134 W/m -0,7 C 1,1 C 4,8 km/h (1 Bft)
01.01.2021 13:31 0,9 C 1,7 C 88 % 1010,6 hPa 0,0 l/m 4,8 km/h (1 Bft) NW 315 0 min 0,7 UV-I 135 W/m -0,9 C 0,9 C 4,8 km/h (1 Bft)
01.01.2021 13:32 0,8 C 1,7 C 89 % 1010,7 hPa 0,0 l/m 3,2 km/h (1 Bft) NW 315 0 min 0,7 UV-I 141 W/m -0,8 C 0,8 C 3,2 km/h (1 Bft)
01.01.2021 13:33 0,8 C 1,1 C 89 % 1010,7 hPa 0,0 l/m 1,6 km/h (1 Bft) NW 315 0 min 0,7 UV-I 146 W/m -0,8 C 0,8 C 3,2 km/h (1 Bft)
01.01.2021 13:34 0,7 C 1,1 C 89 % 1010,7 hPa 0,0 l/m 0,0 km/h (0 Bft) NW 315 0 min 0,7 UV-I 151 W/m -0,9 C 0,7 C 1,6 km/h (1 Bft)
01.01.2021 13:35 0,6 C 1,1 C 90 % 1010,8 hPa 0,0 l/m 1,6 km/h (1 Bft) NW 315 0 min 0,7 UV-I 153 W/m -0,8 C 0,6 C 3,2 km/h (1 Bft)
01.01.2021 13:36 0,6 C 1,7 C 90 % 1010,6 hPa 0,0 l/m 1,6 km/h (1 Bft) NW 315 0 min 0,7 UV-I 149 W/m -0,8 C 0,6 C 3,2 km/h (1 Bft)
01.01.2021 13:37 0,6 C 1,7 C 90 % 1010,7 hPa 0,0 l/m 1,6 km/h (1 Bft) NW 315 0 min 0,7 UV-I 146 W/m -0,8 C 0,6 C 4,8 km/h (1 Bft)
01.01.2021 13:38 0,6 C 1,7 C 90 % 1010,7 hPa 0,0 l/m 6,4 km/h (2 Bft) W 270 0 min 0,7 UV-I 146 W/m -0,8 C 0,6 C 9,7 km/h (2 Bft)
01.01.2021 13:39 0,6 C 1,7 C 90 % 1010,7 hPa 0,0 l/m 3,2 km/h (1 Bft) W 270 0 min 0,7 UV-I 148 W/m -0,8 C 0,6 C 9,7 km/h (2 Bft)
01.01.2021 13:42 0,6 C 1,7 C 90 % 1010,7 hPa 0,0 l/m 1,4 km/h (1 Bft) W 262 0 min 0,7 UV-I 149 W/m -0,8 C 0,6 C 3,2 km/h (1 Bft)
01.01.2021 13:44 0,6 C 1,7 C 90 % 1010,6 hPa 0,0 l/m 1,8 km/h (1 Bft) W 262 0 min 0,7 UV-I 152 W/m -0,8 C 0,6 C 3,2 km/h (1 Bft)
01.01.2021 13:46 0,6 C 1,7 C 90 % 1010,6 hPa 0,0 l/m 3,7 km/h (1 Bft) W 262 0 min 0,7 UV-I 146 W/m -0,8 C 0,6 C 6,4 km/h (2 Bft)
01.01.2021 13:48 0,6 C 1,7 C 90 % 1010,7 hPa 0,0 l/m 1,1 km/h (1 Bft) W 262 0 min 0,7 UV-I 140 W/m -0,8 C 0,6 C 3,2 km/h (1 Bft)
01.01.2021 13:50 0,6 C 1,7 C 90 % 1010,7 hPa 0,0 l/m 0,3 km/h (0 Bft) W 262 0 min 0,6 UV-I 137 W/m -0,8 C 0,6 C 1,6 km/h (1 Bft)
01.01.2021 13:52 0,6 C 1,7 C 91 % 1010,6 hPa 0,0 l/m 0,7 km/h (0 Bft) W 262 0 min 0,6 UV-I 134 W/m -0,7 C 0,6 C 3,2 km/h (1 Bft)
01.01.2021 13:54 0,6 C 1,7 C 90 % 1010,7 hPa 0,0 l/m 1,5 km/h (1 Bft) W 262 0 min 0,6 UV-I 131 W/m -0,8 C 0,6 C 3,2 km/h (1 Bft)
01.01.2021 13:56 0,5 C 1,7 C 90 % 1010,7 hPa 0,0 l/m 1,8 km/h (1 Bft) W 262 0 min 0,6 UV-I 126 W/m -0,9 C 0,5 C 3,2 km/h (1 Bft)
01.01.2021 13:58 0,5 C 1,7 C 90 % 1010,8 hPa 0,0 l/m 0,9 km/h (0 Bft) W 262 0 min 0,6 UV-I 117 W/m -0,9 C 0,5 C 3,2 km/h (1 Bft)
01.01.2021 14:00 0,4 C 1,7 C 91 % 1010,7 hPa 0,0 l/m 2,3 km/h (1 Bft) W 262 0 min 0,6 UV-I 106 W/m -0,9 C 0,4 C 4,8 km/h (1 Bft)
01.01.2021 14:02 0,4 C 1,7 C 91 % 1010,8 hPa 0,0 l/m 0,0 km/h (0 Bft) W 262 0 min 0,6 UV-I 101 W/m -0,9 C 0,4 C 0,0 km/h (0 Bft)
01.01.2021 14:04 0,4 C 1,7 C 91 % 1010,8 hPa 0,0 l/m 0,1 km/h (0 Bft) W 262 0 min 0,6 UV-I 102 W/m -0,9 C 0,4 C 1,6 km/h (1 Bft)
01.01.2021 14:06 0,4 C 1,1 C 91 % 1010,9 hPa 0,0 l/m 0,1 km/h (0 Bft) W 262 0 min 0,5 UV-I 105 W/m -0,9 C 0,4 C 1,6 km/h (1 Bft)
01.01.2021 14:08 0,4 C 1,1 C 91 % 1010,8 hPa 0,0 l/m 1,6 km/h (1 Bft) W 262 0 min 0,5 UV-I 105 W/m -0,9 C 0,4 C 3,2 km/h (1 Bft)
01.01.2021 14:10 0,4 C 1,1 C 91 % 1010,9 hPa 0,0 l/m 2,0 km/h (1 Bft) W 262 0 min 0,5 UV-I 106 W/m -0,9 C 0,4 C 3,2 km/h (1 Bft)
01.01.2021 14:12 0,4 C 1,1 C 91 % 1010,8 hPa 0,0 l/m 1,3 km/h (1 Bft) W 262 0 min 0,5 UV-I 104 W/m -0,9 C 0,4 C 3,2 km/h (1 Bft)
01.01.2021 14:14 0,4 C 1,1 C 91 % 1010,8 hPa 0,0 l/m 2,1 km/h (1 Bft) W 262 0 min 0,5 UV-I 104 W/m -0,9 C 0,4 C 4,8 km/h (1 Bft)
01.01.2021 14:16 0,4 C 1,1 C 91 % 1010,9 hPa 0,0 l/m 0,9 km/h (0 Bft) W 262 0 min 0,5 UV-I 100 W/m -0,9 C 0,4 C 3,2 km/h (1 Bft)
01.01.2021 14:18 0,5 C 1,1 C 91 % 1010,9 hPa 0,0 l/m 2,1 km/h (1 Bft) W 262 0 min 0,5 UV-I 103 W/m -0,8 C 0,5 C 3,2 km/h (1 Bft)
01.01.2021 14:20 0,5 C 1,1 C 91 % 1010,9 hPa 0,0 l/m 2,2 km/h (1 Bft) W 262 0 min 0,5 UV-I 104 W/m -0,8 C 0,5 C 4,8 km/h (1 Bft)
01.01.2021 14:22 0,4 C 1,1 C 91 % 1010,9 hPa 0,0 l/m 0,5 km/h (0 Bft) W 262 0 min 0,5 UV-I 99 W/m -0,9 C 0,4 C 1,6 km/h (1 Bft)
01.01.2021 14:24 0,4 C 1,1 C 91 % 1010,9 hPa 0,0 l/m 1,8 km/h (1 Bft) W 262 0 min 0,1 UV-I 94 W/m -0,9 C 0,4 C 3,2 km/h (1 Bft)
01.01.2021 14:26 0,4 C 1,1 C 91 % 1010,9 hPa 0,0 l/m 4,3 km/h (1 Bft) W 268 0 min 0,0 UV-I 92 W/m -0,9 C 0,4 C 9,7 km/h (2 Bft)
01.01.2021 14:28 0,4 C 1,1 C 91 % 1010,9 hPa 0,0 l/m 2,4 km/h (1 Bft) W 268 0 min 0,0 UV-I 91 W/m -0,9 C 0,4 C 4,8 km/h (1 Bft)
01.01.2021 14:30 0,4 C 1,1 C 91 % 1010,9 hPa 0,0 l/m 0,7 km/h (0 Bft) W 268 0 min 0,0 UV-I 93 W/m -0,9 C 0,4 C 3,2 km/h (1 Bft)
01.01.2021 14:32 0,5 C 1,1 C 91 % 1010,8 hPa 0,0 l/m 1,7 km/h (1 Bft) W 268 0 min 0,0 UV-I 93 W/m -0,8 C 0,5 C 4,8 km/h (1 Bft)
01.01.2021 14:34 0,4 C 1,1 C 91 % 1010,9 hPa 0,0 l/m 2,8 km/h (1 Bft) W 268 0 min 0,0 UV-I 91 W/m -0,9 C 0,4 C 4,8 km/h (1 Bft)
01.01.2021 14:36 0,4 C 1,1 C 90 % 1011,0 hPa 0,0 l/m 1,9 km/h (1 Bft) W 268 0 min 0,0 UV-I 91 W/m -1,0 C 0,4 C 3,2 km/h (1 Bft)
01.01.2021 14:38 0,4 C 1,1 C 90 % 1010,9 hPa 0,0 l/m 2,7 km/h (1 Bft) W 268 0 min 0,0 UV-I 91 W/m -1,0 C 0,4 C 4,8 km/h (1 Bft)
01.01.2021 14:40 0,4 C 1,1 C 90 % 1011,0 hPa 0,0 l/m 1,6 km/h (1 Bft) W 268 0 min 0,0 UV-I 91 W/m -1,0 C 0,4 C 3,2 km/h (1 Bft)
01.01.2021 14:42 0,3 C 1,1 C 90 % 1010,9 hPa 0,0 l/m 1,7 km/h (1 Bft) W 268 0 min 0,0 UV-I 91 W/m -1,1 C 0,3 C 3,2 km/h (1 Bft)
01.01.2021 14:44 0,3 C 1,1 C 90 % 1010,9 hPa 0,0 l/m 2,4 km/h (1 Bft) W 268 0 min 0,0 UV-I 90 W/m -1,1 C 0,3 C 4,8 km/h (1 Bft)
01.01.2021 14:46 0,3 C 1,1 C 91 % 1011,0 hPa 0,0 l/m 0,4 km/h (0 Bft) W 268 0 min 0,0 UV-I 88 W/m -1,0 C 0,3 C 1,6 km/h (1 Bft)
01.01.2021 14:48 0,3 C 1,1 C 90 % 1011,0 hPa 0,0 l/m 0,4 km/h (0 Bft) W 268 0 min 0,0 UV-I 83 W/m -1,1 C 0,3 C 1,6 km/h (1 Bft)
01.01.2021 14:50 0,3 C 1,1 C 90 % 1011,0 hPa 0,0 l/m 0,0 km/h (0 Bft) W 268 0 min 0,0 UV-I 82 W/m -1,1 C 0,3 C 1,6 km/h (1 Bft)
01.01.2021 14:52 0,3 C 1,1 C 90 % 1011,0 hPa 0,0 l/m 0,6 km/h (0 Bft) W 268 0 min 0,0 UV-I 81 W/m -1,1 C 0,3 C 3,2 km/h (1 Bft)
01.01.2021 14:54 0,3 C 1,1 C 90 % 1011,1 hPa 0,0 l/m 1,3 km/h (1 Bft) W 268 0 min 0,0 UV-I 79 W/m -1,1 C 0,3 C 3,2 km/h (1 Bft)
01.01.2021 14:56 0,3 C 1,1 C 90 % 1011,2 hPa 0,0 l/m 0,3 km/h (0 Bft) W 268 0 min 0,0 UV-I 77 W/m -1,1 C 0,3 C 1,6 km/h (1 Bft)
01.01.2021 14:58 0,3 C 0,6 C 90 % 1011,1 hPa 0,0 l/m 0,0 km/h (0 Bft) W 268 0 min 0,0 UV-I 75 W/m -1,1 C 0,3 C 0,0 km/h (0 Bft)
01.01.2021 15:00 0,3 C 0,6 C 90 % 1011,2 hPa 0,0 l/m 0,2 km/h (0 Bft) W 268 0 min 0,0 UV-I 75 W/m -1,1 C 0,3 C 1,6 km/h (1 Bft)
01.01.2021 15:02 0,3 C 1,1 C 90 % 1011,1 hPa 0,0 l/m 0,4 km/h (0 Bft) W 268 0 min 0,0 UV-I 76 W/m -1,1 C 0,3 C 1,6 km/h (1 Bft)
01.01.2021 15:04 0,2 C 0,6 C 91 % 1011,2 hPa 0,0 l/m 0,7 km/h (0 Bft) W 268 0 min 0,0 UV-I 76 W/m -1,1 C 0,2 C 3,2 km/h (1 Bft)
01.01.2021 15:06 0,2 C 0,6 C 91 % 1011,2 hPa 0,0 l/m 1,8 km/h (1 Bft) W 268 0 min 0,0 UV-I 75 W/m -1,1 C 0,2 C 3,2 km/h (1 Bft)
01.01.2021 15:08 0,2 C 0,6 C 90 % 1011,2 hPa 0,0 l/m 2,7 km/h (1 Bft) W 268 0 min 0,0 UV-I 70 W/m -1,2 C 0,2 C 4,8 km/h (1 Bft)
01.01.2021 15:10 0,2 C 0,6 C 90 % 1011,2 hPa 0,0 l/m 3,2 km/h (1 Bft) W 268 0 min 0,0 UV-I 64 W/m -1,2 C 0,2 C 4,8 km/h (1 Bft)
01.01.2021 15:12 0,1 C 0,6 C 91 % 1011,2 hPa 0,0 l/m 2,6 km/h (1 Bft) W 268 0 min 0,0 UV-I 57 W/m -1,2 C 0,1 C 3,2 km/h (1 Bft)
01.01.2021 15:14 0,1 C 0,0 C 91 % 1011,2 hPa 0,0 l/m 2,8 km/h (1 Bft) W 268 0 min 0,0 UV-I 54 W/m -1,2 C 0,1 C 4,8 km/h (1 Bft)
01.01.2021 15:16 0,1 C 0,0 C 91 % 1011,3 hPa 0,0 l/m 3,6 km/h (1 Bft) W 267 0 min 0,0 UV-I 54 W/m -1,2 C 0,1 C 9,7 km/h (2 Bft)
01.01.2021 15:18 0,1 C 0,0 C 91 % 1011,2 hPa 0,0 l/m 3,3 km/h (1 Bft) W 267 0 min 0,0 UV-I 55 W/m -1,2 C 0,1 C 4,8 km/h (1 Bft)
01.01.2021 15:20 0,1 C 0,0 C 91 % 1011,2 hPa 0,0 l/m 3,2 km/h (1 Bft) W 267 0 min 0,0 UV-I 53 W/m -1,2 C 0,1 C 4,8 km/h (1 Bft)
01.01.2021 15:22 0,0 C 0,0 C 91 % 1011,3 hPa 0,0 l/m 2,1 km/h (1 Bft) W 267 0 min 0,0 UV-I 51 W/m -1,3 C 0,0 C 3,2 km/h (1 Bft)
01.01.2021 15:24 0,0 C 0,0 C 91 % 1011,2 hPa 0,0 l/m 3,2 km/h (1 Bft) W 267 0 min 0,0 UV-I 48 W/m -1,3 C 0,0 C 4,8 km/h (1 Bft)
01.01.2021 15:26 -0,1 C 0,0 C 91 % 1011,3 hPa 0,0 l/m 1,6 km/h (1 Bft) W 267 0 min 0,0 UV-I 45 W/m -1,4 C -0,1 C 4,8 km/h (1 Bft)
01.01.2021 15:28 -0,1 C -0,6 C 91 % 1011,3 hPa 0,0 l/m 3,8 km/h (1 Bft) W 259 0 min 0,0 UV-I 42 W/m -1,4 C -0,1 C 9,7 km/h (2 Bft)
01.01.2021 15:30 -0,2 C -0,6 C 91 % 1011,3 hPa 0,0 l/m 3,1 km/h (1 Bft) W 259 0 min 0,0 UV-I 40 W/m -1,5 C -0,2 C 6,4 km/h (2 Bft)
01.01.2021 15:32 -0,3 C -0,6 C 91 % 1011,4 hPa 0,0 l/m 1,7 km/h (1 Bft) W 259 0 min 0,0 UV-I 38 W/m -1,6 C -0,3 C 3,2 km/h (1 Bft)
01.01.2021 15:34 -0,3 C -0,6 C 91 % 1011,4 hPa 0,0 l/m 1,3 km/h (1 Bft) W 259 0 min 0,0 UV-I 35 W/m -1,6 C -0,3 C 3,2 km/h (1 Bft)
01.01.2021 15:36 -0,4 C -1,1 C 91 % 1011,4 hPa 0,0 l/m 2,3 km/h (1 Bft) W 259 0 min 0,0 UV-I 33 W/m -1,7 C -0,4 C 3,2 km/h (1 Bft)
01.01.2021 15:38 -0,4 C -1,1 C 91 % 1011,3 hPa 0,0 l/m 1,5 km/h (1 Bft) W 259 0 min 0,0 UV-I 35 W/m -1,7 C -0,4 C 3,2 km/h (1 Bft)
01.01.2021 15:40 -0,5 C -1,1 C 91 % 1011,4 hPa 0,0 l/m 2,6 km/h (1 Bft) W 259 0 min 0,0 UV-I 40 W/m -1,8 C -0,5 C 3,2 km/h (1 Bft)
01.01.2021 15:42 -0,6 C -1,1 C 91 % 1011,4 hPa 0,0 l/m 1,9 km/h (1 Bft) W 259 0 min 0,0 UV-I 42 W/m -1,9 C -0,6 C 3,2 km/h (1 Bft)
01.01.2021 15:44 -0,6 C -1,7 C 92 % 1011,4 hPa 0,0 l/m 1,4 km/h (1 Bft) W 259 0 min 0,0 UV-I 44 W/m -1,7 C -0,6 C 3,2 km/h (1 Bft)
01.01.2021 15:46 -0,6 C -1,7 C 92 % 1011,4 hPa 0,0 l/m 2,0 km/h (1 Bft) W 259 0 min 0,0 UV-I 42 W/m -1,7 C -0,6 C 3,2 km/h (1 Bft)
01.01.2021 15:48 -0,7 C -1,7 C 92 % 1011,5 hPa 0,0 l/m 1,4 km/h (1 Bft) W 259 0 min 0,0 UV-I 40 W/m -1,8 C -0,7 C 3,2 km/h (1 Bft)
01.01.2021 15:50 -0,7 C -1,7 C 92 % 1011,5 hPa 0,0 l/m 2,2 km/h (1 Bft) W 259 0 min 0,0 UV-I 38 W/m -1,8 C -0,7 C 3,2 km/h (1 Bft)
01.01.2021 15:52 -0,7 C -1,7 C 92 % 1011,5 hPa 0,0 l/m 0,5 km/h (0 Bft) W 259 0 min 0,0 UV-I 31 W/m -1,8 C -0,7 C 3,2 km/h (1 Bft)
01.01.2021 15:54 -0,8 C -1,7 C 92 % 1011,6 hPa 0,0 l/m 0,5 km/h (0 Bft) W 259 0 min 0,0 UV-I 26 W/m -1,9 C -0,8 C 1,6 km/h (1 Bft)
01.01.2021 15:56 -0,8 C -1,7 C 92 % 1011,6 hPa 0,0 l/m 0,4 km/h (0 Bft) W 259 0 min 0,0 UV-I 22 W/m -1,9 C -0,8 C 1,6 km/h (1 Bft)
01.01.2021 15:58 -0,8 C -1,7 C 92 % 1011,6 hPa 0,0 l/m 0,0 km/h (0 Bft) W 259 0 min 0,0 UV-I 21 W/m -1,9 C -0,8 C 1,6 km/h (1 Bft)
01.01.2021 16:00 -0,8 C -1,7 C 92 % 1011,6 hPa 0,0 l/m 0,0 km/h (0 Bft) W 259 0 min 0,0 UV-I 20 W/m -1,9 C -0,8 C 0,0 km/h (0 Bft)
01.01.2021 16:02 -0,9 C -1,7 C 92 % 1011,6 hPa 0,0 l/m 0,0 km/h (0 Bft) W 259 0 min 0,0 UV-I 18 W/m -2,0 C -0,9 C 0,0 km/h (0 Bft)
01.01.2021 16:04 -1,1 C -2,2 C 92 % 1011,6 hPa 0,0 l/m 0,8 km/h (0 Bft) W 259 0 min 0,0 UV-I 16 W/m -2,2 C -1,1 C 1,6 km/h (1 Bft)
01.01.2021 16:06 -1,2 C -2,2 C 92 % 1011,6 hPa 0,0 l/m 2,2 km/h (1 Bft) W 259 0 min 0,0 UV-I 14 W/m -2,3 C -1,2 C 3,2 km/h (1 Bft)
01.01.2021 16:08 -1,2 C -2,2 C 92 % 1011,7 hPa 0,0 l/m 2,2 km/h (1 Bft) W 259 0 min 0,0 UV-I 14 W/m -2,3 C -1,2 C 3,2 km/h (1 Bft)
01.01.2021 16:10 -1,3 C -2,2 C 92 % 1011,6 hPa 0,0 l/m 2,1 km/h (1 Bft) S-SO 165 0 min 0,0 UV-I 14 W/m -2,4 C -1,3 C 3,2 km/h (1 Bft)
01.01.2021 16:12 -1,4 C -2,8 C 92 % 1011,7 hPa 0,0 l/m 1,3 km/h (1 Bft) S-SO 165 0 min 0,0 UV-I 13 W/m -2,5 C -1,4 C 3,2 km/h (1 Bft)
01.01.2021 16:14 -1,4 C -2,8 C 92 % 1011,7 hPa 0,0 l/m 0,2 km/h (0 Bft) S-SO 167 0 min 0,0 UV-I 12 W/m -2,5 C -1,4 C 1,6 km/h (1 Bft)
01.01.2021 16:16 -1,4 C -2,8 C 92 % 1011,7 hPa 0,0 l/m 0,9 km/h (0 Bft) S-SW 197 0 min 0,0 UV-I 11 W/m -2,5 C -1,4 C 1,6 km/h (1 Bft)
01.01.2021 16:18 -1,4 C -2,8 C 92 % 1011,7 hPa 0,0 l/m 1,4 km/h (1 Bft) S-SW 197 0 min 0,0 UV-I 10 W/m -2,5 C -1,4 C 3,2 km/h (1 Bft)
01.01.2021 16:20 -1,4 C -3,3 C 93 % 1011,8 hPa 0,0 l/m 1,9 km/h (1 Bft) S-SW 197 0 min 0,0 UV-I 11 W/m -2,4 C -1,4 C 3,2 km/h (1 Bft)
01.01.2021 16:22 -1,4 C -3,3 C 93 % 1011,8 hPa 0,0 l/m 1,2 km/h (1 Bft) S-SW 197 0 min 0,0 UV-I 10 W/m -2,4 C -1,4 C 1,6 km/h (1 Bft)
01.01.2021 16:24 -1,4 C -3,3 C 92 % 1011,8 hPa 0,0 l/m 0,9 km/h (0 Bft) S-SW 197 0 min 0,0 UV-I 9 W/m -2,5 C -1,4 C 1,6 km/h (1 Bft)
01.01.2021 16:26 -1,4 C -3,9 C 92 % 1011,9 hPa 0,0 l/m 1,7 km/h (1 Bft) S-SW 197 0 min 0,0 UV-I 7 W/m -2,5 C -1,4 C 3,2 km/h (1 Bft)
01.01.2021 16:28 -1,4 C -3,9 C 92 % 1011,8 hPa 0,0 l/m 2,8 km/h (1 Bft) S-SW 197 0 min 0,0 UV-I 7 W/m -2,5 C -1,4 C 4,8 km/h (1 Bft)
01.01.2021 16:30 -1,5 C -3,9 C 92 % 1011,8 hPa 0,0 l/m 2,6 km/h (1 Bft) S-SW 197 0 min 0,0 UV-I 7 W/m -2,6 C -1,5 C 3,2 km/h (1 Bft)
01.01.2021 16:32 -1,6 C -3,9 C 92 % 1011,9 hPa 0,0 l/m 3,1 km/h (1 Bft) S-SW 197 0 min 0,0 UV-I 7 W/m -2,7 C -1,6 C 4,8 km/h (1 Bft)
01.01.2021 16:34 -1,6 C -3,9 C 92 % 1011,8 hPa 0,0 l/m 3,8 km/h (1 Bft) S-SW 197 0 min 0,0 UV-I 6 W/m -2,7 C -1,6 C 4,8 km/h (1 Bft)
01.01.2021 16:36 -1,7 C -3,9 C 92 % 1012,0 hPa 0,0 l/m 3,9 km/h (1 Bft) S-SW 197 0 min 0,0 UV-I 5 W/m -2,8 C -1,7 C 4,8 km/h (1 Bft)
01.01.2021 16:38 -1,8 C -3,9 C 92 % 1012,0 hPa 0,0 l/m 3,8 km/h (1 Bft) SW 225 0 min 0,0 UV-I 5 W/m -2,9 C -1,8 C 4,8 km/h (1 Bft)
01.01.2021 16:40 -1,8 C -3,9 C 92 % 1012,0 hPa 0,0 l/m 3,9 km/h (1 Bft) SW 225 0 min 0,0 UV-I 4 W/m -2,9 C -1,8 C 4,8 km/h (1 Bft)
01.01.2021 16:42 -1,9 C -3,9 C 92 % 1012,0 hPa 0,0 l/m 4,7 km/h (1 Bft) SW 230 0 min 0,0 UV-I 0 W/m -3,0 C -1,9 C 6,4 km/h (2 Bft)
01.01.2021 16:44 -1,9 C -3,9 C 92 % 1012,0 hPa 0,0 l/m 3,9 km/h (1 Bft) SW 230 0 min 0,0 UV-I 0 W/m -3,0 C -1,9 C 4,8 km/h (1 Bft)
01.01.2021 16:46 -2,0 C -3,9 C 92 % 1012,0 hPa 0,0 l/m 2,9 km/h (1 Bft) SW 230 0 min 0,0 UV-I 0 W/m -3,1 C -2,0 C 4,8 km/h (1 Bft)
01.01.2021 16:48 -2,1 C -4,4 C 91 % 1012,0 hPa 0,0 l/m 3,5 km/h (1 Bft) SW 230 0 min 0,0 UV-I 0 W/m -3,4 C -2,1 C 4,8 km/h (1 Bft)
01.01.2021 16:50 -2,2 C -4,4 C 91 % 1012,1 hPa 0,0 l/m 4,1 km/h (1 Bft) SW 230 0 min 0,0 UV-I 0 W/m -3,5 C -2,2 C 4,8 km/h (1 Bft)
01.01.2021 16:52 -2,2 C -4,4 C 91 % 1012,1 hPa 0,0 l/m 4,2 km/h (1 Bft) SW 230 0 min 0,0 UV-I 0 W/m -3,5 C -2,2 C 4,8 km/h (1 Bft)
01.01.2021 16:54 -2,3 C -4,4 C 92 % 1012,1 hPa 0,0 l/m 4,2 km/h (1 Bft) SW 230 0 min 0,0 UV-I 0 W/m -3,4 C -2,3 C 4,8 km/h (1 Bft)
01.01.2021 16:56 -2,3 C -4,4 C 92 % 1012,1 hPa 0,0 l/m 3,0 km/h (1 Bft) SW 230 0 min 0,0 UV-I 0 W/m -3,4 C -2,3 C 4,8 km/h (1 Bft)
01.01.2021 16:58 -2,3 C -4,4 C 92 % 1012,2 hPa 0,0 l/m 3,2 km/h (1 Bft) SW 230 0 min 0,0 UV-I 0 W/m -3,4 C -2,3 C 3,2 km/h (1 Bft)
01.01.2021 17:00 -2,4 C -5,0 C 91 % 1012,1 hPa 0,0 l/m 3,5 km/h (1 Bft) SW 230 0 min 0,0 UV-I 0 W/m -3,7 C -2,4 C 4,8 km/h (1 Bft)
01.01.2021 17:02 -2,4 C -5,0 C 91 % 1012,2 hPa 0,0 l/m 2,5 km/h (1 Bft) SW 230 0 min 0,0 UV-I 0 W/m -3,7 C -2,4 C 3,2 km/h (1 Bft)
01.01.2021 17:04 -2,6 C -5,0 C 91 % 1012,2 hPa 0,0 l/m 2,7 km/h (1 Bft) SW 230 0 min 0,0 UV-I 0 W/m -3,9 C -2,6 C 3,2 km/h (1 Bft)
01.01.2021 17:06 -2,7 C -5,6 C 91 % 1012,1 hPa 0,0 l/m 3,5 km/h (1 Bft) SW 230 0 min 0,0 UV-I 0 W/m -4,0 C -2,7 C 4,8 km/h (1 Bft)
01.01.2021 17:08 -2,8 C -5,6 C 91 % 1012,2 hPa 0,0 l/m 3,8 km/h (1 Bft) SW 230 0 min 0,0 UV-I 0 W/m -4,1 C -2,8 C 4,8 km/h (1 Bft)
01.01.2021 17:10 -2,8 C -5,6 C 91 % 1012,2 hPa 0,0 l/m 3,4 km/h (1 Bft) SW 230 0 min 0,0 UV-I 0 W/m -4,1 C -2,8 C 4,8 km/h (1 Bft)
01.01.2021 17:12 -2,9 C -5,6 C 91 % 1012,2 hPa 0,0 l/m 2,3 km/h (1 Bft) SW 230 0 min 0,0 UV-I 0 W/m -4,2 C -2,9 C 3,2 km/h (1 Bft)
01.01.2021 17:14 -2,9 C -5,6 C 91 % 1012,2 hPa 0,0 l/m 1,6 km/h (1 Bft) SW 230 0 min 0,0 UV-I 0 W/m -4,2 C -2,9 C 3,2 km/h (1 Bft)
01.01.2021 17:16 -3,1 C -6,1 C 91 % 1012,2 hPa 0,0 l/m 2,0 km/h (1 Bft) SW 230 0 min 0,0 UV-I 0 W/m -4,4 C -3,1 C 3,2 km/h (1 Bft)
01.01.2021 17:18 -3,1 C -6,1 C 91 % 1012,2 hPa 0,0 l/m 2,4 km/h (1 Bft) SW 230 0 min 0,0 UV-I 0 W/m -4,4 C -3,1 C 4,8 km/h (1 Bft)
01.01.2021 17:20 -3,2 C -6,1 C 91 % 1012,2 hPa 0,0 l/m 3,3 km/h (1 Bft) SW 230 0 min 0,0 UV-I 0 W/m -4,5 C -3,2 C 4,8 km/h (1 Bft)
01.01.2021 17:22 -3,3 C -6,1 C 91 % 1012,2 hPa 0,0 l/m 3,2 km/h (1 Bft) SW 230 0 min 0,0 UV-I 0 W/m -4,6 C -3,3 C 4,8 km/h (1 Bft)
01.01.2021 17:24 -3,3 C -6,1 C 91 % 1012,3 hPa 0,0 l/m 1,8 km/h (1 Bft) SW 230 0 min 0,0 UV-I 0 W/m -4,6 C -3,3 C 3,2 km/h (1 Bft)
01.01.2021 17:26 -3,4 C -6,1 C 91 % 1012,3 hPa 0,0 l/m 1,5 km/h (1 Bft) SW 230 0 min 0,0 UV-I 0 W/m -4,7 C -3,4 C 3,2 km/h (1 Bft)
01.01.2021 17:28 -3,5 C -6,7 C 91 % 1012,3 hPa 0,0 l/m 1,8 km/h (1 Bft) SW 230 0 min 0,0 UV-I 0 W/m -4,8 C -3,5 C 3,2 km/h (1 Bft)
01.01.2021 17:30 -3,6 C -6,1 C 91 % 1012,2 hPa 0,0 l/m 1,9 km/h (1 Bft) SW 230 0 min 0,0 UV-I 0 W/m -4,8 C -3,6 C 3,2 km/h (1 Bft)
01.01.2021 17:32 -3,7 C -6,1 C 91 % 1012,3 hPa 0,0 l/m 2,4 km/h (1 Bft) SW 230 0 min 0,0 UV-I 0 W/m -4,9 C -3,7 C 3,2 km/h (1 Bft)
01.01.2021 17:34 -3,7 C -6,1 C 91 % 1012,2 hPa 0,0 l/m 2,9 km/h (1 Bft) SW 230 0 min 0,0 UV-I 0 W/m -4,9 C -3,7 C 4,8 km/h (1 Bft)
01.01.2021 17:36 -3,7 C -6,1 C 91 % 1012,2 hPa 0,0 l/m 3,4 km/h (1 Bft) SW 230 0 min 0,0 UV-I 0 W/m -4,9 C -3,7 C 4,8 km/h (1 Bft)
01.01.2021 17:38 -3,8 C -6,1 C 91 % 1012,3 hPa 0,0 l/m 2,6 km/h (1 Bft) SW 230 0 min 0,0 UV-I 0 W/m -5,0 C -3,8 C 3,2 km/h (1 Bft)
01.01.2021 17:40 -3,8 C -6,1 C 91 % 1012,3 hPa 0,0 l/m 1,8 km/h (1 Bft) SW 230 0 min 0,0 UV-I 0 W/m -5,0 C -3,8 C 3,2 km/h (1 Bft)
01.01.2021 17:42 -3,9 C -6,1 C 91 % 1012,3 hPa 0,0 l/m 2,0 km/h (1 Bft) SW 230 0 min 0,0 UV-I 0 W/m -5,1 C -3,9 C 3,2 km/h (1 Bft)
01.01.2021 17:44 -3,9 C -6,7 C 91 % 1012,3 hPa 0,0 l/m 1,6 km/h (1 Bft) SW 230 0 min 0,0 UV-I 0 W/m -5,1 C -3,9 C 3,2 km/h (1 Bft)
01.01.2021 17:46 -3,9 C -6,7 C 91 % 1012,3 hPa 0,0 l/m 1,3 km/h (1 Bft) SW 230 0 min 0,0 UV-I 0 W/m -5,1 C -3,9 C 1,6 km/h (1 Bft)
01.01.2021 17:48 -4,1 C -6,7 C 91 % 1012,3 hPa 0,0 l/m 2,4 km/h (1 Bft) SW 230 0 min 0,0 UV-I 0 W/m -5,3 C -4,1 C 3,2 km/h (1 Bft)
01.01.2021 17:50 -4,1 C -6,7 C 91 % 1012,2 hPa 0,0 l/m 3,2 km/h (1 Bft) SW 230 0 min 0,0 UV-I 0 W/m -5,3 C -4,1 C 4,8 km/h (1 Bft)
01.01.2021 17:52 -4,2 C -6,7 C 91 % 1012,2 hPa 0,0 l/m 3,1 km/h (1 Bft) SW 230 0 min 0,0 UV-I 0 W/m -5,4 C -4,2 C 4,8 km/h (1 Bft)
01.01.2021 17:54 -4,3 C -6,7 C 91 % 1012,3 hPa 0,0 l/m 3,3 km/h (1 Bft) SW 230 0 min 0,0 UV-I 0 W/m -5,5 C -4,3 C 4,8 km/h (1 Bft)
01.01.2021 17:56 -4,3 C -6,7 C 91 % 1012,3 hPa 0,0 l/m 3,4 km/h (1 Bft) SW 230 0 min 0,0 UV-I 0 W/m -5,5 C -4,3 C 4,8 km/h (1 Bft)
01.01.2021 17:58 -4,4 C -6,1 C 91 % 1012,3 hPa 0,0 l/m 3,2 km/h (1 Bft) SW 230 0 min 0,0 UV-I 0 W/m -5,6 C -4,4 C 4,8 km/h (1 Bft)
01.01.2021 18:00 -4,4 C -6,1 C 92 % 1012,3 hPa 0,0 l/m 2,7 km/h (1 Bft) SW 230 0 min 0,0 UV-I 0 W/m -5,5 C -4,4 C 3,2 km/h (1 Bft)
01.01.2021 18:02 -4,4 C -6,1 C 92 % 1012,3 hPa 0,0 l/m 2,7 km/h (1 Bft) SW 230 0 min 0,0 UV-I 0 W/m -5,5 C -4,4 C 4,8 km/h (1 Bft)
01.01.2021 18:04 -4,4 C -6,1 C 92 % 1012,3 hPa 0,0 l/m 2,7 km/h (1 Bft) SW 230 0 min 0,0 UV-I 0 W/m -5,5 C -4,4 C 3,2 km/h (1 Bft)
01.01.2021 18:06 -4,5 C -6,1 C 92 % 1012,4 hPa 0,0 l/m 2,9 km/h (1 Bft) SW 230 0 min 0,0 UV-I 0 W/m -5,6 C -4,5 C 3,2 km/h (1 Bft)
01.01.2021 18:08 -4,5 C -6,1 C 92 % 1012,4 hPa 0,0 l/m 1,1 km/h (1 Bft) SW 230 0 min 0,0 UV-I 0 W/m -5,6 C -4,5 C 3,2 km/h (1 Bft)
01.01.2021 18:10 -4,5 C -6,1 C 92 % 1012,4 hPa 0,0 l/m 0,8 km/h (0 Bft) SW 230 0 min 0,0 UV-I 0 W/m -5,6 C -4,5 C 1,6 km/h (1 Bft)
01.01.2021 18:12 -4,5 C -6,7 C 92 % 1012,5 hPa 0,0 l/m 1,4 km/h (1 Bft) SW 230 0 min 0,0 UV-I 0 W/m -5,6 C -4,5 C 3,2 km/h (1 Bft)
01.01.2021 18:14 -4,6 C -6,7 C 92 % 1012,4 hPa 0,0 l/m 1,0 km/h (0 Bft) SW 230 0 min 0,0 UV-I 0 W/m -5,7 C -4,6 C 1,6 km/h (1 Bft)
01.01.2021 18:16 -4,6 C -7,2 C 92 % 1012,4 hPa 0,0 l/m 1,3 km/h (1 Bft) SW 230 0 min 0,0 UV-I 0 W/m -5,7 C -4,6 C 1,6 km/h (1 Bft)
01.01.2021 18:18 -4,6 C -7,2 C 92 % 1012,5 hPa 0,0 l/m 1,5 km/h (1 Bft) SW 230 0 min 0,0 UV-I 0 W/m -5,7 C -4,6 C 1,6 km/h (1 Bft)
01.01.2021 18:20 -4,7 C -7,2 C 92 % 1012,5 hPa 0,0 l/m 1,0 km/h (0 Bft) SW 230 0 min 0,0 UV-I 0 W/m -5,8 C -4,7 C 3,2 km/h (1 Bft)
01.01.2021 18:22 -4,7 C -7,2 C 92 % 1012,5 hPa 0,0 l/m 1,2 km/h (1 Bft) SW 230 0 min 0,0 UV-I 0 W/m -5,8 C -4,7 C 3,2 km/h (1 Bft)
01.01.2021 18:24 -4,7 C -7,2 C 92 % 1012,6 hPa 0,0 l/m 0,8 km/h (0 Bft) SW 230 0 min 0,0 UV-I 0 W/m -5,8 C -4,7 C 3,2 km/h (1 Bft)
01.01.2021 18:26 -4,7 C -7,2 C 92 % 1012,4 hPa 0,0 l/m 0,3 km/h (0 Bft) SW 230 0 min 0,0 UV-I 0 W/m -5,8 C -4,7 C 1,6 km/h (1 Bft)
01.01.2021 18:28 -4,8 C -7,2 C 92 % 1012,6 hPa 0,0 l/m 0,0 km/h (0 Bft) SW 230 0 min 0,0 UV-I 0 W/m -5,9 C -4,8 C 1,6 km/h (1 Bft)
01.01.2021 18:30 -4,8 C -7,8 C 92 % 1012,5 hPa 0,0 l/m 0,0 km/h (0 Bft) SW 230 0 min 0,0 UV-I 0 W/m -5,9 C -4,8 C 1,6 km/h (1 Bft)
01.01.2021 18:32 -4,8 C -7,8 C 92 % 1012,5 hPa 0,0 l/m 0,7 km/h (0 Bft) SW 230 0 min 0,0 UV-I 0 W/m -5,9 C -4,8 C 1,6 km/h (1 Bft)
01.01.2021 18:34 -4,9 C -8,3 C 92 % 1012,6 hPa 0,0 l/m 0,0 km/h (0 Bft) SW 230 0 min 0,0 UV-I 0 W/m -6,0 C -4,9 C 1,6 km/h (1 Bft)
01.01.2021 18:36 -4,9 C -8,3 C 92 % 1012,5 hPa 0,0 l/m 0,0 km/h (0 Bft) SW 230 0 min 0,0 UV-I 0 W/m -6,0 C -4,9 C 0,0 km/h (0 Bft)
01.01.2021 18:38 -5,1 C -8,3 C 92 % 1012,5 hPa 0,0 l/m 0,0 km/h (0 Bft) SW 230 0 min 0,0 UV-I 0 W/m -6,2 C -5,1 C 0,0 km/h (0 Bft)
01.01.2021 18:40 -5,1 C -8,3 C 92 % 1012,6 hPa 0,0 l/m 0,0 km/h (0 Bft) SW 230 0 min 0,0 UV-I 0 W/m -6,2 C -5,1 C 0,0 km/h (0 Bft)
01.01.2021 18:42 -5,2 C -8,3 C 92 % 1012,7 hPa 0,0 l/m 0,0 km/h (0 Bft) SW 230 0 min 0,0 UV-I 0 W/m -6,3 C -5,2 C 0,0 km/h (0 Bft)
01.01.2021 18:44 -5,3 C -8,3 C 92 % 1012,6 hPa 0,0 l/m 0,0 km/h (0 Bft) SW 230 0 min 0,0 UV-I 0 W/m -6,4 C -5,3 C 0,0 km/h (0 Bft)
01.01.2021 18:46 -5,4 C -8,3 C 92 % 1012,6 hPa 0,0 l/m 1,9 km/h (1 Bft) SW 230 0 min 0,0 UV-I 0 W/m -6,5 C -5,4 C 3,2 km/h (1 Bft)
01.01.2021 18:48 -5,5 C -8,3 C 91 % 1012,7 hPa 0,0 l/m 3,5 km/h (1 Bft) SW 230 0 min 0,0 UV-I 0 W/m -6,7 C -5,5 C 4,8 km/h (1 Bft)
01.01.2021 18:50 -5,7 C -8,3 C 91 % 1012,8 hPa 0,0 l/m 3,2 km/h (1 Bft) SW 230 0 min 0,0 UV-I 0 W/m -6,9 C -5,7 C 4,8 km/h (1 Bft)
01.01.2021 18:52 -5,8 C -8,3 C 91 % 1012,8 hPa 0,0 l/m 1,8 km/h (1 Bft) SW 230 0 min 0,0 UV-I 0 W/m -7,0 C -5,8 C 3,2 km/h (1 Bft)
01.01.2021 18:54 -5,8 C -7,8 C 91 % 1012,7 hPa 0,0 l/m 1,7 km/h (1 Bft) SW 230 0 min 0,0 UV-I 0 W/m -7,0 C -5,8 C 3,2 km/h (1 Bft)
01.01.2021 18:56 -5,9 C -8,3 C 91 % 1012,7 hPa 0,0 l/m 3,0 km/h (1 Bft) SW 230 0 min 0,0 UV-I 0 W/m -7,1 C -5,9 C 4,8 km/h (1 Bft)
01.01.2021 18:58 -5,9 C -8,3 C 91 % 1012,8 hPa 0,0 l/m 3,7 km/h (1 Bft) SW 230 0 min 0,0 UV-I 0 W/m -7,1 C -5,9 C 6,4 km/h (2 Bft)
01.01.2021 19:00 -6,1 C -7,8 C 91 % 1012,9 hPa 0,0 l/m 5,3 km/h (1 Bft) SW 231 0 min 0,0 UV-I 0 W/m -7,3 C -6,1 C 6,4 km/h (2 Bft)
01.01.2021 19:02 -6,1 C -6,7 C 91 % 1012,9 hPa 0,0 l/m 3,4 km/h (1 Bft) SW 232 0 min 0,0 UV-I 0 W/m -7,3 C -6,1 C 4,8 km/h (1 Bft)
01.01.2021 19:04 -6,1 C -6,7 C 92 % 1012,8 hPa 0,0 l/m 2,6 km/h (1 Bft) SW 231 0 min 0,0 UV-I 0 W/m -7,2 C -6,1 C 4,8 km/h (1 Bft)
01.01.2021 19:06 -6,1 C -6,1 C 92 % 1013,0 hPa 0,0 l/m 1,5 km/h (1 Bft) SW 231 0 min 0,0 UV-I 0 W/m -7,2 C -6,1 C 3,2 km/h (1 Bft)
01.01.2021 19:08 -6,1 C -6,1 C 92 % 1012,9 hPa 0,0 l/m 2,9 km/h (1 Bft) SW 231 0 min 0,0 UV-I 0 W/m -7,2 C -6,1 C 4,8 km/h (1 Bft)
01.01.2021 19:10 -6,1 C -5,6 C 92 % 1012,9 hPa 0,0 l/m 1,4 km/h (1 Bft) SW 231 0 min 0,0 UV-I 0 W/m -7,2 C -6,1 C 3,2 km/h (1 Bft)
01.01.2021 19:12 -5,9 C -5,6 C 92 % 1013,0 hPa 0,0 l/m 0,3 km/h (0 Bft) SW 231 0 min 0,0 UV-I 0 W/m -7,0 C -5,9 C 1,6 km/h (1 Bft)
01.01.2021 19:14 -6,0 C -5,6 C 92 % 1013,0 hPa 0,0 l/m 0,0 km/h (0 Bft) SW 231 0 min 0,0 UV-I 0 W/m -7,1 C -6,0 C 0,0 km/h (0 Bft)
01.01.2021 19:16 -5,9 C -5,6 C 92 % 1013,0 hPa 0,0 l/m 0,0 km/h (0 Bft) SW 231 0 min 0,0 UV-I 0 W/m -7,0 C -5,9 C 0,0 km/h (0 Bft)
01.01.2021 19:18 -5,9 C -5,6 C 92 % 1013,0 hPa 0,0 l/m 0,0 km/h (0 Bft) SW 231 0 min 0,0 UV-I 0 W/m -7,0 C -5,9 C 0,0 km/h (0 Bft)
01.01.2021 19:20 -5,9 C -5,0 C 93 % 1013,0 hPa 0,0 l/m 0,1 km/h (0 Bft) SW 231 0 min 0,0 UV-I 0 W/m -6,8 C -5,9 C 1,6 km/h (1 Bft)
01.01.2021 19:22 -5,9 C -5,0 C 93 % 1013,0 hPa 0,0 l/m 0,0 km/h (0 Bft) SW 231 0 min 0,0 UV-I 0 W/m -6,8 C -5,9 C 1,6 km/h (1 Bft)
01.01.2021 19:24 -5,9 C -5,0 C 93 % 1013,0 hPa 0,0 l/m 0,1 km/h (0 Bft) SW 231 0 min 0,0 UV-I 0 W/m -6,8 C -5,9 C 1,6 km/h (1 Bft)
01.01.2021 19:26 -5,8 C -5,0 C 93 % 1013,0 hPa 0,0 l/m 1,1 km/h (1 Bft) SW 231 0 min 0,0 UV-I 0 W/m -6,7 C -5,8 C 3,2 km/h (1 Bft)
01.01.2021 19:28 -5,8 C -5,0 C 93 % 1013,0 hPa 0,0 l/m 0,6 km/h (0 Bft) SW 231 0 min 0,0 UV-I 0 W/m -6,7 C -5,8 C 1,6 km/h (1 Bft)
01.01.2021 19:30 -5,8 C -5,0 C 93 % 1013,0 hPa 0,0 l/m 0,9 km/h (0 Bft) SW 231 0 min 0,0 UV-I 0 W/m -6,7 C -5,8 C 3,2 km/h (1 Bft)
01.01.2021 19:32 -5,8 C -5,0 C 93 % 1013,0 hPa 0,0 l/m 1,2 km/h (1 Bft) SW 231 0 min 0,0 UV-I 0 W/m -6,7 C -5,8 C 3,2 km/h (1 Bft)
01.01.2021 19:34 -5,7 C -5,0 C 93 % 1013,1 hPa 0,0 l/m 0,7 km/h (0 Bft) SW 231 0 min 0,0 UV-I 0 W/m -6,6 C -5,7 C 1,6 km/h (1 Bft)
01.01.2021 19:36 -5,7 C -5,6 C 93 % 1013,1 hPa 0,0 l/m 0,0 km/h (0 Bft) SW 231 0 min 0,0 UV-I 0 W/m -6,6 C -5,7 C 0,0 km/h (0 Bft)
01.01.2021 19:38 -5,7 C -5,0 C 93 % 1013,0 hPa 0,0 l/m 0,0 km/h (0 Bft) SW 231 0 min 0,0 UV-I 0 W/m -6,6 C -5,7 C 0,0 km/h (0 Bft)
01.01.2021 19:40 -5,6 C -5,0 C 93 % 1013,1 hPa 0,0 l/m 0,4 km/h (0 Bft) SW 231 0 min 0,0 UV-I 0 W/m -6,5 C -5,6 C 1,6 km/h (1 Bft)
01.01.2021 19:42 -5,6 C -5,0 C 93 % 1013,1 hPa 0,0 l/m 0,5 km/h (0 Bft) SW 231 0 min 0,0 UV-I 0 W/m -6,5 C -5,6 C 1,6 km/h (1 Bft)
01.01.2021 19:44 -5,5 C -5,0 C 93 % 1013,1 hPa 0,0 l/m 0,0 km/h (0 Bft) SW 231 0 min 0,0 UV-I 0 W/m -6,4 C -5,5 C 1,6 km/h (1 Bft)
01.01.2021 19:46 -5,4 C -5,0 C 93 % 1013,1 hPa 0,0 l/m 0,0 km/h (0 Bft) SW 231 0 min 0,0 UV-I 0 W/m -6,3 C -5,4 C 0,0 km/h (0 Bft)
01.01.2021 19:48 -5,4 C -5,0 C 93 % 1013,2 hPa 0,0 l/m 0,0 km/h (0 Bft) SW 231 0 min 0,0 UV-I 0 W/m -6,3 C -5,4 C 0,0 km/h (0 Bft)
01.01.2021 19:50 -5,4 C -5,0 C 93 % 1013,2 hPa 0,0 l/m 0,3 km/h (0 Bft) SW 231 0 min 0,0 UV-I 0 W/m -6,3 C -5,4 C 1,6 km/h (1 Bft)
01.01.2021 19:52 -5,4 C -5,0 C 93 % 1013,3 hPa 0,0 l/m 0,2 km/h (0 Bft) SW 231 0 min 0,0 UV-I 0 W/m -6,3 C -5,4 C 1,6 km/h (1 Bft)
01.01.2021 19:54 -5,4 C -5,0 C 93 % 1013,3 hPa 0,0 l/m 0,0 km/h (0 Bft) SW 231 0 min 0,0 UV-I 0 W/m -6,3 C -5,4 C 0,0 km/h (0 Bft)
01.01.2021 19:56 -5,4 C -5,0 C 93 % 1013,3 hPa 0,0 l/m 0,0 km/h (0 Bft) SW 231 0 min 0,0 UV-I 0 W/m -6,3 C -5,4 C 0,0 km/h (0 Bft)
01.01.2021 19:58 -5,4 C -5,6 C 93 % 1013,3 hPa 0,0 l/m 0,0 km/h (0 Bft) SW 231 0 min 0,0 UV-I 0 W/m -6,3 C -5,4 C 0,0 km/h (0 Bft)
01.01.2021 20:00 -5,4 C -5,6 C 93 % 1013,3 hPa 0,0 l/m 0,0 km/h (0 Bft) SW 231 0 min 0,0 UV-I 0 W/m -6,3 C -5,4 C 0,0 km/h (0 Bft)
01.01.2021 20:02 -5,3 C -5,6 C 93 % 1013,3 hPa 0,0 l/m 0,0 km/h (0 Bft) SW 231 0 min 0,0 UV-I 0 W/m -6,2 C -5,3 C 0,0 km/h (0 Bft)
01.01.2021 20:04 -5,3 C -5,6 C 93 % 1013,3 hPa 0,0 l/m 0,2 km/h (0 Bft) SW 231 0 min 0,0 UV-I 0 W/m -6,2 C -5,3 C 1,6 km/h (1 Bft)
01.01.2021 20:06 -5,3 C -5,6 C 93 % 1013,3 hPa 0,0 l/m 1,4 km/h (1 Bft) SW 231 0 min 0,0 UV-I 0 W/m -6,2 C -5,3 C 1,6 km/h (1 Bft)
01.01.2021 20:08 -5,3 C -5,6 C 93 % 1013,3 hPa 0,0 l/m 0,9 km/h (0 Bft) SW 231 0 min 0,0 UV-I 0 W/m -6,2 C -5,3 C 1,6 km/h (1 Bft)
01.01.2021 20:10 -5,3 C -5,6 C 93 % 1013,4 hPa 0,0 l/m 1,0 km/h (0 Bft) SW 231 0 min 0,0 UV-I 0 W/m -6,2 C -5,3 C 1,6 km/h (1 Bft)
01.01.2021 20:12 -5,3 C -5,6 C 93 % 1013,4 hPa 0,0 l/m 1,6 km/h (1 Bft) SW 231 0 min 0,0 UV-I 0 W/m -6,2 C -5,3 C 3,2 km/h (1 Bft)
01.01.2021 20:14 -5,3 C -5,6 C 93 % 1013,4 hPa 0,0 l/m 1,4 km/h (1 Bft) SW 231 0 min 0,0 UV-I 0 W/m -6,2 C -5,3 C 1,6 km/h (1 Bft)
01.01.2021 20:16 -5,3 C -5,0 C 93 % 1013,4 hPa 0,0 l/m 1,2 km/h (1 Bft) SW 231 0 min 0,0 UV-I 0 W/m -6,2 C -5,3 C 3,2 km/h (1 Bft)
01.01.2021 20:18 -5,3 C -5,0 C 93 % 1013,5 hPa 0,0 l/m 2,6 km/h (1 Bft) SW 232 0 min 0,0 UV-I 0 W/m -6,2 C -5,3 C 3,2 km/h (1 Bft)
01.01.2021 20:20 -5,3 C -5,0 C 93 % 1013,5 hPa 0,0 l/m 2,2 km/h (1 Bft) SW 231 0 min 0,0 UV-I 0 W/m -6,2 C -5,3 C 4,8 km/h (1 Bft)
01.01.2021 20:22 -5,3 C -5,0 C 94 % 1013,5 hPa 0,0 l/m 2,0 km/h (1 Bft) SW 231 0 min 0,0 UV-I 0 W/m -6,1 C -5,3 C 3,2 km/h (1 Bft)
01.01.2021 20:24 -5,2 C -5,0 C 94 % 1013,5 hPa 0,0 l/m 0,4 km/h (0 Bft) SW 231 0 min 0,0 UV-I 0 W/m -6,0 C -5,2 C 1,6 km/h (1 Bft)
01.01.2021 20:26 -5,2 C -5,0 C 94 % 1013,5 hPa 0,0 l/m 0,9 km/h (0 Bft) SW 231 0 min 0,0 UV-I 0 W/m -6,0 C -5,2 C 1,6 km/h (1 Bft)
01.01.2021 20:28 -5,2 C -5,0 C 94 % 1013,5 hPa 0,0 l/m 1,6 km/h (1 Bft) SW 231 0 min 0,0 UV-I 0 W/m -6,0 C -5,2 C 3,2 km/h (1 Bft)
01.01.2021 20:30 -5,2 C -5,0 C 94 % 1013,6 hPa 0,0 l/m 0,6 km/h (0 Bft) SW 231 0 min 0,0 UV-I 0 W/m -6,0 C -5,2 C 1,6 km/h (1 Bft)
01.01.2021 20:32 -5,2 C -5,0 C 94 % 1013,6 hPa 0,0 l/m 1,5 km/h (1 Bft) SW 231 0 min 0,0 UV-I 0 W/m -6,0 C -5,2 C 3,2 km/h (1 Bft)
01.01.2021 20:34 -5,1 C -5,0 C 94 % 1013,6 hPa 0,0 l/m 1,9 km/h (1 Bft) SW 231 0 min 0,0 UV-I 0 W/m -5,9 C -5,1 C 3,2 km/h (1 Bft)
01.01.2021 20:36 -5,1 C -5,0 C 94 % 1013,7 hPa 0,0 l/m 1,2 km/h (1 Bft) SW 231 0 min 0,0 UV-I 0 W/m -5,9 C -5,1 C 3,2 km/h (1 Bft)
01.01.2021 20:38 -5,1 C -5,0 C 94 % 1013,8 hPa 0,0 l/m 1,0 km/h (0 Bft) SW 231 0 min 0,0 UV-I 0 W/m -5,9 C -5,1 C 1,6 km/h (1 Bft)
01.01.2021 20:40 -5,1 C -4,4 C 94 % 1013,7 hPa 0,0 l/m 1,2 km/h (1 Bft) SW 231 0 min 0,0 UV-I 0 W/m -5,9 C -5,1 C 3,2 km/h (1 Bft)
01.01.2021 20:42 -5,1 C -5,0 C 94 % 1013,8 hPa 0,0 l/m 2,0 km/h (1 Bft) SW 231 0 min 0,0 UV-I 0 W/m -5,9 C -5,1 C 3,2 km/h (1 Bft)
01.01.2021 20:44 -5,1 C -4,4 C 94 % 1014,0 hPa 0,0 l/m 0,4 km/h (0 Bft) SW 231 0 min 0,0 UV-I 0 W/m -5,9 C -5,1 C 1,6 km/h (1 Bft)
01.01.2021 20:46 -5,0 C -4,4 C 94 % 1013,9 hPa 0,0 l/m 0,0 km/h (0 Bft) SW 231 0 min 0,0 UV-I 0 W/m -5,8 C -5,0 C 1,6 km/h (1 Bft)
01.01.2021 20:48 -5,0 C -4,4 C 94 % 1013,9 hPa 0,0 l/m 0,0 km/h (0 Bft) SW 231 0 min 0,0 UV-I 0 W/m -5,8 C -5,0 C 0,0 km/h (0 Bft)
01.01.2021 20:50 -5,0 C -4,4 C 94 % 1013,9 hPa 0,0 l/m 0,0 km/h (0 Bft) SW 231 0 min 0,0 UV-I 0 W/m -5,8 C -5,0 C 0,0 km/h (0 Bft)
01.01.2021 20:52 -5,0 C -4,4 C 94 % 1014,0 hPa 0,0 l/m 0,2 km/h (0 Bft) SW 231 0 min 0,0 UV-I 0 W/m -5,8 C -5,0 C 1,6 km/h (1 Bft)
01.01.2021 20:54 -4,9 C -4,4 C 94 % 1013,9 hPa 0,0 l/m 0,0 km/h (0 Bft) SW 231 0 min 0,0 UV-I 0 W/m -5,7 C -4,9 C 1,6 km/h (1 Bft)
01.01.2021 20:56 -4,9 C -5,0 C 94 % 1014,0 hPa 0,0 l/m 0,0 km/h (0 Bft) SW 231 0 min 0,0 UV-I 0 W/m -5,7 C -4,9 C 0,0 km/h (0 Bft)
01.01.2021 20:58 -4,9 C -4,4 C 94 % 1014,0 hPa 0,0 l/m 0,1 km/h (0 Bft) SW 231 0 min 0,0 UV-I 0 W/m -5,7 C -4,9 C 1,6 km/h (1 Bft)
01.01.2021 21:00 -4,9 C -4,4 C 94 % 1014,0 hPa 0,0 l/m 0,4 km/h (0 Bft) SW 231 0 min 0,0 UV-I 0 W/m -5,7 C -4,9 C 1,6 km/h (1 Bft)
01.01.2021 21:02 -4,9 C -4,4 C 94 % 1014,0 hPa 0,0 l/m 0,3 km/h (0 Bft) SW 231 0 min 0,0 UV-I 0 W/m -5,7 C -4,9 C 1,6 km/h (1 Bft)
01.01.2021 21:04 -4,9 C -5,0 C 94 % 1014,1 hPa 0,0 l/m 1,1 km/h (1 Bft) SW 231 0 min 0,0 UV-I 0 W/m -5,7 C -4,9 C 3,2 km/h (1 Bft)
01.01.2021 21:06 -4,8 C -5,0 C 94 % 1014,1 hPa 0,0 l/m 1,3 km/h (1 Bft) SW 231 0 min 0,0 UV-I 0 W/m -5,6 C -4,8 C 3,2 km/h (1 Bft)
01.01.2021 21:08 -4,8 C -5,0 C 94 % 1014,2 hPa 0,0 l/m 0,1 km/h (0 Bft) SW 231 0 min 0,0 UV-I 0 W/m -5,6 C -4,8 C 1,6 km/h (1 Bft)
01.01.2021 21:10 -4,8 C -4,4 C 94 % 1014,1 hPa 0,0 l/m 0,0 km/h (0 Bft) SW 231 0 min 0,0 UV-I 0 W/m -5,6 C -4,8 C 0,0 km/h (0 Bft)
01.01.2021 21:12 -4,8 C -5,0 C 94 % 1014,1 hPa 0,0 l/m 0,0 km/h (0 Bft) SW 231 0 min 0,0 UV-I 0 W/m -5,6 C -4,8 C 0,0 km/h (0 Bft)
01.01.2021 21:14 -4,8 C -4,4 C 94 % 1014,2 hPa 0,0 l/m 0,0 km/h (0 Bft) SW 231 0 min 0,0 UV-I 0 W/m -5,6 C -4,8 C 0,0 km/h (0 Bft)
01.01.2021 21:16 -4,8 C -4,4 C 94 % 1014,1 hPa 0,0 l/m 0,1 km/h (0 Bft) SW 231 0 min 0,0 UV-I 0 W/m -5,6 C -4,8 C 1,6 km/h (1 Bft)
01.01.2021 21:18 -4,8 C -4,4 C 94 % 1014,1 hPa 0,0 l/m 0,0 km/h (0 Bft) SW 231 0 min 0,0 UV-I 0 W/m -5,6 C -4,8 C 1,6 km/h (1 Bft)
01.01.2021 21:20 -4,7 C -4,4 C 94 % 1014,1 hPa 0,0 l/m 0,0 km/h (0 Bft) SW 231 0 min 0,0 UV-I 0 W/m -5,5 C -4,7 C 0,0 km/h (0 Bft)
01.01.2021 21:22 -4,7 C -4,4 C 94 % 1014,2 hPa 0,0 l/m 0,0 km/h (0 Bft) SW 231 0 min 0,0 UV-I 0 W/m -5,5 C -4,7 C 0,0 km/h (0 Bft)
01.01.2021 21:24 -4,6 C -4,4 C 94 % 1014,1 hPa 0,0 l/m 0,0 km/h (0 Bft) SW 231 0 min 0,0 UV-I 0 W/m -5,4 C -4,6 C 0,0 km/h (0 Bft)
01.01.2021 21:26 -4,6 C -4,4 C 94 % 1014,2 hPa 0,0 l/m 0,0 km/h (0 Bft) SW 231 0 min 0,0 UV-I 0 W/m -5,4 C -4,6 C 0,0 km/h (0 Bft)
01.01.2021 21:28 -4,6 C -4,4 C 94 % 1014,2 hPa 0,0 l/m 0,0 km/h (0 Bft) SW 231 0 min 0,0 UV-I 0 W/m -5,4 C -4,6 C 0,0 km/h (0 Bft)
01.01.2021 21:30 -4,6 C -5,0 C 94 % 1014,2 hPa 0,0 l/m 0,0 km/h (0 Bft) SW 231 0 min 0,0 UV-I 0 W/m -5,4 C -4,6 C 0,0 km/h (0 Bft)
01.01.2021 21:32 -4,6 C -5,0 C 94 % 1014,2 hPa 0,0 l/m 0,0 km/h (0 Bft) SW 231 0 min 0,0 UV-I 0 W/m -5,4 C -4,6 C 0,0 km/h (0 Bft)
01.01.2021 21:34 -4,6 C -5,6 C 94 % 1014,2 hPa 0,0 l/m 0,0 km/h (0 Bft) SW 231 0 min 0,0 UV-I 0 W/m -5,4 C -4,6 C 0,0 km/h (0 Bft)
01.01.2021 21:36 -4,6 C -5,0 C 94 % 1014,2 hPa 0,0 l/m 0,0 km/h (0 Bft) SW 231 0 min 0,0 UV-I 0 W/m -5,4 C -4,6 C 0,0 km/h (0 Bft)
01.01.2021 21:38 -4,5 C -5,0 C 94 % 1014,2 hPa 0,0 l/m 0,6 km/h (0 Bft) SW 231 0 min 0,0 UV-I 0 W/m -5,3 C -4,5 C 1,6 km/h (1 Bft)
01.01.2021 21:40 -4,5 C -4,4 C 94 % 1014,3 hPa 0,0 l/m 0,1 km/h (0 Bft) SW 231 0 min 0,0 UV-I 0 W/m -5,3 C -4,5 C 1,6 km/h (1 Bft)
01.01.2021 21:42 -4,5 C -4,4 C 94 % 1014,2 hPa 0,0 l/m 0,0 km/h (0 Bft) SW 231 0 min 0,0 UV-I 0 W/m -5,3 C -4,5 C 1,6 km/h (1 Bft)
01.01.2021 21:44 -4,5 C -4,4 C 94 % 1014,2 hPa 0,0 l/m 1,0 km/h (0 Bft) SW 231 0 min 0,0 UV-I 0 W/m -5,3 C -4,5 C 1,6 km/h (1 Bft)
01.01.2021 21:46 -4,5 C -4,4 C 94 % 1014,2 hPa 0,0 l/m 1,1 km/h (1 Bft) SW 231 0 min 0,0 UV-I 0 W/m -5,3 C -4,5 C 1,6 km/h (1 Bft)
01.01.2021 21:48 -4,4 C -4,4 C 94 % 1014,3 hPa 0,0 l/m 2,3 km/h (1 Bft) SW 231 0 min 0,0 UV-I 0 W/m -5,2 C -4,4 C 3,2 km/h (1 Bft)
01.01.2021 21:50 -4,4 C -4,4 C 94 % 1014,3 hPa 0,0 l/m 3,2 km/h (1 Bft) SW 231 0 min 0,0 UV-I 0 W/m -5,2 C -4,4 C 4,8 km/h (1 Bft)
01.01.2021 21:52 -4,4 C -4,4 C 94 % 1014,3 hPa 0,0 l/m 4,2 km/h (1 Bft) SW 232 0 min 0,0 UV-I 0 W/m -5,2 C -4,4 C 6,4 km/h (2 Bft)
01.01.2021 21:54 -4,4 C -4,4 C 94 % 1014,3 hPa 0,0 l/m 4,9 km/h (1 Bft) SW 232 0 min 0,0 UV-I 0 W/m -5,2 C -4,4 C 6,4 km/h (2 Bft)
01.01.2021 21:56 -4,4 C -4,4 C 94 % 1014,3 hPa 0,0 l/m 4,7 km/h (1 Bft) SW 232 0 min 0,0 UV-I 0 W/m -5,2 C -4,4 C 6,4 km/h (2 Bft)
01.01.2021 21:58 -4,4 C -4,4 C 94 % 1014,3 hPa 0,0 l/m 4,6 km/h (1 Bft) SW 235 0 min 0,0 UV-I 0 W/m -5,2 C -4,4 C 6,4 km/h (2 Bft)
01.01.2021 22:00 -4,3 C -3,9 C 94 % 1014,3 hPa 0,0 l/m 4,0 km/h (1 Bft) W-SW 242 0 min 0,0 UV-I 0 W/m -5,1 C -4,3 C 6,4 km/h (2 Bft)
01.01.2021 22:02 -4,3 C -3,9 C 94 % 1014,3 hPa 0,0 l/m 2,5 km/h (1 Bft) W-SW 242 0 min 0,0 UV-I 0 W/m -5,1 C -4,3 C 3,2 km/h (1 Bft)
01.01.2021 22:04 -4,3 C -3,9 C 94 % 1014,4 hPa 0,0 l/m 1,3 km/h (1 Bft) W-SW 242 0 min 0,0 UV-I 0 W/m -5,1 C -4,3 C 3,2 km/h (1 Bft)
01.01.2021 22:06 -4,3 C -3,9 C 94 % 1014,3 hPa 0,0 l/m 0,5 km/h (0 Bft) W-SW 242 0 min 0,0 UV-I 0 W/m -5,1 C -4,3 C 1,6 km/h (1 Bft)
01.01.2021 22:08 -4,3 C -3,3 C 94 % 1014,4 hPa 0,0 l/m 1,5 km/h (1 Bft) W-SW 242 0 min 0,0 UV-I 0 W/m -5,1 C -4,3 C 3,2 km/h (1 Bft)
01.01.2021 22:10 -4,2 C -3,3 C 94 % 1014,4 hPa 0,0 l/m 1,4 km/h (1 Bft) W-SW 242 0 min 0,0 UV-I 0 W/m -5,0 C -4,2 C 1,6 km/h (1 Bft)
01.01.2021 22:12 -4,2 C -3,3 C 94 % 1014,4 hPa 0,0 l/m 0,9 km/h (0 Bft) W-SW 242 0 min 0,0 UV-I 0 W/m -5,0 C -4,2 C 1,6 km/h (1 Bft)
01.01.2021 22:14 -4,2 C -3,9 C 94 % 1014,4 hPa 0,0 l/m 0,1 km/h (0 Bft) W-SW 242 0 min 0,0 UV-I 0 W/m -5,0 C -4,2 C 1,6 km/h (1 Bft)
01.01.2021 22:16 -4,1 C -3,9 C 94 % 1014,4 hPa 0,0 l/m 1,4 km/h (1 Bft) W-SW 242 0 min 0,0 UV-I 0 W/m -4,9 C -4,1 C 3,2 km/h (1 Bft)
01.01.2021 22:18 -4,1 C -3,9 C 94 % 1014,4 hPa 0,0 l/m 2,1 km/h (1 Bft) W-SW 242 0 min 0,0 UV-I 0 W/m -4,9 C -4,1 C 3,2 km/h (1 Bft)
01.01.2021 22:20 -4,1 C -3,9 C 94 % 1014,3 hPa 0,0 l/m 1,5 km/h (1 Bft) W-SW 242 0 min 0,0 UV-I 0 W/m -4,9 C -4,1 C 3,2 km/h (1 Bft)
01.01.2021 22:22 -4,1 C -3,9 C 94 % 1014,4 hPa 0,0 l/m 0,0 km/h (0 Bft) W-SW 242 0 min 0,0 UV-I 0 W/m -4,9 C -4,1 C 0,0 km/h (0 Bft)
01.01.2021 22:24 -4,1 C -3,9 C 94 % 1014,4 hPa 0,0 l/m 0,0 km/h (0 Bft) W-SW 242 0 min 0,0 UV-I 0 W/m -4,9 C -4,1 C 0,0 km/h (0 Bft)
01.01.2021 22:26 -4,1 C -3,9 C 94 % 1014,5 hPa 0,0 l/m 0,0 km/h (0 Bft) W-SW 242 0 min 0,0 UV-I 0 W/m -4,9 C -4,1 C 0,0 km/h (0 Bft)
01.01.2021 22:28 -4,0 C -3,3 C 94 % 1014,4 hPa 0,0 l/m 0,5 km/h (0 Bft) W-SW 242 0 min 0,0 UV-I 0 W/m -4,8 C -4,0 C 1,6 km/h (1 Bft)
01.01.2021 22:30 -4,0 C -3,3 C 94 % 1014,5 hPa 0,0 l/m 0,2 km/h (0 Bft) W-SW 242 0 min 0,0 UV-I 0 W/m -4,8 C -4,0 C 1,6 km/h (1 Bft)
01.01.2021 22:32 -3,9 C -3,3 C 94 % 1014,4 hPa 0,0 l/m 0,2 km/h (0 Bft) W-SW 242 0 min 0,0 UV-I 0 W/m -4,7 C -3,9 C 1,6 km/h (1 Bft)
01.01.2021 22:34 -3,9 C -3,3 C 94 % 1014,4 hPa 0,0 l/m 0,0 km/h (0 Bft) W-SW 242 0 min 0,0 UV-I 0 W/m -4,7 C -3,9 C 0,0 km/h (0 Bft)
01.01.2021 22:36 -3,9 C -3,3 C 94 % 1014,5 hPa 0,0 l/m 0,0 km/h (0 Bft) W-SW 242 0 min 0,0 UV-I 0 W/m -4,7 C -3,9 C 0,0 km/h (0 Bft)
01.01.2021 22:38 -3,9 C -2,8 C 94 % 1014,5 hPa 0,0 l/m 0,0 km/h (0 Bft) W-SW 242 0 min 0,0 UV-I 0 W/m -4,7 C -3,9 C 0,0 km/h (0 Bft)
01.01.2021 22:40 -3,8 C -2,8 C 95 % 1014,6 hPa 0,0 l/m 0,0 km/h (0 Bft) W-SW 242 0 min 0,0 UV-I 0 W/m -4,5 C -3,8 C 0,0 km/h (0 Bft)
01.01.2021 22:42 -3,8 C -2,8 C 95 % 1014,6 hPa 0,0 l/m 0,0 km/h (0 Bft) W-SW 242 0 min 0,0 UV-I 0 W/m -4,5 C -3,8 C 0,0 km/h (0 Bft)
01.01.2021 22:44 -3,8 C -2,8 C 95 % 1014,5 hPa 0,0 l/m 0,0 km/h (0 Bft) W-SW 242 0 min 0,0 UV-I 0 W/m -4,5 C -3,8 C 0,0 km/h (0 Bft)
01.01.2021 22:46 -3,8 C -2,8 C 95 % 1014,5 hPa 0,0 l/m 0,0 km/h (0 Bft) W-SW 242 0 min 0,0 UV-I 0 W/m -4,5 C -3,8 C 0,0 km/h (0 Bft)
01.01.2021 22:48 -3,7 C -2,8 C 95 % 1014,5 hPa 0,0 l/m 0,1 km/h (0 Bft) W-SW 242 0 min 0,0 UV-I 0 W/m -4,4 C -3,7 C 1,6 km/h (1 Bft)
01.01.2021 22:50 -3,7 C -2,8 C 95 % 1014,5 hPa 0,0 l/m 0,0 km/h (0 Bft) W-SW 242 0 min 0,0 UV-I 0 W/m -4,4 C -3,7 C 0,0 km/h (0 Bft)
01.01.2021 22:52 -3,7 C -2,8 C 95 % 1014,6 hPa 0,0 l/m 0,8 km/h (0 Bft) W-SW 242 0 min 0,0 UV-I 0 W/m -4,4 C -3,7 C 1,6 km/h (1 Bft)
01.01.2021 22:54 -3,7 C -3,3 C 95 % 1014,5 hPa 0,0 l/m 0,8 km/h (0 Bft) W-SW 242 0 min 0,0 UV-I 0 W/m -4,4 C -3,7 C 1,6 km/h (1 Bft)
01.01.2021 22:56 -3,7 C -3,3 C 95 % 1014,6 hPa 0,0 l/m 0,0 km/h (0 Bft) W-SW 242 0 min 0,0 UV-I 0 W/m -4,4 C -3,7 C 0,0 km/h (0 Bft)
01.01.2021 22:58 -3,6 C -2,8 C 95 % 1014,6 hPa 0,0 l/m 0,0 km/h (0 Bft) W-SW 242 0 min 0,0 UV-I 0 W/m -4,3 C -3,6 C 0,0 km/h (0 Bft)
01.01.2021 23:00 -3,6 C -2,8 C 95 % 1014,6 hPa 0,0 l/m 0,0 km/h (0 Bft) W-SW 242 0 min 0,0 UV-I 0 W/m -4,3 C -3,6 C 0,0 km/h (0 Bft)
01.01.2021 23:02 -3,6 C -2,8 C 95 % 1014,5 hPa 0,0 l/m 0,0 km/h (0 Bft) W-SW 242 0 min 0,0 UV-I 0 W/m -4,3 C -3,6 C 0,0 km/h (0 Bft)
01.01.2021 23:04 -3,6 C -2,8 C 95 % 1014,6 hPa 0,0 l/m 0,0 km/h (0 Bft) W-SW 242 0 min 0,0 UV-I 0 W/m -4,3 C -3,6 C 0,0 km/h (0 Bft)
01.01.2021 23:06 -3,6 C -2,8 C 95 % 1014,5 hPa 0,0 l/m 0,0 km/h (0 Bft) W-SW 242 0 min 0,0 UV-I 0 W/m -4,3 C -3,6 C 0,0 km/h (0 Bft)
01.01.2021 23:08 -3,6 C -2,8 C 95 % 1014,5 hPa 0,0 l/m 1,0 km/h (0 Bft) W-SW 242 0 min 0,0 UV-I 0 W/m -4,3 C -3,6 C 1,6 km/h (1 Bft)
01.01.2021 23:10 -3,6 C -2,8 C 95 % 1014,6 hPa 0,0 l/m 1,6 km/h (1 Bft) W-SW 242 0 min 0,0 UV-I 0 W/m -4,3 C -3,6 C 3,2 km/h (1 Bft)
01.01.2021 23:12 -3,5 C -2,8 C 95 % 1014,5 hPa 0,0 l/m 1,9 km/h (1 Bft) W-SW 242 0 min 0,0 UV-I 0 W/m -4,2 C -3,5 C 3,2 km/h (1 Bft)
01.01.2021 23:14 -3,5 C -2,8 C 95 % 1014,6 hPa 0,0 l/m 1,7 km/h (1 Bft) W-SW 242 0 min 0,0 UV-I 0 W/m -4,2 C -3,5 C 3,2 km/h (1 Bft)
01.01.2021 23:16 -3,4 C -2,8 C 95 % 1014,6 hPa 0,0 l/m 0,0 km/h (0 Bft) W-SW 242 0 min 0,0 UV-I 0 W/m -4,1 C -3,4 C 0,0 km/h (0 Bft)
01.01.2021 23:18 -3,4 C -2,8 C 95 % 1014,5 hPa 0,0 l/m 0,0 km/h (0 Bft) W-SW 242 0 min 0,0 UV-I 0 W/m -4,1 C -3,4 C 0,0 km/h (0 Bft)
01.01.2021 23:20 -3,4 C -2,8 C 95 % 1014,5 hPa 0,0 l/m 0,0 km/h (0 Bft) W-SW 242 0 min 0,0 UV-I 0 W/m -4,1 C -3,4 C 0,0 km/h (0 Bft)
01.01.2021 23:22 -3,4 C -2,8 C 95 % 1014,5 hPa 0,0 l/m 0,0 km/h (0 Bft) W-SW 242 0 min 0,0 UV-I 0 W/m -4,1 C -3,4 C 0,0 km/h (0 Bft)
01.01.2021 23:24 -3,4 C -2,8 C 95 % 1014,5 hPa 0,0 l/m 0,0 km/h (0 Bft) W-SW 242 0 min 0,0 UV-I 0 W/m -4,1 C -3,4 C 0,0 km/h (0 Bft)
01.01.2021 23:26 -3,3 C -2,8 C 95 % 1014,6 hPa 0,0 l/m 0,0 km/h (0 Bft) W-SW 242 0 min 0,0 UV-I 0 W/m -4,0 C -3,3 C 0,0 km/h (0 Bft)
01.01.2021 23:28 -3,3 C -2,8 C 95 % 1014,5 hPa 0,0 l/m 0,0 km/h (0 Bft) W-SW 242 0 min 0,0 UV-I 0 W/m -4,0 C -3,3 C 0,0 km/h (0 Bft)
01.01.2021 23:30 -3,3 C -2,8 C 95 % 1014,6 hPa 0,0 l/m 0,0 km/h (0 Bft) W-SW 242 0 min 0,0 UV-I 0 W/m -4,0 C -3,3 C 0,0 km/h (0 Bft)
01.01.2021 23:32 -3,3 C -2,8 C 95 % 1014,5 hPa 0,0 l/m 0,1 km/h (0 Bft) W-SW 242 0 min 0,0 UV-I 0 W/m -4,0 C -3,3 C 1,6 km/h (1 Bft)
01.01.2021 23:34 -3,3 C -2,8 C 95 % 1014,6 hPa 0,0 l/m 0,0 km/h (0 Bft) W-SW 242 0 min 0,0 UV-I 0 W/m -4,0 C -3,3 C 0,0 km/h (0 Bft)
01.01.2021 23:36 -3,3 C -2,8 C 95 % 1014,6 hPa 0,0 l/m 0,0 km/h (0 Bft) W-SW 242 0 min 0,0 UV-I 0 W/m -4,0 C -3,3 C 0,0 km/h (0 Bft)
01.01.2021 23:38 -3,3 C -2,8 C 95 % 1014,6 hPa 0,0 l/m 0,1 km/h (0 Bft) W-SW 242 0 min 0,0 UV-I 0 W/m -4,0 C -3,3 C 1,6 km/h (1 Bft)
01.01.2021 23:40 -3,2 C -2,8 C 95 % 1014,6 hPa 0,0 l/m 0,1 km/h (0 Bft) W-SW 242 0 min 0,0 UV-I 0 W/m -3,9 C -3,2 C 1,6 km/h (1 Bft)
01.01.2021 23:42 -3,2 C -2,8 C 95 % 1014,6 hPa 0,0 l/m 0,0 km/h (0 Bft) W-SW 242 0 min 0,0 UV-I 0 W/m -3,9 C -3,2 C 1,6 km/h (1 Bft)
01.01.2021 23:44 -3,1 C -2,8 C 95 % 1014,6 hPa 0,0 l/m 0,0 km/h (0 Bft) W-SW 242 0 min 0,0 UV-I 0 W/m -3,8 C -3,1 C 0,0 km/h (0 Bft)
01.01.2021 23:46 -3,1 C -2,2 C 95 % 1014,5 hPa 0,0 l/m 0,0 km/h (0 Bft) W-SW 242 0 min 0,0 UV-I 0 W/m -3,8 C -3,1 C 0,0 km/h (0 Bft)
01.01.2021 23:48 -3,1 C -2,2 C 95 % 1014,5 hPa 0,0 l/m 0,0 km/h (0 Bft) W-SW 242 0 min 0,0 UV-I 0 W/m -3,8 C -3,1 C 1,6 km/h (1 Bft)
01.01.2021 23:50 -3,1 C -2,2 C 95 % 1014,6 hPa 0,0 l/m 0,0 km/h (0 Bft) W-SW 242 0 min 0,0 UV-I 0 W/m -3,8 C -3,1 C 0,0 km/h (0 Bft)
01.01.2021 23:52 -3,1 C -2,2 C 95 % 1014,6 hPa 0,0 l/m 0,0 km/h (0 Bft) W-SW 242 0 min 0,0 UV-I 0 W/m -3,8 C -3,1 C 0,0 km/h (0 Bft)
01.01.2021 23:54 -2,9 C -2,2 C 95 % 1014,5 hPa 0,0 l/m 0,0 km/h (0 Bft) W-SW 242 0 min 0,0 UV-I 0 W/m -3,6 C -2,9 C 0,0 km/h (0 Bft)
01.01.2021 23:56 -2,9 C -2,2 C 95 % 1014,5 hPa 0,0 l/m 0,0 km/h (0 Bft) W-SW 242 0 min 0,0 UV-I 0 W/m -3,6 C -2,9 C 0,0 km/h (0 Bft)
01.01.2021 23:58 -2,9 C -2,2 C 95 % 1014,5 hPa 0,0 l/m 0,4 km/h (0 Bft) W-SW 242 0 min 0,0 UV-I 0 W/m -3,6 C -2,9 C 1,6 km/h (1 Bft)
01.01.2021 23:59 -2,9 C -2,2 C 95 % 1014,6 hPa 0,0 l/m 0,0 km/h (0 Bft) W-SW 247 0 min 0,0 UV-I 0 W/m -3,6 C -2,9 C 1,6 km/h (1 Bft)
_ Min-Zeit 19:00 18:34 13:27 00:00 - 00:00 - - - - - 19:00 19:00 00:00
Minimum _ -6,1 C -8,3 C 87 % 1005,7 hPa - 0,0 km/h (0 Bft) - - - - - -7,3 C -6,1 C 0,0 km/h (0 Bft)
_ Max-Zeit 13:19 12:52 10:28 22:40 00:00 13:38 - - 00:00 13:02 13:35 13:13 13:19 13:38
Maximum _ 2,4 C 1,7 C 96 % 1014,6 hPa 0,0 l/m 6,4 km/h
W (2 Bft)
- - 0 min 0,7 UV-I 153 W/m 0,9 C 2,4 C 9,7 km/h
W (2 Bft)
Durchschnitt _ -1,3 C -1,4 C 94 % 1010,4 hPa #0,0 l/m 0,9 km/h (0 Bft) NW - #0 min. 0,6 UV-I 65 W/m -2,2 C -1,3 C 1,8 km/h (1 Bft)